<?xml version="1.0" encoding="UTF-8" standalone="no" ?>
<gpx xmlns="http://www.topografix.com/GPX/1/1" xmlns:xsi="http://www.w3.org/2001/XMLSchema-instance" xsi:schemaLocation="http://www.topografix.com/GPX/1/1 http://www.topografix.com/GPX/1/1/gpx.xsd" version="1.1" creator="VisuGPX - https://www.visugpx.com">
  <metadata>
    <name>Compostelle St Chely- Espalion</name>
  </metadata>
  <wpt lat="44.52583" lon="2.72841">
    <ele>337.4</ele>
  </wpt>
  <trk>
    <name><![CDATA[10-AOU-12 15:58:35 J3]]></name>
    <extensions>
      <line xmlns="http://www.topografix.com/GPX/gpx_style/0/2">
        <color>0000FF</color>
        <width>4</width>
      </line>
    </extensions>
    <trkseg>
      <trkpt lat="44.66231" lon="3.04641">
        <ele>1179.67</ele>
        <time>2012-08-09T13:52:26Z</time>
      </trkpt>
      <trkpt lat="44.66231" lon="3.04641">
        <ele>1179.67</ele>
        <time>2012-08-09T13:52:26Z</time>
      </trkpt>
      <trkpt lat="44.66231" lon="3.04641">
        <ele>1179.67</ele>
        <time>2012-08-09T13:52:32Z</time>
      </trkpt>
      <trkpt lat="44.67079" lon="3.03893">
        <ele>1183.04</ele>
        <time>2012-08-09T15:01:55Z</time>
      </trkpt>
      <trkpt lat="44.67081" lon="3.03884">
        <ele>1175.83</ele>
        <time>2012-08-09T15:02:20Z</time>
      </trkpt>
      <trkpt lat="44.6708" lon="3.03883">
        <ele>1172.95</ele>
        <time>2012-08-09T15:02:53Z</time>
      </trkpt>
      <trkpt lat="44.67079" lon="3.03884">
        <ele>1171.5</ele>
        <time>2012-08-09T15:03:20Z</time>
      </trkpt>
      <trkpt lat="44.6708" lon="3.03885">
        <ele>1171.5</ele>
        <time>2012-08-09T15:03:53Z</time>
      </trkpt>
      <trkpt lat="44.6708" lon="3.03883">
        <ele>1172.47</ele>
        <time>2012-08-09T15:04:24Z</time>
      </trkpt>
      <trkpt lat="44.67081" lon="3.03883">
        <ele>1172.95</ele>
        <time>2012-08-09T15:04:55Z</time>
      </trkpt>
      <trkpt lat="44.67081" lon="3.03883">
        <ele>1172.95</ele>
        <time>2012-08-09T15:05:02Z</time>
      </trkpt>
      <trkpt lat="44.67106" lon="3.03861">
        <ele>1213.32</ele>
        <time>2012-08-09T15:19:24Z</time>
      </trkpt>
      <trkpt lat="44.67084" lon="3.03887">
        <ele>1176.31</ele>
        <time>2012-08-09T15:19:46Z</time>
      </trkpt>
      <trkpt lat="44.67084" lon="3.03886">
        <ele>1172.95</ele>
        <time>2012-08-09T15:20:20Z</time>
      </trkpt>
      <trkpt lat="44.67086" lon="3.03883">
        <ele>1170.54</ele>
        <time>2012-08-09T15:20:53Z</time>
      </trkpt>
      <trkpt lat="44.67083" lon="3.03883">
        <ele>1168.62</ele>
        <time>2012-08-09T15:21:21Z</time>
      </trkpt>
      <trkpt lat="44.67083" lon="3.03885">
        <ele>1169.1</ele>
        <time>2012-08-09T15:21:54Z</time>
      </trkpt>
      <trkpt lat="44.67083" lon="3.03885">
        <ele>1170.06</ele>
        <time>2012-08-09T15:22:10Z</time>
      </trkpt>
      <trkpt lat="44.67077" lon="3.03882">
        <ele>1160.45</ele>
        <time>2012-08-09T17:53:44Z</time>
      </trkpt>
      <trkpt lat="44.67077" lon="3.03882">
        <ele>1170.54</ele>
        <time>2012-08-09T17:54:12Z</time>
      </trkpt>
      <trkpt lat="44.67081" lon="3.03885">
        <ele>1171.98</ele>
        <time>2012-08-09T17:54:42Z</time>
      </trkpt>
      <trkpt lat="44.67081" lon="3.03884">
        <ele>1175.83</ele>
        <time>2012-08-09T17:55:07Z</time>
      </trkpt>
      <trkpt lat="44.67079" lon="3.03881">
        <ele>1177.75</ele>
        <time>2012-08-09T17:55:37Z</time>
      </trkpt>
      <trkpt lat="44.67079" lon="3.03881">
        <ele>1177.75</ele>
        <time>2012-08-09T17:56:06Z</time>
      </trkpt>
      <trkpt lat="44.67078" lon="3.0388">
        <ele>1177.75</ele>
        <time>2012-08-09T17:56:40Z</time>
      </trkpt>
      <trkpt lat="44.67078" lon="3.0388">
        <ele>1176.31</ele>
        <time>2012-08-09T17:57:10Z</time>
      </trkpt>
      <trkpt lat="44.67078" lon="3.0388">
        <ele>1175.83</ele>
        <time>2012-08-09T17:57:41Z</time>
      </trkpt>
      <trkpt lat="44.67079" lon="3.0388">
        <ele>1175.83</ele>
        <time>2012-08-09T17:58:08Z</time>
      </trkpt>
      <trkpt lat="44.6708" lon="3.0388">
        <ele>1175.83</ele>
        <time>2012-08-09T17:58:41Z</time>
      </trkpt>
      <trkpt lat="44.67079" lon="3.03881">
        <ele>1176.79</ele>
        <time>2012-08-09T17:59:09Z</time>
      </trkpt>
      <trkpt lat="44.6708" lon="3.0388">
        <ele>1176.31</ele>
        <time>2012-08-09T17:59:38Z</time>
      </trkpt>
      <trkpt lat="44.6708" lon="3.0388">
        <ele>1175.83</ele>
        <time>2012-08-09T18:00:07Z</time>
      </trkpt>
      <trkpt lat="44.6708" lon="3.0388">
        <ele>1174.87</ele>
        <time>2012-08-09T18:00:37Z</time>
      </trkpt>
      <trkpt lat="44.6708" lon="3.0388">
        <ele>1174.87</ele>
        <time>2012-08-09T18:01:09Z</time>
      </trkpt>
      <trkpt lat="44.6708" lon="3.03879">
        <ele>1174.87</ele>
        <time>2012-08-09T18:01:40Z</time>
      </trkpt>
      <trkpt lat="44.6708" lon="3.03879">
        <ele>1175.35</ele>
        <time>2012-08-09T18:02:05Z</time>
      </trkpt>
      <trkpt lat="44.66226" lon="3.04639">
        <ele>1178.71</ele>
        <time>2012-08-10T05:49:14Z</time>
      </trkpt>
      <trkpt lat="44.66232" lon="3.04639">
        <ele>1189.29</ele>
        <time>2012-08-10T05:49:39Z</time>
      </trkpt>
      <trkpt lat="44.66234" lon="3.04637">
        <ele>1195.54</ele>
        <time>2012-08-10T05:50:10Z</time>
      </trkpt>
      <trkpt lat="44.66229" lon="3.04641">
        <ele>1196.02</ele>
        <time>2012-08-10T05:50:40Z</time>
      </trkpt>
      <trkpt lat="44.66224" lon="3.04639">
        <ele>1186.4</ele>
        <time>2012-08-10T05:50:55Z</time>
      </trkpt>
      <trkpt lat="44.66223" lon="3.0464">
        <ele>1182.56</ele>
        <time>2012-08-10T05:51:06Z</time>
      </trkpt>
      <trkpt lat="44.6622" lon="3.04628">
        <ele>1181.12</ele>
        <time>2012-08-10T05:51:20Z</time>
      </trkpt>
      <trkpt lat="44.6622" lon="3.04628">
        <ele>1182.08</ele>
        <time>2012-08-10T05:51:32Z</time>
      </trkpt>
      <trkpt lat="44.66216" lon="3.04629">
        <ele>1180.64</ele>
        <time>2012-08-10T05:51:44Z</time>
      </trkpt>
      <trkpt lat="44.66216" lon="3.04627">
        <ele>1182.08</ele>
        <time>2012-08-10T05:52:01Z</time>
      </trkpt>
      <trkpt lat="44.66219" lon="3.04626">
        <ele>1181.6</ele>
        <time>2012-08-10T05:52:04Z</time>
      </trkpt>
      <trkpt lat="44.66221" lon="3.04625">
        <ele>1181.12</ele>
        <time>2012-08-10T05:52:19Z</time>
      </trkpt>
      <trkpt lat="44.6622" lon="3.04625">
        <ele>1182.08</ele>
        <time>2012-08-10T05:52:52Z</time>
      </trkpt>
      <trkpt lat="44.66221" lon="3.04625">
        <ele>1181.6</ele>
        <time>2012-08-10T05:53:23Z</time>
      </trkpt>
      <trkpt lat="44.66222" lon="3.04624">
        <ele>1183.52</ele>
        <time>2012-08-10T05:53:58Z</time>
      </trkpt>
      <trkpt lat="44.66222" lon="3.04623">
        <ele>1184</ele>
        <time>2012-08-10T05:54:34Z</time>
      </trkpt>
      <trkpt lat="44.66221" lon="3.04624">
        <ele>1184</ele>
        <time>2012-08-10T05:55:07Z</time>
      </trkpt>
      <trkpt lat="44.66221" lon="3.04625">
        <ele>1184.48</ele>
        <time>2012-08-10T05:55:35Z</time>
      </trkpt>
      <trkpt lat="44.66221" lon="3.04625">
        <ele>1184</ele>
        <time>2012-08-10T05:56:06Z</time>
      </trkpt>
      <trkpt lat="44.66221" lon="3.04625">
        <ele>1183.52</ele>
        <time>2012-08-10T05:56:31Z</time>
      </trkpt>
      <trkpt lat="44.6622" lon="3.04624">
        <ele>1183.04</ele>
        <time>2012-08-10T05:56:40Z</time>
      </trkpt>
      <trkpt lat="44.66216" lon="3.0462">
        <ele>1182.56</ele>
        <time>2012-08-10T05:56:44Z</time>
      </trkpt>
      <trkpt lat="44.66217" lon="3.04607">
        <ele>1182.08</ele>
        <time>2012-08-10T05:56:49Z</time>
      </trkpt>
      <trkpt lat="44.66226" lon="3.0456">
        <ele>1182.56</ele>
        <time>2012-08-10T05:57:03Z</time>
      </trkpt>
      <trkpt lat="44.66242" lon="3.04512">
        <ele>1186.4</ele>
        <time>2012-08-10T05:57:17Z</time>
      </trkpt>
      <trkpt lat="44.66256" lon="3.04466">
        <ele>1191.69</ele>
        <time>2012-08-10T05:57:30Z</time>
      </trkpt>
      <trkpt lat="44.66265" lon="3.04444">
        <ele>1192.65</ele>
        <time>2012-08-10T05:57:39Z</time>
      </trkpt>
      <trkpt lat="44.66255" lon="3.04357">
        <ele>1189.29</ele>
        <time>2012-08-10T05:57:54Z</time>
      </trkpt>
      <trkpt lat="44.66254" lon="3.04352">
        <ele>1189.29</ele>
        <time>2012-08-10T05:57:55Z</time>
      </trkpt>
      <trkpt lat="44.66244" lon="3.04328">
        <ele>1189.29</ele>
        <time>2012-08-10T05:58:00Z</time>
      </trkpt>
      <trkpt lat="44.66241" lon="3.04324">
        <ele>1189.29</ele>
        <time>2012-08-10T05:58:01Z</time>
      </trkpt>
      <trkpt lat="44.66211" lon="3.04274">
        <ele>1189.29</ele>
        <time>2012-08-10T05:58:13Z</time>
      </trkpt>
      <trkpt lat="44.66169" lon="3.04202">
        <ele>1190.25</ele>
        <time>2012-08-10T05:58:29Z</time>
      </trkpt>
      <trkpt lat="44.66166" lon="3.04198">
        <ele>1190.25</ele>
        <time>2012-08-10T05:58:30Z</time>
      </trkpt>
      <trkpt lat="44.66112" lon="3.0412">
        <ele>1189.29</ele>
        <time>2012-08-10T05:58:48Z</time>
      </trkpt>
      <trkpt lat="44.66096" lon="3.04099">
        <ele>1189.77</ele>
        <time>2012-08-10T05:58:53Z</time>
      </trkpt>
      <trkpt lat="44.66081" lon="3.04077">
        <ele>1189.29</ele>
        <time>2012-08-10T05:58:58Z</time>
      </trkpt>
      <trkpt lat="44.66079" lon="3.04072">
        <ele>1189.29</ele>
        <time>2012-08-10T05:58:59Z</time>
      </trkpt>
      <trkpt lat="44.6604" lon="3.04017">
        <ele>1189.29</ele>
        <time>2012-08-10T05:59:15Z</time>
      </trkpt>
      <trkpt lat="44.66027" lon="3.03994">
        <ele>1190.73</ele>
        <time>2012-08-10T05:59:24Z</time>
      </trkpt>
      <trkpt lat="44.66027" lon="3.03991">
        <ele>1190.73</ele>
        <time>2012-08-10T05:59:25Z</time>
      </trkpt>
      <trkpt lat="44.66042" lon="3.03949">
        <ele>1192.65</ele>
        <time>2012-08-10T05:59:41Z</time>
      </trkpt>
      <trkpt lat="44.66053" lon="3.03915">
        <ele>1196.98</ele>
        <time>2012-08-10T05:59:55Z</time>
      </trkpt>
      <trkpt lat="44.66068" lon="3.03887">
        <ele>1198.42</ele>
        <time>2012-08-10T06:00:09Z</time>
      </trkpt>
      <trkpt lat="44.66071" lon="3.03884">
        <ele>1197.94</ele>
        <time>2012-08-10T06:00:11Z</time>
      </trkpt>
      <trkpt lat="44.66072" lon="3.03882">
        <ele>1198.42</ele>
        <time>2012-08-10T06:00:12Z</time>
      </trkpt>
      <trkpt lat="44.66073" lon="3.0388">
        <ele>1198.42</ele>
        <time>2012-08-10T06:00:13Z</time>
      </trkpt>
      <trkpt lat="44.66073" lon="3.03877">
        <ele>1198.9</ele>
        <time>2012-08-10T06:00:14Z</time>
      </trkpt>
      <trkpt lat="44.66074" lon="3.03876">
        <ele>1198.9</ele>
        <time>2012-08-10T06:00:15Z</time>
      </trkpt>
      <trkpt lat="44.66077" lon="3.03872">
        <ele>1199.38</ele>
        <time>2012-08-10T06:00:17Z</time>
      </trkpt>
      <trkpt lat="44.66078" lon="3.03871">
        <ele>1199.86</ele>
        <time>2012-08-10T06:00:18Z</time>
      </trkpt>
      <trkpt lat="44.66079" lon="3.0387">
        <ele>1199.86</ele>
        <time>2012-08-10T06:00:19Z</time>
      </trkpt>
      <trkpt lat="44.6608" lon="3.03869">
        <ele>1199.86</ele>
        <time>2012-08-10T06:00:20Z</time>
      </trkpt>
      <trkpt lat="44.66081" lon="3.03867">
        <ele>1200.34</ele>
        <time>2012-08-10T06:00:21Z</time>
      </trkpt>
      <trkpt lat="44.66083" lon="3.03866">
        <ele>1200.34</ele>
        <time>2012-08-10T06:00:22Z</time>
      </trkpt>
      <trkpt lat="44.66092" lon="3.03856">
        <ele>1203.23</ele>
        <time>2012-08-10T06:00:32Z</time>
      </trkpt>
      <trkpt lat="44.66093" lon="3.03855">
        <ele>1203.71</ele>
        <time>2012-08-10T06:00:33Z</time>
      </trkpt>
      <trkpt lat="44.6611" lon="3.03847">
        <ele>1206.59</ele>
        <time>2012-08-10T06:00:43Z</time>
      </trkpt>
      <trkpt lat="44.66118" lon="3.03845">
        <ele>1208.51</ele>
        <time>2012-08-10T06:00:47Z</time>
      </trkpt>
      <trkpt lat="44.66131" lon="3.03825">
        <ele>1210.92</ele>
        <time>2012-08-10T06:00:56Z</time>
      </trkpt>
      <trkpt lat="44.66132" lon="3.03823">
        <ele>1210.92</ele>
        <time>2012-08-10T06:00:57Z</time>
      </trkpt>
      <trkpt lat="44.66132" lon="3.0382">
        <ele>1210.92</ele>
        <time>2012-08-10T06:00:58Z</time>
      </trkpt>
      <trkpt lat="44.66131" lon="3.03819">
        <ele>1210.92</ele>
        <time>2012-08-10T06:00:59Z</time>
      </trkpt>
      <trkpt lat="44.6613" lon="3.03817">
        <ele>1210.92</ele>
        <time>2012-08-10T06:01:00Z</time>
      </trkpt>
      <trkpt lat="44.66125" lon="3.03805">
        <ele>1210.92</ele>
        <time>2012-08-10T06:01:10Z</time>
      </trkpt>
      <trkpt lat="44.66123" lon="3.03799">
        <ele>1210.44</ele>
        <time>2012-08-10T06:01:13Z</time>
      </trkpt>
      <trkpt lat="44.66122" lon="3.03796">
        <ele>1210.92</ele>
        <time>2012-08-10T06:01:14Z</time>
      </trkpt>
      <trkpt lat="44.66121" lon="3.03794">
        <ele>1210.92</ele>
        <time>2012-08-10T06:01:15Z</time>
      </trkpt>
      <trkpt lat="44.6612" lon="3.03792">
        <ele>1210.92</ele>
        <time>2012-08-10T06:01:16Z</time>
      </trkpt>
      <trkpt lat="44.66118" lon="3.0379">
        <ele>1211.4</ele>
        <time>2012-08-10T06:01:17Z</time>
      </trkpt>
      <trkpt lat="44.66117" lon="3.03789">
        <ele>1211.4</ele>
        <time>2012-08-10T06:01:18Z</time>
      </trkpt>
      <trkpt lat="44.66108" lon="3.03772">
        <ele>1213.8</ele>
        <time>2012-08-10T06:01:28Z</time>
      </trkpt>
      <trkpt lat="44.66107" lon="3.03771">
        <ele>1213.8</ele>
        <time>2012-08-10T06:01:29Z</time>
      </trkpt>
      <trkpt lat="44.66102" lon="3.03762">
        <ele>1213.8</ele>
        <time>2012-08-10T06:01:35Z</time>
      </trkpt>
      <trkpt lat="44.66092" lon="3.03732">
        <ele>1213.8</ele>
        <time>2012-08-10T06:01:48Z</time>
      </trkpt>
      <trkpt lat="44.6609" lon="3.03724">
        <ele>1214.28</ele>
        <time>2012-08-10T06:01:51Z</time>
      </trkpt>
      <trkpt lat="44.66089" lon="3.03722">
        <ele>1214.76</ele>
        <time>2012-08-10T06:01:52Z</time>
      </trkpt>
      <trkpt lat="44.66088" lon="3.0372">
        <ele>1214.76</ele>
        <time>2012-08-10T06:01:53Z</time>
      </trkpt>
      <trkpt lat="44.66088" lon="3.03718">
        <ele>1214.76</ele>
        <time>2012-08-10T06:01:54Z</time>
      </trkpt>
      <trkpt lat="44.66087" lon="3.03715">
        <ele>1215.24</ele>
        <time>2012-08-10T06:01:55Z</time>
      </trkpt>
      <trkpt lat="44.66086" lon="3.03713">
        <ele>1215.72</ele>
        <time>2012-08-10T06:01:56Z</time>
      </trkpt>
      <trkpt lat="44.66086" lon="3.03711">
        <ele>1216.21</ele>
        <time>2012-08-10T06:01:57Z</time>
      </trkpt>
      <trkpt lat="44.66085" lon="3.03709">
        <ele>1216.21</ele>
        <time>2012-08-10T06:01:58Z</time>
      </trkpt>
      <trkpt lat="44.66084" lon="3.03708">
        <ele>1216.21</ele>
        <time>2012-08-10T06:01:59Z</time>
      </trkpt>
      <trkpt lat="44.6606" lon="3.03695">
        <ele>1218.61</ele>
        <time>2012-08-10T06:02:11Z</time>
      </trkpt>
      <trkpt lat="44.66031" lon="3.03684">
        <ele>1217.65</ele>
        <time>2012-08-10T06:02:23Z</time>
      </trkpt>
      <trkpt lat="44.65996" lon="3.03675">
        <ele>1218.13</ele>
        <time>2012-08-10T06:02:37Z</time>
      </trkpt>
      <trkpt lat="44.65957" lon="3.03663">
        <ele>1218.13</ele>
        <time>2012-08-10T06:02:52Z</time>
      </trkpt>
      <trkpt lat="44.65936" lon="3.03626">
        <ele>1219.09</ele>
        <time>2012-08-10T06:03:05Z</time>
      </trkpt>
      <trkpt lat="44.6593" lon="3.03596">
        <ele>1219.57</ele>
        <time>2012-08-10T06:03:17Z</time>
      </trkpt>
      <trkpt lat="44.65931" lon="3.03594">
        <ele>1219.09</ele>
        <time>2012-08-10T06:03:32Z</time>
      </trkpt>
      <trkpt lat="44.65931" lon="3.03594">
        <ele>1218.61</ele>
        <time>2012-08-10T06:04:06Z</time>
      </trkpt>
      <trkpt lat="44.65932" lon="3.03595">
        <ele>1218.13</ele>
        <time>2012-08-10T06:04:45Z</time>
      </trkpt>
      <trkpt lat="44.65932" lon="3.03596">
        <ele>1216.69</ele>
        <time>2012-08-10T06:05:22Z</time>
      </trkpt>
      <trkpt lat="44.65932" lon="3.03595">
        <ele>1217.17</ele>
        <time>2012-08-10T06:05:57Z</time>
      </trkpt>
      <trkpt lat="44.65932" lon="3.03595">
        <ele>1216.21</ele>
        <time>2012-08-10T06:06:36Z</time>
      </trkpt>
      <trkpt lat="44.65932" lon="3.03595">
        <ele>1216.69</ele>
        <time>2012-08-10T06:07:11Z</time>
      </trkpt>
      <trkpt lat="44.65931" lon="3.03595">
        <ele>1216.69</ele>
        <time>2012-08-10T06:07:37Z</time>
      </trkpt>
      <trkpt lat="44.6593" lon="3.03593">
        <ele>1216.69</ele>
        <time>2012-08-10T06:07:39Z</time>
      </trkpt>
      <trkpt lat="44.65929" lon="3.03591">
        <ele>1216.69</ele>
        <time>2012-08-10T06:07:40Z</time>
      </trkpt>
      <trkpt lat="44.65913" lon="3.03549">
        <ele>1217.17</ele>
        <time>2012-08-10T06:07:54Z</time>
      </trkpt>
      <trkpt lat="44.65897" lon="3.03518">
        <ele>1217.17</ele>
        <time>2012-08-10T06:08:02Z</time>
      </trkpt>
      <trkpt lat="44.65889" lon="3.03495">
        <ele>1217.17</ele>
        <time>2012-08-10T06:08:06Z</time>
      </trkpt>
      <trkpt lat="44.65862" lon="3.03416">
        <ele>1217.17</ele>
        <time>2012-08-10T06:08:18Z</time>
      </trkpt>
      <trkpt lat="44.6586" lon="3.03409">
        <ele>1217.65</ele>
        <time>2012-08-10T06:08:19Z</time>
      </trkpt>
      <trkpt lat="44.65854" lon="3.03389">
        <ele>1217.65</ele>
        <time>2012-08-10T06:08:22Z</time>
      </trkpt>
      <trkpt lat="44.65849" lon="3.0337">
        <ele>1218.13</ele>
        <time>2012-08-10T06:08:25Z</time>
      </trkpt>
      <trkpt lat="44.65848" lon="3.03364">
        <ele>1218.61</ele>
        <time>2012-08-10T06:08:26Z</time>
      </trkpt>
      <trkpt lat="44.6584" lon="3.03332">
        <ele>1219.09</ele>
        <time>2012-08-10T06:08:31Z</time>
      </trkpt>
      <trkpt lat="44.65838" lon="3.03325">
        <ele>1219.57</ele>
        <time>2012-08-10T06:08:32Z</time>
      </trkpt>
      <trkpt lat="44.65821" lon="3.0327">
        <ele>1219.09</ele>
        <time>2012-08-10T06:08:40Z</time>
      </trkpt>
      <trkpt lat="44.6582" lon="3.03263">
        <ele>1219.09</ele>
        <time>2012-08-10T06:08:41Z</time>
      </trkpt>
      <trkpt lat="44.65817" lon="3.03213">
        <ele>1218.61</ele>
        <time>2012-08-10T06:08:47Z</time>
      </trkpt>
      <trkpt lat="44.65817" lon="3.03179">
        <ele>1218.61</ele>
        <time>2012-08-10T06:08:51Z</time>
      </trkpt>
      <trkpt lat="44.65818" lon="3.03171">
        <ele>1218.13</ele>
        <time>2012-08-10T06:08:52Z</time>
      </trkpt>
      <trkpt lat="44.65819" lon="3.03059">
        <ele>1214.28</ele>
        <time>2012-08-10T06:09:04Z</time>
      </trkpt>
      <trkpt lat="44.65808" lon="3.03009">
        <ele>1212.84</ele>
        <time>2012-08-10T06:09:09Z</time>
      </trkpt>
      <trkpt lat="44.65797" lon="3.02951">
        <ele>1210.44</ele>
        <time>2012-08-10T06:09:14Z</time>
      </trkpt>
      <trkpt lat="44.65793" lon="3.0294">
        <ele>1209.96</ele>
        <time>2012-08-10T06:09:15Z</time>
      </trkpt>
      <trkpt lat="44.65788" lon="3.02931">
        <ele>1209.48</ele>
        <time>2012-08-10T06:09:16Z</time>
      </trkpt>
      <trkpt lat="44.65783" lon="3.02922">
        <ele>1209.48</ele>
        <time>2012-08-10T06:09:17Z</time>
      </trkpt>
      <trkpt lat="44.65778" lon="3.02914">
        <ele>1209</ele>
        <time>2012-08-10T06:09:18Z</time>
      </trkpt>
      <trkpt lat="44.65765" lon="3.02895">
        <ele>1209.48</ele>
        <time>2012-08-10T06:09:21Z</time>
      </trkpt>
      <trkpt lat="44.65744" lon="3.02862">
        <ele>1211.88</ele>
        <time>2012-08-10T06:09:31Z</time>
      </trkpt>
      <trkpt lat="44.65717" lon="3.02811">
        <ele>1212.36</ele>
        <time>2012-08-10T06:09:44Z</time>
      </trkpt>
      <trkpt lat="44.65711" lon="3.02763">
        <ele>1214.76</ele>
        <time>2012-08-10T06:09:56Z</time>
      </trkpt>
      <trkpt lat="44.657" lon="3.02721">
        <ele>1214.76</ele>
        <time>2012-08-10T06:10:04Z</time>
      </trkpt>
      <trkpt lat="44.65695" lon="3.02662">
        <ele>1215.72</ele>
        <time>2012-08-10T06:10:17Z</time>
      </trkpt>
      <trkpt lat="44.65689" lon="3.0264">
        <ele>1218.61</ele>
        <time>2012-08-10T06:10:25Z</time>
      </trkpt>
      <trkpt lat="44.65687" lon="3.02639">
        <ele>1219.09</ele>
        <time>2012-08-10T06:10:26Z</time>
      </trkpt>
      <trkpt lat="44.65667" lon="3.02613">
        <ele>1221.97</ele>
        <time>2012-08-10T06:10:40Z</time>
      </trkpt>
      <trkpt lat="44.65651" lon="3.02579">
        <ele>1225.82</ele>
        <time>2012-08-10T06:10:55Z</time>
      </trkpt>
      <trkpt lat="44.65637" lon="3.02542">
        <ele>1228.7</ele>
        <time>2012-08-10T06:11:10Z</time>
      </trkpt>
      <trkpt lat="44.65636" lon="3.02538">
        <ele>1228.7</ele>
        <time>2012-08-10T06:11:12Z</time>
      </trkpt>
      <trkpt lat="44.65634" lon="3.02537">
        <ele>1228.7</ele>
        <time>2012-08-10T06:11:13Z</time>
      </trkpt>
      <trkpt lat="44.65632" lon="3.02533">
        <ele>1229.18</ele>
        <time>2012-08-10T06:11:15Z</time>
      </trkpt>
      <trkpt lat="44.6563" lon="3.02532">
        <ele>1229.66</ele>
        <time>2012-08-10T06:11:16Z</time>
      </trkpt>
      <trkpt lat="44.65629" lon="3.02531">
        <ele>1229.66</ele>
        <time>2012-08-10T06:11:17Z</time>
      </trkpt>
      <trkpt lat="44.65628" lon="3.02529">
        <ele>1229.66</ele>
        <time>2012-08-10T06:11:18Z</time>
      </trkpt>
      <trkpt lat="44.65627" lon="3.02528">
        <ele>1229.66</ele>
        <time>2012-08-10T06:11:19Z</time>
      </trkpt>
      <trkpt lat="44.65626" lon="3.02526">
        <ele>1230.14</ele>
        <time>2012-08-10T06:11:20Z</time>
      </trkpt>
      <trkpt lat="44.65615" lon="3.02501">
        <ele>1232.07</ele>
        <time>2012-08-10T06:11:34Z</time>
      </trkpt>
      <trkpt lat="44.65615" lon="3.02499">
        <ele>1232.07</ele>
        <time>2012-08-10T06:11:35Z</time>
      </trkpt>
      <trkpt lat="44.65614" lon="3.02497">
        <ele>1232.07</ele>
        <time>2012-08-10T06:11:36Z</time>
      </trkpt>
      <trkpt lat="44.65612" lon="3.02466">
        <ele>1234.95</ele>
        <time>2012-08-10T06:11:51Z</time>
      </trkpt>
      <trkpt lat="44.65608" lon="3.02424">
        <ele>1235.91</ele>
        <time>2012-08-10T06:12:08Z</time>
      </trkpt>
      <trkpt lat="44.65608" lon="3.02412">
        <ele>1237.35</ele>
        <time>2012-08-10T06:12:13Z</time>
      </trkpt>
      <trkpt lat="44.65608" lon="3.02409">
        <ele>1237.83</ele>
        <time>2012-08-10T06:12:14Z</time>
      </trkpt>
      <trkpt lat="44.65609" lon="3.02406">
        <ele>1238.32</ele>
        <time>2012-08-10T06:12:15Z</time>
      </trkpt>
      <trkpt lat="44.65609" lon="3.02403">
        <ele>1238.8</ele>
        <time>2012-08-10T06:12:16Z</time>
      </trkpt>
      <trkpt lat="44.65608" lon="3.024">
        <ele>1238.8</ele>
        <time>2012-08-10T06:12:17Z</time>
      </trkpt>
      <trkpt lat="44.65608" lon="3.02396">
        <ele>1239.76</ele>
        <time>2012-08-10T06:12:19Z</time>
      </trkpt>
      <trkpt lat="44.65607" lon="3.02394">
        <ele>1239.76</ele>
        <time>2012-08-10T06:12:20Z</time>
      </trkpt>
      <trkpt lat="44.65607" lon="3.02392">
        <ele>1239.76</ele>
        <time>2012-08-10T06:12:21Z</time>
      </trkpt>
      <trkpt lat="44.65606" lon="3.02391">
        <ele>1239.76</ele>
        <time>2012-08-10T06:12:22Z</time>
      </trkpt>
      <trkpt lat="44.65605" lon="3.02389">
        <ele>1239.76</ele>
        <time>2012-08-10T06:12:23Z</time>
      </trkpt>
      <trkpt lat="44.65604" lon="3.02387">
        <ele>1239.76</ele>
        <time>2012-08-10T06:12:24Z</time>
      </trkpt>
      <trkpt lat="44.65603" lon="3.02385">
        <ele>1239.76</ele>
        <time>2012-08-10T06:12:25Z</time>
      </trkpt>
      <trkpt lat="44.65602" lon="3.02384">
        <ele>1239.28</ele>
        <time>2012-08-10T06:12:26Z</time>
      </trkpt>
      <trkpt lat="44.656" lon="3.02383">
        <ele>1239.28</ele>
        <time>2012-08-10T06:12:27Z</time>
      </trkpt>
      <trkpt lat="44.65589" lon="3.02365">
        <ele>1239.28</ele>
        <time>2012-08-10T06:12:39Z</time>
      </trkpt>
      <trkpt lat="44.65586" lon="3.02359">
        <ele>1240.72</ele>
        <time>2012-08-10T06:12:43Z</time>
      </trkpt>
      <trkpt lat="44.65585" lon="3.02357">
        <ele>1240.72</ele>
        <time>2012-08-10T06:12:44Z</time>
      </trkpt>
      <trkpt lat="44.65576" lon="3.02322">
        <ele>1242.64</ele>
        <time>2012-08-10T06:13:01Z</time>
      </trkpt>
      <trkpt lat="44.65575" lon="3.02317">
        <ele>1242.64</ele>
        <time>2012-08-10T06:13:04Z</time>
      </trkpt>
      <trkpt lat="44.65575" lon="3.02315">
        <ele>1242.64</ele>
        <time>2012-08-10T06:13:05Z</time>
      </trkpt>
      <trkpt lat="44.65574" lon="3.02302">
        <ele>1242.16</ele>
        <time>2012-08-10T06:13:12Z</time>
      </trkpt>
      <trkpt lat="44.65573" lon="3.023">
        <ele>1242.16</ele>
        <time>2012-08-10T06:13:13Z</time>
      </trkpt>
      <trkpt lat="44.65573" lon="3.02298">
        <ele>1242.16</ele>
        <time>2012-08-10T06:13:14Z</time>
      </trkpt>
      <trkpt lat="44.65573" lon="3.02292">
        <ele>1242.16</ele>
        <time>2012-08-10T06:13:16Z</time>
      </trkpt>
      <trkpt lat="44.65573" lon="3.02289">
        <ele>1242.64</ele>
        <time>2012-08-10T06:13:17Z</time>
      </trkpt>
      <trkpt lat="44.6557" lon="3.0224">
        <ele>1245.53</ele>
        <time>2012-08-10T06:13:30Z</time>
      </trkpt>
      <trkpt lat="44.65561" lon="3.02169">
        <ele>1246.97</ele>
        <time>2012-08-10T06:13:41Z</time>
      </trkpt>
      <trkpt lat="44.65558" lon="3.02138">
        <ele>1246.97</ele>
        <time>2012-08-10T06:13:45Z</time>
      </trkpt>
      <trkpt lat="44.6556" lon="3.0213">
        <ele>1246.97</ele>
        <time>2012-08-10T06:13:46Z</time>
      </trkpt>
      <trkpt lat="44.65565" lon="3.02106">
        <ele>1246.49</ele>
        <time>2012-08-10T06:13:49Z</time>
      </trkpt>
      <trkpt lat="44.65568" lon="3.021">
        <ele>1246.49</ele>
        <time>2012-08-10T06:13:50Z</time>
      </trkpt>
      <trkpt lat="44.65571" lon="3.02093">
        <ele>1246.49</ele>
        <time>2012-08-10T06:13:51Z</time>
      </trkpt>
      <trkpt lat="44.65585" lon="3.02049">
        <ele>1245.53</ele>
        <time>2012-08-10T06:13:56Z</time>
      </trkpt>
      <trkpt lat="44.65586" lon="3.0204">
        <ele>1245.53</ele>
        <time>2012-08-10T06:13:57Z</time>
      </trkpt>
      <trkpt lat="44.65587" lon="3.0203">
        <ele>1245.04</ele>
        <time>2012-08-10T06:13:58Z</time>
      </trkpt>
      <trkpt lat="44.65587" lon="3.02021">
        <ele>1245.04</ele>
        <time>2012-08-10T06:13:59Z</time>
      </trkpt>
      <trkpt lat="44.65586" lon="3.02013">
        <ele>1244.56</ele>
        <time>2012-08-10T06:14:00Z</time>
      </trkpt>
      <trkpt lat="44.65585" lon="3.02005">
        <ele>1244.56</ele>
        <time>2012-08-10T06:14:01Z</time>
      </trkpt>
      <trkpt lat="44.65583" lon="3.01998">
        <ele>1244.08</ele>
        <time>2012-08-10T06:14:02Z</time>
      </trkpt>
      <trkpt lat="44.6558" lon="3.01991">
        <ele>1243.6</ele>
        <time>2012-08-10T06:14:03Z</time>
      </trkpt>
      <trkpt lat="44.65561" lon="3.01931">
        <ele>1240.24</ele>
        <time>2012-08-10T06:14:11Z</time>
      </trkpt>
      <trkpt lat="44.65557" lon="3.01923">
        <ele>1239.76</ele>
        <time>2012-08-10T06:14:12Z</time>
      </trkpt>
      <trkpt lat="44.65535" lon="3.0181">
        <ele>1232.07</ele>
        <time>2012-08-10T06:14:23Z</time>
      </trkpt>
      <trkpt lat="44.65534" lon="3.01799">
        <ele>1231.59</ele>
        <time>2012-08-10T06:14:24Z</time>
      </trkpt>
      <trkpt lat="44.6553" lon="3.01728">
        <ele>1228.7</ele>
        <time>2012-08-10T06:14:31Z</time>
      </trkpt>
      <trkpt lat="44.65531" lon="3.01719">
        <ele>1228.7</ele>
        <time>2012-08-10T06:14:32Z</time>
      </trkpt>
      <trkpt lat="44.65533" lon="3.01689">
        <ele>1227.74</ele>
        <time>2012-08-10T06:14:36Z</time>
      </trkpt>
      <trkpt lat="44.65533" lon="3.01682">
        <ele>1227.74</ele>
        <time>2012-08-10T06:14:37Z</time>
      </trkpt>
      <trkpt lat="44.65533" lon="3.01676">
        <ele>1227.26</ele>
        <time>2012-08-10T06:14:38Z</time>
      </trkpt>
      <trkpt lat="44.65532" lon="3.01668">
        <ele>1227.26</ele>
        <time>2012-08-10T06:14:39Z</time>
      </trkpt>
      <trkpt lat="44.65531" lon="3.01661">
        <ele>1226.78</ele>
        <time>2012-08-10T06:14:40Z</time>
      </trkpt>
      <trkpt lat="44.65529" lon="3.01654">
        <ele>1226.3</ele>
        <time>2012-08-10T06:14:41Z</time>
      </trkpt>
      <trkpt lat="44.65526" lon="3.01646">
        <ele>1225.82</ele>
        <time>2012-08-10T06:14:42Z</time>
      </trkpt>
      <trkpt lat="44.65523" lon="3.0164">
        <ele>1225.34</ele>
        <time>2012-08-10T06:14:43Z</time>
      </trkpt>
      <trkpt lat="44.65516" lon="3.01627">
        <ele>1224.86</ele>
        <time>2012-08-10T06:14:45Z</time>
      </trkpt>
      <trkpt lat="44.65492" lon="3.01591">
        <ele>1221.97</ele>
        <time>2012-08-10T06:14:51Z</time>
      </trkpt>
      <trkpt lat="44.65486" lon="3.01578">
        <ele>1221.01</ele>
        <time>2012-08-10T06:14:53Z</time>
      </trkpt>
      <trkpt lat="44.65477" lon="3.01558">
        <ele>1220.53</ele>
        <time>2012-08-10T06:14:56Z</time>
      </trkpt>
      <trkpt lat="44.65475" lon="3.0155">
        <ele>1220.53</ele>
        <time>2012-08-10T06:14:57Z</time>
      </trkpt>
      <trkpt lat="44.65461" lon="3.01501">
        <ele>1219.57</ele>
        <time>2012-08-10T06:15:04Z</time>
      </trkpt>
      <trkpt lat="44.65459" lon="3.01494">
        <ele>1220.05</ele>
        <time>2012-08-10T06:15:05Z</time>
      </trkpt>
      <trkpt lat="44.65457" lon="3.01487">
        <ele>1219.57</ele>
        <time>2012-08-10T06:15:06Z</time>
      </trkpt>
      <trkpt lat="44.65456" lon="3.0148">
        <ele>1219.57</ele>
        <time>2012-08-10T06:15:07Z</time>
      </trkpt>
      <trkpt lat="44.65456" lon="3.01472">
        <ele>1219.09</ele>
        <time>2012-08-10T06:15:08Z</time>
      </trkpt>
      <trkpt lat="44.65456" lon="3.01465">
        <ele>1218.61</ele>
        <time>2012-08-10T06:15:09Z</time>
      </trkpt>
      <trkpt lat="44.65458" lon="3.01458">
        <ele>1218.61</ele>
        <time>2012-08-10T06:15:10Z</time>
      </trkpt>
      <trkpt lat="44.65459" lon="3.01451">
        <ele>1218.13</ele>
        <time>2012-08-10T06:15:11Z</time>
      </trkpt>
      <trkpt lat="44.65472" lon="3.01412">
        <ele>1215.72</ele>
        <time>2012-08-10T06:15:17Z</time>
      </trkpt>
      <trkpt lat="44.65476" lon="3.01407">
        <ele>1215.72</ele>
        <time>2012-08-10T06:15:18Z</time>
      </trkpt>
      <trkpt lat="44.65479" lon="3.01402">
        <ele>1215.24</ele>
        <time>2012-08-10T06:15:19Z</time>
      </trkpt>
      <trkpt lat="44.65481" lon="3.01396">
        <ele>1215.24</ele>
        <time>2012-08-10T06:15:20Z</time>
      </trkpt>
      <trkpt lat="44.65483" lon="3.0139">
        <ele>1215.24</ele>
        <time>2012-08-10T06:15:21Z</time>
      </trkpt>
      <trkpt lat="44.65483" lon="3.01385">
        <ele>1214.76</ele>
        <time>2012-08-10T06:15:22Z</time>
      </trkpt>
      <trkpt lat="44.65482" lon="3.0138">
        <ele>1214.76</ele>
        <time>2012-08-10T06:15:23Z</time>
      </trkpt>
      <trkpt lat="44.65481" lon="3.01376">
        <ele>1214.76</ele>
        <time>2012-08-10T06:15:24Z</time>
      </trkpt>
      <trkpt lat="44.65479" lon="3.01372">
        <ele>1214.76</ele>
        <time>2012-08-10T06:15:25Z</time>
      </trkpt>
      <trkpt lat="44.65478" lon="3.01369">
        <ele>1214.76</ele>
        <time>2012-08-10T06:15:26Z</time>
      </trkpt>
      <trkpt lat="44.65475" lon="3.01362">
        <ele>1215.72</ele>
        <time>2012-08-10T06:15:38Z</time>
      </trkpt>
      <trkpt lat="44.65474" lon="3.0136">
        <ele>1216.69</ele>
        <time>2012-08-10T06:16:08Z</time>
      </trkpt>
      <trkpt lat="44.65473" lon="3.01355">
        <ele>1218.13</ele>
        <time>2012-08-10T06:16:33Z</time>
      </trkpt>
      <trkpt lat="44.65466" lon="3.0134">
        <ele>1219.09</ele>
        <time>2012-08-10T06:16:40Z</time>
      </trkpt>
      <trkpt lat="44.65466" lon="3.01338">
        <ele>1219.09</ele>
        <time>2012-08-10T06:16:41Z</time>
      </trkpt>
      <trkpt lat="44.65465" lon="3.01335">
        <ele>1219.57</ele>
        <time>2012-08-10T06:16:42Z</time>
      </trkpt>
      <trkpt lat="44.65455" lon="3.01298">
        <ele>1221.97</ele>
        <time>2012-08-10T06:17:00Z</time>
      </trkpt>
      <trkpt lat="44.65445" lon="3.01266">
        <ele>1225.34</ele>
        <time>2012-08-10T06:17:15Z</time>
      </trkpt>
      <trkpt lat="44.65436" lon="3.01229">
        <ele>1229.66</ele>
        <time>2012-08-10T06:17:32Z</time>
      </trkpt>
      <trkpt lat="44.65426" lon="3.01197">
        <ele>1233.99</ele>
        <time>2012-08-10T06:17:49Z</time>
      </trkpt>
      <trkpt lat="44.65415" lon="3.0117">
        <ele>1235.91</ele>
        <time>2012-08-10T06:18:05Z</time>
      </trkpt>
      <trkpt lat="44.65402" lon="3.01147">
        <ele>1235.43</ele>
        <time>2012-08-10T06:18:19Z</time>
      </trkpt>
      <trkpt lat="44.65386" lon="3.0112">
        <ele>1236.39</ele>
        <time>2012-08-10T06:18:35Z</time>
      </trkpt>
      <trkpt lat="44.65384" lon="3.01116">
        <ele>1236.39</ele>
        <time>2012-08-10T06:18:37Z</time>
      </trkpt>
      <trkpt lat="44.65384" lon="3.01113">
        <ele>1236.39</ele>
        <time>2012-08-10T06:18:38Z</time>
      </trkpt>
      <trkpt lat="44.65383" lon="3.01111">
        <ele>1236.39</ele>
        <time>2012-08-10T06:18:39Z</time>
      </trkpt>
      <trkpt lat="44.65382" lon="3.01108">
        <ele>1236.39</ele>
        <time>2012-08-10T06:18:40Z</time>
      </trkpt>
      <trkpt lat="44.65381" lon="3.01106">
        <ele>1236.39</ele>
        <time>2012-08-10T06:18:41Z</time>
      </trkpt>
      <trkpt lat="44.6538" lon="3.01103">
        <ele>1236.39</ele>
        <time>2012-08-10T06:18:42Z</time>
      </trkpt>
      <trkpt lat="44.65374" lon="3.01066">
        <ele>1234.95</ele>
        <time>2012-08-10T06:18:58Z</time>
      </trkpt>
      <trkpt lat="44.65372" lon="3.01054">
        <ele>1235.91</ele>
        <time>2012-08-10T06:19:11Z</time>
      </trkpt>
      <trkpt lat="44.65372" lon="3.01053">
        <ele>1236.39</ele>
        <time>2012-08-10T06:19:25Z</time>
      </trkpt>
      <trkpt lat="44.65375" lon="3.0105">
        <ele>1235.91</ele>
        <time>2012-08-10T06:19:38Z</time>
      </trkpt>
      <trkpt lat="44.65376" lon="3.01049">
        <ele>1235.91</ele>
        <time>2012-08-10T06:19:47Z</time>
      </trkpt>
      <trkpt lat="44.65377" lon="3.01048">
        <ele>1235.43</ele>
        <time>2012-08-10T06:19:48Z</time>
      </trkpt>
      <trkpt lat="44.65378" lon="3.01046">
        <ele>1235.91</ele>
        <time>2012-08-10T06:19:49Z</time>
      </trkpt>
      <trkpt lat="44.65378" lon="3.01045">
        <ele>1235.91</ele>
        <time>2012-08-10T06:19:50Z</time>
      </trkpt>
      <trkpt lat="44.65379" lon="3.01029">
        <ele>1238.32</ele>
        <time>2012-08-10T06:20:02Z</time>
      </trkpt>
      <trkpt lat="44.6538" lon="3.01004">
        <ele>1240.24</ele>
        <time>2012-08-10T06:20:18Z</time>
      </trkpt>
      <trkpt lat="44.65381" lon="3.00998">
        <ele>1240.72</ele>
        <time>2012-08-10T06:20:22Z</time>
      </trkpt>
      <trkpt lat="44.65384" lon="3.00975">
        <ele>1243.6</ele>
        <time>2012-08-10T06:20:39Z</time>
      </trkpt>
      <trkpt lat="44.65389" lon="3.00951">
        <ele>1246.49</ele>
        <time>2012-08-10T06:20:57Z</time>
      </trkpt>
      <trkpt lat="44.6539" lon="3.00939">
        <ele>1248.41</ele>
        <time>2012-08-10T06:21:07Z</time>
      </trkpt>
      <trkpt lat="44.6539" lon="3.00937">
        <ele>1248.41</ele>
        <time>2012-08-10T06:21:08Z</time>
      </trkpt>
      <trkpt lat="44.65394" lon="3.00913">
        <ele>1248.89</ele>
        <time>2012-08-10T06:21:25Z</time>
      </trkpt>
      <trkpt lat="44.65394" lon="3.00895">
        <ele>1251.29</ele>
        <time>2012-08-10T06:21:40Z</time>
      </trkpt>
      <trkpt lat="44.65394" lon="3.00891">
        <ele>1251.29</ele>
        <time>2012-08-10T06:21:43Z</time>
      </trkpt>
      <trkpt lat="44.65398" lon="3.00877">
        <ele>1252.74</ele>
        <time>2012-08-10T06:21:56Z</time>
      </trkpt>
      <trkpt lat="44.65403" lon="3.00862">
        <ele>1256.1</ele>
        <time>2012-08-10T06:22:11Z</time>
      </trkpt>
      <trkpt lat="44.65402" lon="3.00848">
        <ele>1258.02</ele>
        <time>2012-08-10T06:22:24Z</time>
      </trkpt>
      <trkpt lat="44.65401" lon="3.00833">
        <ele>1259.94</ele>
        <time>2012-08-10T06:22:39Z</time>
      </trkpt>
      <trkpt lat="44.65401" lon="3.00826">
        <ele>1260.91</ele>
        <time>2012-08-10T06:22:46Z</time>
      </trkpt>
      <trkpt lat="44.654" lon="3.00816">
        <ele>1262.35</ele>
        <time>2012-08-10T06:22:58Z</time>
      </trkpt>
      <trkpt lat="44.65398" lon="3.00804">
        <ele>1264.27</ele>
        <time>2012-08-10T06:23:14Z</time>
      </trkpt>
      <trkpt lat="44.65396" lon="3.00791">
        <ele>1265.71</ele>
        <time>2012-08-10T06:23:26Z</time>
      </trkpt>
      <trkpt lat="44.65394" lon="3.00773">
        <ele>1266.19</ele>
        <time>2012-08-10T06:23:41Z</time>
      </trkpt>
      <trkpt lat="44.65395" lon="3.00759">
        <ele>1268.6</ele>
        <time>2012-08-10T06:23:56Z</time>
      </trkpt>
      <trkpt lat="44.65398" lon="3.00749">
        <ele>1268.6</ele>
        <time>2012-08-10T06:24:06Z</time>
      </trkpt>
      <trkpt lat="44.65397" lon="3.00738">
        <ele>1270.04</ele>
        <time>2012-08-10T06:24:20Z</time>
      </trkpt>
      <trkpt lat="44.65395" lon="3.00739">
        <ele>1269.08</ele>
        <time>2012-08-10T06:25:10Z</time>
      </trkpt>
      <trkpt lat="44.65394" lon="3.00739">
        <ele>1269.56</ele>
        <time>2012-08-10T06:25:59Z</time>
      </trkpt>
      <trkpt lat="44.65396" lon="3.0074">
        <ele>1269.08</ele>
        <time>2012-08-10T06:26:45Z</time>
      </trkpt>
      <trkpt lat="44.65396" lon="3.00739">
        <ele>1269.08</ele>
        <time>2012-08-10T06:27:36Z</time>
      </trkpt>
      <trkpt lat="44.65396" lon="3.00738">
        <ele>1267.64</ele>
        <time>2012-08-10T06:28:22Z</time>
      </trkpt>
      <trkpt lat="44.65395" lon="3.00735">
        <ele>1269.08</ele>
        <time>2012-08-10T06:28:37Z</time>
      </trkpt>
      <trkpt lat="44.65395" lon="3.00731">
        <ele>1270.04</ele>
        <time>2012-08-10T06:28:50Z</time>
      </trkpt>
      <trkpt lat="44.65395" lon="3.00731">
        <ele>1270.04</ele>
        <time>2012-08-10T06:28:53Z</time>
      </trkpt>
      <trkpt lat="44.65394" lon="3.00729">
        <ele>1270.04</ele>
        <time>2012-08-10T06:28:54Z</time>
      </trkpt>
      <trkpt lat="44.65377" lon="3.00701">
        <ele>1272.92</ele>
        <time>2012-08-10T06:29:09Z</time>
      </trkpt>
      <trkpt lat="44.6536" lon="3.00664">
        <ele>1273.4</ele>
        <time>2012-08-10T06:29:22Z</time>
      </trkpt>
      <trkpt lat="44.6533" lon="3.00617">
        <ele>1272.92</ele>
        <time>2012-08-10T06:29:37Z</time>
      </trkpt>
      <trkpt lat="44.65308" lon="3.006">
        <ele>1273.88</ele>
        <time>2012-08-10T06:29:47Z</time>
      </trkpt>
      <trkpt lat="44.65284" lon="3.00586">
        <ele>1272.44</ele>
        <time>2012-08-10T06:29:58Z</time>
      </trkpt>
      <trkpt lat="44.65251" lon="3.0058">
        <ele>1272.92</ele>
        <time>2012-08-10T06:30:12Z</time>
      </trkpt>
      <trkpt lat="44.65246" lon="3.0058">
        <ele>1273.88</ele>
        <time>2012-08-10T06:30:15Z</time>
      </trkpt>
      <trkpt lat="44.65244" lon="3.00581">
        <ele>1273.88</ele>
        <time>2012-08-10T06:30:16Z</time>
      </trkpt>
      <trkpt lat="44.6523" lon="3.00582">
        <ele>1274.36</ele>
        <time>2012-08-10T06:30:25Z</time>
      </trkpt>
      <trkpt lat="44.65227" lon="3.00584">
        <ele>1274.36</ele>
        <time>2012-08-10T06:30:26Z</time>
      </trkpt>
      <trkpt lat="44.6521" lon="3.00594">
        <ele>1273.88</ele>
        <time>2012-08-10T06:30:38Z</time>
      </trkpt>
      <trkpt lat="44.6521" lon="3.00596">
        <ele>1274.36</ele>
        <time>2012-08-10T06:30:55Z</time>
      </trkpt>
      <trkpt lat="44.65208" lon="3.00597">
        <ele>1274.36</ele>
        <time>2012-08-10T06:30:56Z</time>
      </trkpt>
      <trkpt lat="44.65209" lon="3.00596">
        <ele>1273.88</ele>
        <time>2012-08-10T06:31:06Z</time>
      </trkpt>
      <trkpt lat="44.65202" lon="3.00594">
        <ele>1275.33</ele>
        <time>2012-08-10T06:31:25Z</time>
      </trkpt>
      <trkpt lat="44.65188" lon="3.00587">
        <ele>1276.29</ele>
        <time>2012-08-10T06:31:37Z</time>
      </trkpt>
      <trkpt lat="44.65175" lon="3.00579">
        <ele>1276.77</ele>
        <time>2012-08-10T06:31:50Z</time>
      </trkpt>
      <trkpt lat="44.65159" lon="3.00575">
        <ele>1278.21</ele>
        <time>2012-08-10T06:32:05Z</time>
      </trkpt>
      <trkpt lat="44.65145" lon="3.0057">
        <ele>1280.61</ele>
        <time>2012-08-10T06:32:20Z</time>
      </trkpt>
      <trkpt lat="44.6513" lon="3.00569">
        <ele>1283.02</ele>
        <time>2012-08-10T06:32:35Z</time>
      </trkpt>
      <trkpt lat="44.65129" lon="3.00569">
        <ele>1283.02</ele>
        <time>2012-08-10T06:32:36Z</time>
      </trkpt>
      <trkpt lat="44.65125" lon="3.00568">
        <ele>1283.02</ele>
        <time>2012-08-10T06:32:43Z</time>
      </trkpt>
      <trkpt lat="44.65095" lon="3.00573">
        <ele>1283.98</ele>
        <time>2012-08-10T06:32:58Z</time>
      </trkpt>
      <trkpt lat="44.65063" lon="3.00575">
        <ele>1285.42</ele>
        <time>2012-08-10T06:33:12Z</time>
      </trkpt>
      <trkpt lat="44.65039" lon="3.00576">
        <ele>1288.3</ele>
        <time>2012-08-10T06:33:26Z</time>
      </trkpt>
      <trkpt lat="44.65009" lon="3.00573">
        <ele>1290.71</ele>
        <time>2012-08-10T06:33:41Z</time>
      </trkpt>
      <trkpt lat="44.64987" lon="3.00559">
        <ele>1292.15</ele>
        <time>2012-08-10T06:33:54Z</time>
      </trkpt>
      <trkpt lat="44.64969" lon="3.00535">
        <ele>1294.55</ele>
        <time>2012-08-10T06:34:06Z</time>
      </trkpt>
      <trkpt lat="44.64953" lon="3.00511">
        <ele>1294.55</ele>
        <time>2012-08-10T06:34:17Z</time>
      </trkpt>
      <trkpt lat="44.64939" lon="3.00477">
        <ele>1295.03</ele>
        <time>2012-08-10T06:34:30Z</time>
      </trkpt>
      <trkpt lat="44.64928" lon="3.00442">
        <ele>1295.51</ele>
        <time>2012-08-10T06:34:42Z</time>
      </trkpt>
      <trkpt lat="44.64918" lon="3.00397">
        <ele>1295.99</ele>
        <time>2012-08-10T06:34:58Z</time>
      </trkpt>
      <trkpt lat="44.64905" lon="3.00357">
        <ele>1297.44</ele>
        <time>2012-08-10T06:35:12Z</time>
      </trkpt>
      <trkpt lat="44.64894" lon="3.00301">
        <ele>1295.99</ele>
        <time>2012-08-10T06:35:26Z</time>
      </trkpt>
      <trkpt lat="44.64882" lon="3.00264">
        <ele>1296.96</ele>
        <time>2012-08-10T06:35:39Z</time>
      </trkpt>
      <trkpt lat="44.64881" lon="3.0026">
        <ele>1296.96</ele>
        <time>2012-08-10T06:35:50Z</time>
      </trkpt>
      <trkpt lat="44.64881" lon="3.00259">
        <ele>1295.51</ele>
        <time>2012-08-10T06:36:03Z</time>
      </trkpt>
      <trkpt lat="44.64881" lon="3.00259">
        <ele>1295.51</ele>
        <time>2012-08-10T06:36:05Z</time>
      </trkpt>
      <trkpt lat="44.64877" lon="3.00236">
        <ele>1297.44</ele>
        <time>2012-08-10T06:36:15Z</time>
      </trkpt>
      <trkpt lat="44.64877" lon="3.00234">
        <ele>1297.44</ele>
        <time>2012-08-10T06:36:16Z</time>
      </trkpt>
      <trkpt lat="44.64878" lon="3.00231">
        <ele>1296.96</ele>
        <time>2012-08-10T06:36:17Z</time>
      </trkpt>
      <trkpt lat="44.64878" lon="3.00229">
        <ele>1296.96</ele>
        <time>2012-08-10T06:36:18Z</time>
      </trkpt>
      <trkpt lat="44.64878" lon="3.00226">
        <ele>1296.96</ele>
        <time>2012-08-10T06:36:19Z</time>
      </trkpt>
      <trkpt lat="44.64877" lon="3.00223">
        <ele>1296.96</ele>
        <time>2012-08-10T06:36:20Z</time>
      </trkpt>
      <trkpt lat="44.64876" lon="3.00221">
        <ele>1296.48</ele>
        <time>2012-08-10T06:36:21Z</time>
      </trkpt>
      <trkpt lat="44.64875" lon="3.00218">
        <ele>1296.48</ele>
        <time>2012-08-10T06:36:22Z</time>
      </trkpt>
      <trkpt lat="44.64867" lon="3.0016">
        <ele>1295.99</ele>
        <time>2012-08-10T06:36:38Z</time>
      </trkpt>
      <trkpt lat="44.64857" lon="3.00117">
        <ele>1296.96</ele>
        <time>2012-08-10T06:36:51Z</time>
      </trkpt>
      <trkpt lat="44.64851" lon="3.00079">
        <ele>1294.55</ele>
        <time>2012-08-10T06:37:02Z</time>
      </trkpt>
      <trkpt lat="44.64848" lon="3.00069">
        <ele>1293.11</ele>
        <time>2012-08-10T06:37:06Z</time>
      </trkpt>
      <trkpt lat="44.64847" lon="3.00066">
        <ele>1292.63</ele>
        <time>2012-08-10T06:37:07Z</time>
      </trkpt>
      <trkpt lat="44.64842" lon="3.00023">
        <ele>1292.15</ele>
        <time>2012-08-10T06:37:17Z</time>
      </trkpt>
      <trkpt lat="44.64837" lon="2.99975">
        <ele>1292.63</ele>
        <time>2012-08-10T06:37:29Z</time>
      </trkpt>
      <trkpt lat="44.64842" lon="2.99916">
        <ele>1291.67</ele>
        <time>2012-08-10T06:37:42Z</time>
      </trkpt>
      <trkpt lat="44.64846" lon="2.9989">
        <ele>1292.63</ele>
        <time>2012-08-10T06:37:50Z</time>
      </trkpt>
      <trkpt lat="44.64838" lon="2.99859">
        <ele>1294.55</ele>
        <time>2012-08-10T06:38:01Z</time>
      </trkpt>
      <trkpt lat="44.64832" lon="2.99844">
        <ele>1294.55</ele>
        <time>2012-08-10T06:38:06Z</time>
      </trkpt>
      <trkpt lat="44.64822" lon="2.99795">
        <ele>1295.03</ele>
        <time>2012-08-10T06:38:21Z</time>
      </trkpt>
      <trkpt lat="44.64828" lon="2.99767">
        <ele>1295.99</ele>
        <time>2012-08-10T06:38:32Z</time>
      </trkpt>
      <trkpt lat="44.64828" lon="2.99767">
        <ele>1295.99</ele>
        <time>2012-08-10T06:38:49Z</time>
      </trkpt>
      <trkpt lat="44.64828" lon="2.99766">
        <ele>1296.48</ele>
        <time>2012-08-10T06:39:04Z</time>
      </trkpt>
      <trkpt lat="44.64825" lon="2.99762">
        <ele>1295.99</ele>
        <time>2012-08-10T06:39:21Z</time>
      </trkpt>
      <trkpt lat="44.64824" lon="2.9976">
        <ele>1295.51</ele>
        <time>2012-08-10T06:39:38Z</time>
      </trkpt>
      <trkpt lat="44.64824" lon="2.9976">
        <ele>1295.03</ele>
        <time>2012-08-10T06:40:23Z</time>
      </trkpt>
      <trkpt lat="44.64825" lon="2.9976">
        <ele>1294.55</ele>
        <time>2012-08-10T06:41:00Z</time>
      </trkpt>
      <trkpt lat="44.64825" lon="2.9976">
        <ele>1294.55</ele>
        <time>2012-08-10T06:41:03Z</time>
      </trkpt>
      <trkpt lat="44.64827" lon="2.99758">
        <ele>1295.03</ele>
        <time>2012-08-10T06:41:08Z</time>
      </trkpt>
      <trkpt lat="44.6483" lon="2.99719">
        <ele>1295.51</ele>
        <time>2012-08-10T06:41:22Z</time>
      </trkpt>
      <trkpt lat="44.64831" lon="2.9969">
        <ele>1296.96</ele>
        <time>2012-08-10T06:41:32Z</time>
      </trkpt>
      <trkpt lat="44.64834" lon="2.99679">
        <ele>1299.36</ele>
        <time>2012-08-10T06:41:38Z</time>
      </trkpt>
      <trkpt lat="44.64835" lon="2.9967">
        <ele>1299.36</ele>
        <time>2012-08-10T06:41:42Z</time>
      </trkpt>
      <trkpt lat="44.64836" lon="2.99653">
        <ele>1298.88</ele>
        <time>2012-08-10T06:41:49Z</time>
      </trkpt>
      <trkpt lat="44.64837" lon="2.99644">
        <ele>1298.88</ele>
        <time>2012-08-10T06:41:52Z</time>
      </trkpt>
      <trkpt lat="44.64842" lon="2.996">
        <ele>1299.36</ele>
        <time>2012-08-10T06:42:04Z</time>
      </trkpt>
      <trkpt lat="44.64843" lon="2.99587">
        <ele>1300.8</ele>
        <time>2012-08-10T06:42:08Z</time>
      </trkpt>
      <trkpt lat="44.64842" lon="2.99543">
        <ele>1299.84</ele>
        <time>2012-08-10T06:42:21Z</time>
      </trkpt>
      <trkpt lat="44.64842" lon="2.99522">
        <ele>1299.36</ele>
        <time>2012-08-10T06:42:27Z</time>
      </trkpt>
      <trkpt lat="44.6484" lon="2.99466">
        <ele>1302.24</ele>
        <time>2012-08-10T06:42:42Z</time>
      </trkpt>
      <trkpt lat="44.64839" lon="2.99451">
        <ele>1302.24</ele>
        <time>2012-08-10T06:42:47Z</time>
      </trkpt>
      <trkpt lat="44.64839" lon="2.99441">
        <ele>1302.24</ele>
        <time>2012-08-10T06:42:51Z</time>
      </trkpt>
      <trkpt lat="44.64835" lon="2.99405">
        <ele>1303.69</ele>
        <time>2012-08-10T06:43:06Z</time>
      </trkpt>
      <trkpt lat="44.64833" lon="2.99359">
        <ele>1306.09</ele>
        <time>2012-08-10T06:43:21Z</time>
      </trkpt>
      <trkpt lat="44.64832" lon="2.99333">
        <ele>1306.09</ele>
        <time>2012-08-10T06:43:32Z</time>
      </trkpt>
      <trkpt lat="44.64828" lon="2.99296">
        <ele>1307.53</ele>
        <time>2012-08-10T06:43:43Z</time>
      </trkpt>
      <trkpt lat="44.64828" lon="2.99293">
        <ele>1307.53</ele>
        <time>2012-08-10T06:43:44Z</time>
      </trkpt>
      <trkpt lat="44.64819" lon="2.99263">
        <ele>1306.09</ele>
        <time>2012-08-10T06:43:56Z</time>
      </trkpt>
      <trkpt lat="44.64815" lon="2.9925">
        <ele>1305.61</ele>
        <time>2012-08-10T06:44:00Z</time>
      </trkpt>
      <trkpt lat="44.64818" lon="2.9924">
        <ele>1306.57</ele>
        <time>2012-08-10T06:44:10Z</time>
      </trkpt>
      <trkpt lat="44.64818" lon="2.99223">
        <ele>1308.97</ele>
        <time>2012-08-10T06:44:23Z</time>
      </trkpt>
      <trkpt lat="44.64815" lon="2.99206">
        <ele>1308.49</ele>
        <time>2012-08-10T06:44:36Z</time>
      </trkpt>
      <trkpt lat="44.64817" lon="2.99201">
        <ele>1308.01</ele>
        <time>2012-08-10T06:44:39Z</time>
      </trkpt>
      <trkpt lat="44.64817" lon="2.99198">
        <ele>1308.01</ele>
        <time>2012-08-10T06:44:41Z</time>
      </trkpt>
      <trkpt lat="44.64816" lon="2.99193">
        <ele>1308.49</ele>
        <time>2012-08-10T06:44:44Z</time>
      </trkpt>
      <trkpt lat="44.64811" lon="2.99187">
        <ele>1309.45</ele>
        <time>2012-08-10T06:44:59Z</time>
      </trkpt>
      <trkpt lat="44.64807" lon="2.99177">
        <ele>1309.45</ele>
        <time>2012-08-10T06:45:03Z</time>
      </trkpt>
      <trkpt lat="44.64803" lon="2.99164">
        <ele>1308.01</ele>
        <time>2012-08-10T06:45:10Z</time>
      </trkpt>
      <trkpt lat="44.64802" lon="2.9916">
        <ele>1308.01</ele>
        <time>2012-08-10T06:45:25Z</time>
      </trkpt>
      <trkpt lat="44.64798" lon="2.99147">
        <ele>1308.97</ele>
        <time>2012-08-10T06:45:35Z</time>
      </trkpt>
      <trkpt lat="44.64786" lon="2.99117">
        <ele>1309.45</ele>
        <time>2012-08-10T06:45:47Z</time>
      </trkpt>
      <trkpt lat="44.64769" lon="2.99079">
        <ele>1311.38</ele>
        <time>2012-08-10T06:46:00Z</time>
      </trkpt>
      <trkpt lat="44.64759" lon="2.9905">
        <ele>1314.26</ele>
        <time>2012-08-10T06:46:14Z</time>
      </trkpt>
      <trkpt lat="44.64755" lon="2.99043">
        <ele>1314.74</ele>
        <time>2012-08-10T06:46:18Z</time>
      </trkpt>
      <trkpt lat="44.64732" lon="2.9902">
        <ele>1312.82</ele>
        <time>2012-08-10T06:46:30Z</time>
      </trkpt>
      <trkpt lat="44.64728" lon="2.99016">
        <ele>1312.34</ele>
        <time>2012-08-10T06:46:32Z</time>
      </trkpt>
      <trkpt lat="44.64719" lon="2.9901">
        <ele>1310.41</ele>
        <time>2012-08-10T06:46:44Z</time>
      </trkpt>
      <trkpt lat="44.64717" lon="2.99009">
        <ele>1310.41</ele>
        <time>2012-08-10T06:47:05Z</time>
      </trkpt>
      <trkpt lat="44.64717" lon="2.99009">
        <ele>1309.93</ele>
        <time>2012-08-10T06:47:25Z</time>
      </trkpt>
      <trkpt lat="44.64716" lon="2.99009">
        <ele>1310.9</ele>
        <time>2012-08-10T06:47:47Z</time>
      </trkpt>
      <trkpt lat="44.64715" lon="2.99008">
        <ele>1310.9</ele>
        <time>2012-08-10T06:48:10Z</time>
      </trkpt>
      <trkpt lat="44.64711" lon="2.99005">
        <ele>1310.9</ele>
        <time>2012-08-10T06:48:14Z</time>
      </trkpt>
      <trkpt lat="44.64689" lon="2.98999">
        <ele>1309.93</ele>
        <time>2012-08-10T06:48:24Z</time>
      </trkpt>
      <trkpt lat="44.64676" lon="2.98997">
        <ele>1308.97</ele>
        <time>2012-08-10T06:48:30Z</time>
      </trkpt>
      <trkpt lat="44.64663" lon="2.98987">
        <ele>1310.9</ele>
        <time>2012-08-10T06:48:38Z</time>
      </trkpt>
      <trkpt lat="44.64657" lon="2.98983">
        <ele>1311.86</ele>
        <time>2012-08-10T06:48:42Z</time>
      </trkpt>
      <trkpt lat="44.6465" lon="2.98974">
        <ele>1313.78</ele>
        <time>2012-08-10T06:48:53Z</time>
      </trkpt>
      <trkpt lat="44.6464" lon="2.98962">
        <ele>1316.18</ele>
        <time>2012-08-10T06:49:06Z</time>
      </trkpt>
      <trkpt lat="44.64634" lon="2.98953">
        <ele>1316.18</ele>
        <time>2012-08-10T06:49:20Z</time>
      </trkpt>
      <trkpt lat="44.64615" lon="2.98944">
        <ele>1315.22</ele>
        <time>2012-08-10T06:49:29Z</time>
      </trkpt>
      <trkpt lat="44.64606" lon="2.98935">
        <ele>1314.74</ele>
        <time>2012-08-10T06:49:34Z</time>
      </trkpt>
      <trkpt lat="44.64604" lon="2.98932">
        <ele>1314.26</ele>
        <time>2012-08-10T06:49:36Z</time>
      </trkpt>
      <trkpt lat="44.64591" lon="2.98928">
        <ele>1313.78</ele>
        <time>2012-08-10T06:49:44Z</time>
      </trkpt>
      <trkpt lat="44.64571" lon="2.98911">
        <ele>1311.38</ele>
        <time>2012-08-10T06:49:53Z</time>
      </trkpt>
      <trkpt lat="44.64554" lon="2.98905">
        <ele>1308.97</ele>
        <time>2012-08-10T06:50:04Z</time>
      </trkpt>
      <trkpt lat="44.64549" lon="2.98898">
        <ele>1309.45</ele>
        <time>2012-08-10T06:50:17Z</time>
      </trkpt>
      <trkpt lat="44.64548" lon="2.98897">
        <ele>1309.45</ele>
        <time>2012-08-10T06:50:23Z</time>
      </trkpt>
      <trkpt lat="44.64544" lon="2.98892">
        <ele>1309.45</ele>
        <time>2012-08-10T06:50:27Z</time>
      </trkpt>
      <trkpt lat="44.64538" lon="2.9888">
        <ele>1309.45</ele>
        <time>2012-08-10T06:50:35Z</time>
      </trkpt>
      <trkpt lat="44.64537" lon="2.98872">
        <ele>1309.93</ele>
        <time>2012-08-10T06:50:44Z</time>
      </trkpt>
      <trkpt lat="44.64523" lon="2.9887">
        <ele>1307.53</ele>
        <time>2012-08-10T06:50:56Z</time>
      </trkpt>
      <trkpt lat="44.64513" lon="2.98867">
        <ele>1307.53</ele>
        <time>2012-08-10T06:51:06Z</time>
      </trkpt>
      <trkpt lat="44.6451" lon="2.98867">
        <ele>1307.05</ele>
        <time>2012-08-10T06:51:11Z</time>
      </trkpt>
      <trkpt lat="44.64501" lon="2.9887">
        <ele>1307.05</ele>
        <time>2012-08-10T06:51:23Z</time>
      </trkpt>
      <trkpt lat="44.64491" lon="2.98872">
        <ele>1305.61</ele>
        <time>2012-08-10T06:51:35Z</time>
      </trkpt>
      <trkpt lat="44.6448" lon="2.98873">
        <ele>1307.05</ele>
        <time>2012-08-10T06:51:47Z</time>
      </trkpt>
      <trkpt lat="44.64467" lon="2.98873">
        <ele>1306.57</ele>
        <time>2012-08-10T06:52:02Z</time>
      </trkpt>
      <trkpt lat="44.64464" lon="2.98873">
        <ele>1306.57</ele>
        <time>2012-08-10T06:52:05Z</time>
      </trkpt>
      <trkpt lat="44.64455" lon="2.98874">
        <ele>1306.09</ele>
        <time>2012-08-10T06:52:18Z</time>
      </trkpt>
      <trkpt lat="44.64441" lon="2.98864">
        <ele>1306.09</ele>
        <time>2012-08-10T06:52:31Z</time>
      </trkpt>
      <trkpt lat="44.64427" lon="2.98855">
        <ele>1307.53</ele>
        <time>2012-08-10T06:52:44Z</time>
      </trkpt>
      <trkpt lat="44.64421" lon="2.98841">
        <ele>1309.45</ele>
        <time>2012-08-10T06:52:55Z</time>
      </trkpt>
      <trkpt lat="44.64417" lon="2.98827">
        <ele>1310.41</ele>
        <time>2012-08-10T06:53:08Z</time>
      </trkpt>
      <trkpt lat="44.64417" lon="2.9882">
        <ele>1310.41</ele>
        <time>2012-08-10T06:53:13Z</time>
      </trkpt>
      <trkpt lat="44.6442" lon="2.98812">
        <ele>1310.9</ele>
        <time>2012-08-10T06:53:19Z</time>
      </trkpt>
      <trkpt lat="44.6442" lon="2.98806">
        <ele>1311.86</ele>
        <time>2012-08-10T06:53:24Z</time>
      </trkpt>
      <trkpt lat="44.64418" lon="2.98796">
        <ele>1312.34</ele>
        <time>2012-08-10T06:53:31Z</time>
      </trkpt>
      <trkpt lat="44.64419" lon="2.98791">
        <ele>1313.3</ele>
        <time>2012-08-10T06:53:34Z</time>
      </trkpt>
      <trkpt lat="44.64428" lon="2.98775">
        <ele>1317.14</ele>
        <time>2012-08-10T06:53:50Z</time>
      </trkpt>
      <trkpt lat="44.64434" lon="2.98755">
        <ele>1320.03</ele>
        <time>2012-08-10T06:54:06Z</time>
      </trkpt>
      <trkpt lat="44.64437" lon="2.98729">
        <ele>1320.99</ele>
        <time>2012-08-10T06:54:23Z</time>
      </trkpt>
      <trkpt lat="44.64435" lon="2.98707">
        <ele>1322.43</ele>
        <time>2012-08-10T06:54:37Z</time>
      </trkpt>
      <trkpt lat="44.64433" lon="2.98693">
        <ele>1320.99</ele>
        <time>2012-08-10T06:54:48Z</time>
      </trkpt>
      <trkpt lat="44.64422" lon="2.98664">
        <ele>1319.07</ele>
        <time>2012-08-10T06:54:56Z</time>
      </trkpt>
      <trkpt lat="44.64421" lon="2.98658">
        <ele>1319.07</ele>
        <time>2012-08-10T06:54:57Z</time>
      </trkpt>
      <trkpt lat="44.64416" lon="2.98639">
        <ele>1317.62</ele>
        <time>2012-08-10T06:55:01Z</time>
      </trkpt>
      <trkpt lat="44.64414" lon="2.98637">
        <ele>1317.14</ele>
        <time>2012-08-10T06:55:02Z</time>
      </trkpt>
      <trkpt lat="44.64412" lon="2.98637">
        <ele>1316.66</ele>
        <time>2012-08-10T06:55:03Z</time>
      </trkpt>
      <trkpt lat="44.6441" lon="2.98637">
        <ele>1316.18</ele>
        <time>2012-08-10T06:55:04Z</time>
      </trkpt>
      <trkpt lat="44.64408" lon="2.98638">
        <ele>1316.18</ele>
        <time>2012-08-10T06:55:05Z</time>
      </trkpt>
      <trkpt lat="44.64407" lon="2.98638">
        <ele>1316.18</ele>
        <time>2012-08-10T06:55:06Z</time>
      </trkpt>
      <trkpt lat="44.64405" lon="2.98637">
        <ele>1316.18</ele>
        <time>2012-08-10T06:55:07Z</time>
      </trkpt>
      <trkpt lat="44.64403" lon="2.98637">
        <ele>1315.7</ele>
        <time>2012-08-10T06:55:08Z</time>
      </trkpt>
      <trkpt lat="44.64401" lon="2.98638">
        <ele>1316.18</ele>
        <time>2012-08-10T06:55:09Z</time>
      </trkpt>
      <trkpt lat="44.64399" lon="2.98639">
        <ele>1316.18</ele>
        <time>2012-08-10T06:55:10Z</time>
      </trkpt>
      <trkpt lat="44.64396" lon="2.9864">
        <ele>1315.7</ele>
        <time>2012-08-10T06:55:11Z</time>
      </trkpt>
      <trkpt lat="44.64394" lon="2.9864">
        <ele>1315.7</ele>
        <time>2012-08-10T06:55:12Z</time>
      </trkpt>
      <trkpt lat="44.64392" lon="2.98641">
        <ele>1315.22</ele>
        <time>2012-08-10T06:55:13Z</time>
      </trkpt>
      <trkpt lat="44.64389" lon="2.98642">
        <ele>1315.22</ele>
        <time>2012-08-10T06:55:14Z</time>
      </trkpt>
      <trkpt lat="44.64387" lon="2.98642">
        <ele>1315.22</ele>
        <time>2012-08-10T06:55:15Z</time>
      </trkpt>
      <trkpt lat="44.64384" lon="2.98643">
        <ele>1314.74</ele>
        <time>2012-08-10T06:55:16Z</time>
      </trkpt>
      <trkpt lat="44.64365" lon="2.98651">
        <ele>1315.22</ele>
        <time>2012-08-10T06:55:27Z</time>
      </trkpt>
      <trkpt lat="44.64332" lon="2.98666">
        <ele>1314.26</ele>
        <time>2012-08-10T06:55:41Z</time>
      </trkpt>
      <trkpt lat="44.64318" lon="2.98674">
        <ele>1312.82</ele>
        <time>2012-08-10T06:55:53Z</time>
      </trkpt>
      <trkpt lat="44.64318" lon="2.98674">
        <ele>1313.78</ele>
        <time>2012-08-10T06:56:09Z</time>
      </trkpt>
      <trkpt lat="44.64319" lon="2.98673">
        <ele>1313.78</ele>
        <time>2012-08-10T06:56:28Z</time>
      </trkpt>
      <trkpt lat="44.64317" lon="2.98674">
        <ele>1314.26</ele>
        <time>2012-08-10T06:56:42Z</time>
      </trkpt>
      <trkpt lat="44.64316" lon="2.98674">
        <ele>1314.26</ele>
        <time>2012-08-10T06:57:05Z</time>
      </trkpt>
      <trkpt lat="44.64295" lon="2.98682">
        <ele>1313.78</ele>
        <time>2012-08-10T06:57:17Z</time>
      </trkpt>
      <trkpt lat="44.64259" lon="2.987">
        <ele>1311.38</ele>
        <time>2012-08-10T06:57:32Z</time>
      </trkpt>
      <trkpt lat="44.64222" lon="2.98719">
        <ele>1309.45</ele>
        <time>2012-08-10T06:57:43Z</time>
      </trkpt>
      <trkpt lat="44.64175" lon="2.98739">
        <ele>1305.61</ele>
        <time>2012-08-10T06:57:56Z</time>
      </trkpt>
      <trkpt lat="44.64159" lon="2.98747">
        <ele>1306.57</ele>
        <time>2012-08-10T06:58:03Z</time>
      </trkpt>
      <trkpt lat="44.64156" lon="2.98749">
        <ele>1306.57</ele>
        <time>2012-08-10T06:58:04Z</time>
      </trkpt>
      <trkpt lat="44.64154" lon="2.98751">
        <ele>1306.57</ele>
        <time>2012-08-10T06:58:05Z</time>
      </trkpt>
      <trkpt lat="44.64151" lon="2.98753">
        <ele>1306.57</ele>
        <time>2012-08-10T06:58:06Z</time>
      </trkpt>
      <trkpt lat="44.64148" lon="2.98753">
        <ele>1306.57</ele>
        <time>2012-08-10T06:58:07Z</time>
      </trkpt>
      <trkpt lat="44.64144" lon="2.98753">
        <ele>1306.09</ele>
        <time>2012-08-10T06:58:08Z</time>
      </trkpt>
      <trkpt lat="44.64141" lon="2.98753">
        <ele>1306.09</ele>
        <time>2012-08-10T06:58:09Z</time>
      </trkpt>
      <trkpt lat="44.64139" lon="2.98752">
        <ele>1306.57</ele>
        <time>2012-08-10T06:58:10Z</time>
      </trkpt>
      <trkpt lat="44.64137" lon="2.98753">
        <ele>1306.57</ele>
        <time>2012-08-10T06:58:11Z</time>
      </trkpt>
      <trkpt lat="44.64135" lon="2.98753">
        <ele>1306.57</ele>
        <time>2012-08-10T06:58:12Z</time>
      </trkpt>
      <trkpt lat="44.64133" lon="2.98754">
        <ele>1306.09</ele>
        <time>2012-08-10T06:58:13Z</time>
      </trkpt>
      <trkpt lat="44.64132" lon="2.98755">
        <ele>1306.09</ele>
        <time>2012-08-10T06:58:14Z</time>
      </trkpt>
      <trkpt lat="44.6413" lon="2.98754">
        <ele>1305.13</ele>
        <time>2012-08-10T06:58:25Z</time>
      </trkpt>
      <trkpt lat="44.64129" lon="2.98756">
        <ele>1304.65</ele>
        <time>2012-08-10T06:58:34Z</time>
      </trkpt>
      <trkpt lat="44.64121" lon="2.98768">
        <ele>1306.09</ele>
        <time>2012-08-10T06:58:43Z</time>
      </trkpt>
      <trkpt lat="44.6412" lon="2.9877">
        <ele>1306.09</ele>
        <time>2012-08-10T06:58:45Z</time>
      </trkpt>
      <trkpt lat="44.64119" lon="2.98771">
        <ele>1306.09</ele>
        <time>2012-08-10T06:58:46Z</time>
      </trkpt>
      <trkpt lat="44.64118" lon="2.98772">
        <ele>1306.09</ele>
        <time>2012-08-10T06:58:47Z</time>
      </trkpt>
      <trkpt lat="44.64103" lon="2.98788">
        <ele>1307.05</ele>
        <time>2012-08-10T06:59:05Z</time>
      </trkpt>
      <trkpt lat="44.6409" lon="2.98803">
        <ele>1309.93</ele>
        <time>2012-08-10T06:59:20Z</time>
      </trkpt>
      <trkpt lat="44.64086" lon="2.98807">
        <ele>1310.9</ele>
        <time>2012-08-10T06:59:24Z</time>
      </trkpt>
      <trkpt lat="44.64079" lon="2.98817">
        <ele>1312.34</ele>
        <time>2012-08-10T06:59:39Z</time>
      </trkpt>
      <trkpt lat="44.64063" lon="2.98832">
        <ele>1312.82</ele>
        <time>2012-08-10T06:59:51Z</time>
      </trkpt>
      <trkpt lat="44.64035" lon="2.98855">
        <ele>1314.74</ele>
        <time>2012-08-10T07:00:07Z</time>
      </trkpt>
      <trkpt lat="44.64007" lon="2.98878">
        <ele>1317.62</ele>
        <time>2012-08-10T07:00:24Z</time>
      </trkpt>
      <trkpt lat="44.63986" lon="2.98894">
        <ele>1318.59</ele>
        <time>2012-08-10T07:00:39Z</time>
      </trkpt>
      <trkpt lat="44.63962" lon="2.9891">
        <ele>1320.51</ele>
        <time>2012-08-10T07:00:56Z</time>
      </trkpt>
      <trkpt lat="44.63936" lon="2.98928">
        <ele>1322.91</ele>
        <time>2012-08-10T07:01:14Z</time>
      </trkpt>
      <trkpt lat="44.63916" lon="2.98946">
        <ele>1323.39</ele>
        <time>2012-08-10T07:01:30Z</time>
      </trkpt>
      <trkpt lat="44.63897" lon="2.98965">
        <ele>1325.31</ele>
        <time>2012-08-10T07:01:45Z</time>
      </trkpt>
      <trkpt lat="44.63876" lon="2.98987">
        <ele>1328.2</ele>
        <time>2012-08-10T07:02:01Z</time>
      </trkpt>
      <trkpt lat="44.63865" lon="2.98997">
        <ele>1329.16</ele>
        <time>2012-08-10T07:02:14Z</time>
      </trkpt>
      <trkpt lat="44.63851" lon="2.9901">
        <ele>1332.04</ele>
        <time>2012-08-10T07:02:30Z</time>
      </trkpt>
      <trkpt lat="44.63838" lon="2.99022">
        <ele>1332.52</ele>
        <time>2012-08-10T07:02:45Z</time>
      </trkpt>
      <trkpt lat="44.63824" lon="2.99033">
        <ele>1334.93</ele>
        <time>2012-08-10T07:02:59Z</time>
      </trkpt>
      <trkpt lat="44.63823" lon="2.99033">
        <ele>1334.45</ele>
        <time>2012-08-10T07:03:00Z</time>
      </trkpt>
      <trkpt lat="44.63822" lon="2.99034">
        <ele>1334.45</ele>
        <time>2012-08-10T07:03:01Z</time>
      </trkpt>
      <trkpt lat="44.63821" lon="2.99035">
        <ele>1334.45</ele>
        <time>2012-08-10T07:03:02Z</time>
      </trkpt>
      <trkpt lat="44.63802" lon="2.99049">
        <ele>1335.41</ele>
        <time>2012-08-10T07:03:20Z</time>
      </trkpt>
      <trkpt lat="44.63783" lon="2.99061">
        <ele>1338.29</ele>
        <time>2012-08-10T07:03:38Z</time>
      </trkpt>
      <trkpt lat="44.63767" lon="2.99074">
        <ele>1340.22</ele>
        <time>2012-08-10T07:03:55Z</time>
      </trkpt>
      <trkpt lat="44.63758" lon="2.99083">
        <ele>1341.66</ele>
        <time>2012-08-10T07:04:09Z</time>
      </trkpt>
      <trkpt lat="44.63748" lon="2.99093">
        <ele>1342.62</ele>
        <time>2012-08-10T07:04:22Z</time>
      </trkpt>
      <trkpt lat="44.63738" lon="2.99101">
        <ele>1346.94</ele>
        <time>2012-08-10T07:04:35Z</time>
      </trkpt>
      <trkpt lat="44.63732" lon="2.99109">
        <ele>1348.87</ele>
        <time>2012-08-10T07:04:45Z</time>
      </trkpt>
      <trkpt lat="44.6372" lon="2.99122">
        <ele>1348.39</ele>
        <time>2012-08-10T07:05:00Z</time>
      </trkpt>
      <trkpt lat="44.63707" lon="2.99136">
        <ele>1348.39</ele>
        <time>2012-08-10T07:05:15Z</time>
      </trkpt>
      <trkpt lat="44.63693" lon="2.99154">
        <ele>1351.27</ele>
        <time>2012-08-10T07:05:33Z</time>
      </trkpt>
      <trkpt lat="44.63681" lon="2.99167">
        <ele>1352.71</ele>
        <time>2012-08-10T07:05:49Z</time>
      </trkpt>
      <trkpt lat="44.63669" lon="2.9918">
        <ele>1352.71</ele>
        <time>2012-08-10T07:06:03Z</time>
      </trkpt>
      <trkpt lat="44.63667" lon="2.99182">
        <ele>1353.67</ele>
        <time>2012-08-10T07:06:05Z</time>
      </trkpt>
      <trkpt lat="44.63662" lon="2.99185">
        <ele>1354.63</ele>
        <time>2012-08-10T07:06:12Z</time>
      </trkpt>
      <trkpt lat="44.63658" lon="2.99187">
        <ele>1355.12</ele>
        <time>2012-08-10T07:06:26Z</time>
      </trkpt>
      <trkpt lat="44.63651" lon="2.99197">
        <ele>1355.12</ele>
        <time>2012-08-10T07:06:36Z</time>
      </trkpt>
      <trkpt lat="44.63649" lon="2.99199">
        <ele>1355.12</ele>
        <time>2012-08-10T07:06:37Z</time>
      </trkpt>
      <trkpt lat="44.63648" lon="2.992">
        <ele>1355.6</ele>
        <time>2012-08-10T07:06:38Z</time>
      </trkpt>
      <trkpt lat="44.63625" lon="2.99226">
        <ele>1355.12</ele>
        <time>2012-08-10T07:06:53Z</time>
      </trkpt>
      <trkpt lat="44.63604" lon="2.99251">
        <ele>1358</ele>
        <time>2012-08-10T07:07:08Z</time>
      </trkpt>
      <trkpt lat="44.636" lon="2.99258">
        <ele>1358</ele>
        <time>2012-08-10T07:07:15Z</time>
      </trkpt>
      <trkpt lat="44.63599" lon="2.99259">
        <ele>1358</ele>
        <time>2012-08-10T07:07:16Z</time>
      </trkpt>
      <trkpt lat="44.63598" lon="2.99261">
        <ele>1358</ele>
        <time>2012-08-10T07:07:17Z</time>
      </trkpt>
      <trkpt lat="44.63597" lon="2.99263">
        <ele>1358</ele>
        <time>2012-08-10T07:07:18Z</time>
      </trkpt>
      <trkpt lat="44.63596" lon="2.99265">
        <ele>1358</ele>
        <time>2012-08-10T07:07:19Z</time>
      </trkpt>
      <trkpt lat="44.63595" lon="2.99267">
        <ele>1358.48</ele>
        <time>2012-08-10T07:07:20Z</time>
      </trkpt>
      <trkpt lat="44.63593" lon="2.99269">
        <ele>1358.48</ele>
        <time>2012-08-10T07:07:21Z</time>
      </trkpt>
      <trkpt lat="44.63592" lon="2.9927">
        <ele>1358.48</ele>
        <time>2012-08-10T07:07:22Z</time>
      </trkpt>
      <trkpt lat="44.6359" lon="2.99272">
        <ele>1358.48</ele>
        <time>2012-08-10T07:07:23Z</time>
      </trkpt>
      <trkpt lat="44.63589" lon="2.99273">
        <ele>1358.48</ele>
        <time>2012-08-10T07:07:24Z</time>
      </trkpt>
      <trkpt lat="44.63569" lon="2.99297">
        <ele>1359.44</ele>
        <time>2012-08-10T07:07:38Z</time>
      </trkpt>
      <trkpt lat="44.6355" lon="2.99318">
        <ele>1359.44</ele>
        <time>2012-08-10T07:07:50Z</time>
      </trkpt>
      <trkpt lat="44.63525" lon="2.99343">
        <ele>1361.36</ele>
        <time>2012-08-10T07:08:03Z</time>
      </trkpt>
      <trkpt lat="44.63501" lon="2.99367">
        <ele>1363.29</ele>
        <time>2012-08-10T07:08:16Z</time>
      </trkpt>
      <trkpt lat="44.63473" lon="2.99388">
        <ele>1364.73</ele>
        <time>2012-08-10T07:08:31Z</time>
      </trkpt>
      <trkpt lat="44.63465" lon="2.99392">
        <ele>1365.69</ele>
        <time>2012-08-10T07:08:42Z</time>
      </trkpt>
      <trkpt lat="44.63463" lon="2.99393">
        <ele>1365.21</ele>
        <time>2012-08-10T07:09:00Z</time>
      </trkpt>
      <trkpt lat="44.63464" lon="2.99393">
        <ele>1365.69</ele>
        <time>2012-08-10T07:09:17Z</time>
      </trkpt>
      <trkpt lat="44.63459" lon="2.99393">
        <ele>1364.73</ele>
        <time>2012-08-10T07:09:39Z</time>
      </trkpt>
      <trkpt lat="44.63459" lon="2.99394">
        <ele>1364.73</ele>
        <time>2012-08-10T07:09:41Z</time>
      </trkpt>
      <trkpt lat="44.63458" lon="2.99396">
        <ele>1364.73</ele>
        <time>2012-08-10T07:09:42Z</time>
      </trkpt>
      <trkpt lat="44.63456" lon="2.99397">
        <ele>1364.73</ele>
        <time>2012-08-10T07:09:43Z</time>
      </trkpt>
      <trkpt lat="44.63454" lon="2.99397">
        <ele>1364.73</ele>
        <time>2012-08-10T07:09:44Z</time>
      </trkpt>
      <trkpt lat="44.63452" lon="2.99398">
        <ele>1365.21</ele>
        <time>2012-08-10T07:09:45Z</time>
      </trkpt>
      <trkpt lat="44.6345" lon="2.99399">
        <ele>1365.21</ele>
        <time>2012-08-10T07:09:46Z</time>
      </trkpt>
      <trkpt lat="44.63447" lon="2.994">
        <ele>1365.69</ele>
        <time>2012-08-10T07:09:47Z</time>
      </trkpt>
      <trkpt lat="44.63408" lon="2.99416">
        <ele>1366.17</ele>
        <time>2012-08-10T07:10:04Z</time>
      </trkpt>
      <trkpt lat="44.63381" lon="2.99428">
        <ele>1370.98</ele>
        <time>2012-08-10T07:10:20Z</time>
      </trkpt>
      <trkpt lat="44.63369" lon="2.9943">
        <ele>1370.5</ele>
        <time>2012-08-10T07:10:27Z</time>
      </trkpt>
      <trkpt lat="44.63368" lon="2.9943">
        <ele>1370.5</ele>
        <time>2012-08-10T07:10:28Z</time>
      </trkpt>
      <trkpt lat="44.63367" lon="2.99429">
        <ele>1370.5</ele>
        <time>2012-08-10T07:10:29Z</time>
      </trkpt>
      <trkpt lat="44.63367" lon="2.99429">
        <ele>1369.54</ele>
        <time>2012-08-10T07:10:44Z</time>
      </trkpt>
      <trkpt lat="44.63367" lon="2.99428">
        <ele>1370.02</ele>
        <time>2012-08-10T07:11:13Z</time>
      </trkpt>
      <trkpt lat="44.63367" lon="2.99429">
        <ele>1370.98</ele>
        <time>2012-08-10T07:11:50Z</time>
      </trkpt>
      <trkpt lat="44.63367" lon="2.99429">
        <ele>1370.5</ele>
        <time>2012-08-10T07:12:07Z</time>
      </trkpt>
      <trkpt lat="44.63367" lon="2.99428">
        <ele>1369.54</ele>
        <time>2012-08-10T07:12:54Z</time>
      </trkpt>
      <trkpt lat="44.63367" lon="2.99428">
        <ele>1369.05</ele>
        <time>2012-08-10T07:13:35Z</time>
      </trkpt>
      <trkpt lat="44.63367" lon="2.99428">
        <ele>1368.57</ele>
        <time>2012-08-10T07:14:16Z</time>
      </trkpt>
      <trkpt lat="44.63366" lon="2.99427">
        <ele>1368.57</ele>
        <time>2012-08-10T07:14:58Z</time>
      </trkpt>
      <trkpt lat="44.63366" lon="2.99427">
        <ele>1368.09</ele>
        <time>2012-08-10T07:15:41Z</time>
      </trkpt>
      <trkpt lat="44.63366" lon="2.99427">
        <ele>1366.17</ele>
        <time>2012-08-10T07:16:19Z</time>
      </trkpt>
      <trkpt lat="44.63365" lon="2.99426">
        <ele>1365.21</ele>
        <time>2012-08-10T07:16:53Z</time>
      </trkpt>
      <trkpt lat="44.63365" lon="2.99427">
        <ele>1364.73</ele>
        <time>2012-08-10T07:17:23Z</time>
      </trkpt>
      <trkpt lat="44.63364" lon="2.99427">
        <ele>1364.73</ele>
        <time>2012-08-10T07:17:51Z</time>
      </trkpt>
      <trkpt lat="44.63364" lon="2.99426">
        <ele>1364.73</ele>
        <time>2012-08-10T07:18:02Z</time>
      </trkpt>
      <trkpt lat="44.63364" lon="2.99427">
        <ele>1364.73</ele>
        <time>2012-08-10T07:18:03Z</time>
      </trkpt>
      <trkpt lat="44.63362" lon="2.99427">
        <ele>1364.73</ele>
        <time>2012-08-10T07:18:04Z</time>
      </trkpt>
      <trkpt lat="44.63361" lon="2.99427">
        <ele>1364.73</ele>
        <time>2012-08-10T07:18:05Z</time>
      </trkpt>
      <trkpt lat="44.6336" lon="2.99427">
        <ele>1364.73</ele>
        <time>2012-08-10T07:18:06Z</time>
      </trkpt>
      <trkpt lat="44.63359" lon="2.99426">
        <ele>1364.25</ele>
        <time>2012-08-10T07:18:07Z</time>
      </trkpt>
      <trkpt lat="44.63356" lon="2.99425">
        <ele>1364.73</ele>
        <time>2012-08-10T07:18:22Z</time>
      </trkpt>
      <trkpt lat="44.63355" lon="2.99425">
        <ele>1364.73</ele>
        <time>2012-08-10T07:18:23Z</time>
      </trkpt>
      <trkpt lat="44.63353" lon="2.99425">
        <ele>1364.73</ele>
        <time>2012-08-10T07:18:24Z</time>
      </trkpt>
      <trkpt lat="44.63351" lon="2.99424">
        <ele>1364.73</ele>
        <time>2012-08-10T07:18:25Z</time>
      </trkpt>
      <trkpt lat="44.63348" lon="2.99423">
        <ele>1364.73</ele>
        <time>2012-08-10T07:18:26Z</time>
      </trkpt>
      <trkpt lat="44.63345" lon="2.99422">
        <ele>1364.25</ele>
        <time>2012-08-10T07:18:27Z</time>
      </trkpt>
      <trkpt lat="44.63342" lon="2.9942">
        <ele>1364.25</ele>
        <time>2012-08-10T07:18:28Z</time>
      </trkpt>
      <trkpt lat="44.63338" lon="2.99418">
        <ele>1363.77</ele>
        <time>2012-08-10T07:18:29Z</time>
      </trkpt>
      <trkpt lat="44.63335" lon="2.99416">
        <ele>1363.77</ele>
        <time>2012-08-10T07:18:30Z</time>
      </trkpt>
      <trkpt lat="44.63331" lon="2.99412">
        <ele>1363.29</ele>
        <time>2012-08-10T07:18:31Z</time>
      </trkpt>
      <trkpt lat="44.63327" lon="2.99409">
        <ele>1363.29</ele>
        <time>2012-08-10T07:18:32Z</time>
      </trkpt>
      <trkpt lat="44.63323" lon="2.99405">
        <ele>1362.81</ele>
        <time>2012-08-10T07:18:33Z</time>
      </trkpt>
      <trkpt lat="44.63305" lon="2.99389">
        <ele>1362.81</ele>
        <time>2012-08-10T07:18:37Z</time>
      </trkpt>
      <trkpt lat="44.63296" lon="2.99381">
        <ele>1362.81</ele>
        <time>2012-08-10T07:18:39Z</time>
      </trkpt>
      <trkpt lat="44.63292" lon="2.99376">
        <ele>1362.81</ele>
        <time>2012-08-10T07:18:40Z</time>
      </trkpt>
      <trkpt lat="44.63284" lon="2.99366">
        <ele>1361.84</ele>
        <time>2012-08-10T07:18:42Z</time>
      </trkpt>
      <trkpt lat="44.6328" lon="2.99363">
        <ele>1361.84</ele>
        <time>2012-08-10T07:18:43Z</time>
      </trkpt>
      <trkpt lat="44.63274" lon="2.9936">
        <ele>1361.84</ele>
        <time>2012-08-10T07:18:44Z</time>
      </trkpt>
      <trkpt lat="44.63269" lon="2.99359">
        <ele>1361.84</ele>
        <time>2012-08-10T07:18:45Z</time>
      </trkpt>
      <trkpt lat="44.63264" lon="2.99357">
        <ele>1361.84</ele>
        <time>2012-08-10T07:18:46Z</time>
      </trkpt>
      <trkpt lat="44.63259" lon="2.99354">
        <ele>1361.84</ele>
        <time>2012-08-10T07:18:47Z</time>
      </trkpt>
      <trkpt lat="44.63254" lon="2.99352">
        <ele>1361.36</ele>
        <time>2012-08-10T07:18:48Z</time>
      </trkpt>
      <trkpt lat="44.63249" lon="2.99349">
        <ele>1360.88</ele>
        <time>2012-08-10T07:18:49Z</time>
      </trkpt>
      <trkpt lat="44.63239" lon="2.99342">
        <ele>1359.92</ele>
        <time>2012-08-10T07:18:51Z</time>
      </trkpt>
      <trkpt lat="44.63234" lon="2.99339">
        <ele>1359.92</ele>
        <time>2012-08-10T07:18:52Z</time>
      </trkpt>
      <trkpt lat="44.63229" lon="2.99335">
        <ele>1359.92</ele>
        <time>2012-08-10T07:18:53Z</time>
      </trkpt>
      <trkpt lat="44.63222" lon="2.99328">
        <ele>1359.92</ele>
        <time>2012-08-10T07:18:55Z</time>
      </trkpt>
      <trkpt lat="44.63218" lon="2.99326">
        <ele>1359.92</ele>
        <time>2012-08-10T07:18:56Z</time>
      </trkpt>
      <trkpt lat="44.63214" lon="2.99324">
        <ele>1359.44</ele>
        <time>2012-08-10T07:18:57Z</time>
      </trkpt>
      <trkpt lat="44.63211" lon="2.99324">
        <ele>1359.44</ele>
        <time>2012-08-10T07:18:58Z</time>
      </trkpt>
      <trkpt lat="44.63208" lon="2.99323">
        <ele>1358.96</ele>
        <time>2012-08-10T07:18:59Z</time>
      </trkpt>
      <trkpt lat="44.63205" lon="2.99322">
        <ele>1358.96</ele>
        <time>2012-08-10T07:19:00Z</time>
      </trkpt>
      <trkpt lat="44.63203" lon="2.9932">
        <ele>1358.96</ele>
        <time>2012-08-10T07:19:01Z</time>
      </trkpt>
      <trkpt lat="44.63192" lon="2.99311">
        <ele>1358</ele>
        <time>2012-08-10T07:19:04Z</time>
      </trkpt>
      <trkpt lat="44.63185" lon="2.99304">
        <ele>1357.52</ele>
        <time>2012-08-10T07:19:06Z</time>
      </trkpt>
      <trkpt lat="44.63154" lon="2.99276">
        <ele>1356.56</ele>
        <time>2012-08-10T07:19:13Z</time>
      </trkpt>
      <trkpt lat="44.63149" lon="2.99273">
        <ele>1356.56</ele>
        <time>2012-08-10T07:19:14Z</time>
      </trkpt>
      <trkpt lat="44.63121" lon="2.99249">
        <ele>1357.04</ele>
        <time>2012-08-10T07:19:24Z</time>
      </trkpt>
      <trkpt lat="44.63081" lon="2.99216">
        <ele>1358.48</ele>
        <time>2012-08-10T07:19:37Z</time>
      </trkpt>
      <trkpt lat="44.63046" lon="2.99163">
        <ele>1359.92</ele>
        <time>2012-08-10T07:19:51Z</time>
      </trkpt>
      <trkpt lat="44.63038" lon="2.99149">
        <ele>1359.44</ele>
        <time>2012-08-10T07:19:54Z</time>
      </trkpt>
      <trkpt lat="44.63035" lon="2.99143">
        <ele>1358.96</ele>
        <time>2012-08-10T07:19:55Z</time>
      </trkpt>
      <trkpt lat="44.63029" lon="2.99121">
        <ele>1357.52</ele>
        <time>2012-08-10T07:19:58Z</time>
      </trkpt>
      <trkpt lat="44.63022" lon="2.991">
        <ele>1357.04</ele>
        <time>2012-08-10T07:20:01Z</time>
      </trkpt>
      <trkpt lat="44.63016" lon="2.99087">
        <ele>1356.56</ele>
        <time>2012-08-10T07:20:03Z</time>
      </trkpt>
      <trkpt lat="44.63008" lon="2.99064">
        <ele>1356.08</ele>
        <time>2012-08-10T07:20:06Z</time>
      </trkpt>
      <trkpt lat="44.62981" lon="2.99015">
        <ele>1354.15</ele>
        <time>2012-08-10T07:20:14Z</time>
      </trkpt>
      <trkpt lat="44.62976" lon="2.99009">
        <ele>1353.67</ele>
        <time>2012-08-10T07:20:15Z</time>
      </trkpt>
      <trkpt lat="44.62962" lon="2.98988">
        <ele>1351.75</ele>
        <time>2012-08-10T07:20:18Z</time>
      </trkpt>
      <trkpt lat="44.62942" lon="2.98966">
        <ele>1350.31</ele>
        <time>2012-08-10T07:20:21Z</time>
      </trkpt>
      <trkpt lat="44.62915" lon="2.98938">
        <ele>1348.39</ele>
        <time>2012-08-10T07:20:25Z</time>
      </trkpt>
      <trkpt lat="44.62909" lon="2.98933">
        <ele>1347.91</ele>
        <time>2012-08-10T07:20:26Z</time>
      </trkpt>
      <trkpt lat="44.62904" lon="2.98927">
        <ele>1347.91</ele>
        <time>2012-08-10T07:20:27Z</time>
      </trkpt>
      <trkpt lat="44.62894" lon="2.98914">
        <ele>1347.43</ele>
        <time>2012-08-10T07:20:29Z</time>
      </trkpt>
      <trkpt lat="44.62871" lon="2.98891">
        <ele>1347.91</ele>
        <time>2012-08-10T07:20:34Z</time>
      </trkpt>
      <trkpt lat="44.62836" lon="2.98869">
        <ele>1346.46</ele>
        <time>2012-08-10T07:20:43Z</time>
      </trkpt>
      <trkpt lat="44.62832" lon="2.98868">
        <ele>1346.46</ele>
        <time>2012-08-10T07:20:44Z</time>
      </trkpt>
      <trkpt lat="44.62828" lon="2.98866">
        <ele>1346.46</ele>
        <time>2012-08-10T07:20:45Z</time>
      </trkpt>
      <trkpt lat="44.62808" lon="2.98853">
        <ele>1346.46</ele>
        <time>2012-08-10T07:20:56Z</time>
      </trkpt>
      <trkpt lat="44.62805" lon="2.98852">
        <ele>1345.98</ele>
        <time>2012-08-10T07:21:10Z</time>
      </trkpt>
      <trkpt lat="44.62804" lon="2.98853">
        <ele>1346.46</ele>
        <time>2012-08-10T07:21:47Z</time>
      </trkpt>
      <trkpt lat="44.62805" lon="2.98854">
        <ele>1347.43</ele>
        <time>2012-08-10T07:22:26Z</time>
      </trkpt>
      <trkpt lat="44.62806" lon="2.98854">
        <ele>1348.39</ele>
        <time>2012-08-10T07:22:59Z</time>
      </trkpt>
      <trkpt lat="44.62806" lon="2.98854">
        <ele>1348.39</ele>
        <time>2012-08-10T07:23:39Z</time>
      </trkpt>
      <trkpt lat="44.62807" lon="2.98854">
        <ele>1348.39</ele>
        <time>2012-08-10T07:24:12Z</time>
      </trkpt>
      <trkpt lat="44.62807" lon="2.98854">
        <ele>1348.87</ele>
        <time>2012-08-10T07:24:46Z</time>
      </trkpt>
      <trkpt lat="44.62806" lon="2.98855">
        <ele>1349.35</ele>
        <time>2012-08-10T07:25:23Z</time>
      </trkpt>
      <trkpt lat="44.62807" lon="2.98854">
        <ele>1349.83</ele>
        <time>2012-08-10T07:25:51Z</time>
      </trkpt>
      <trkpt lat="44.6279" lon="2.98843">
        <ele>1348.39</ele>
        <time>2012-08-10T07:26:00Z</time>
      </trkpt>
      <trkpt lat="44.62757" lon="2.98816">
        <ele>1345.02</ele>
        <time>2012-08-10T07:26:11Z</time>
      </trkpt>
      <trkpt lat="44.6272" lon="2.98794">
        <ele>1338.77</ele>
        <time>2012-08-10T07:26:22Z</time>
      </trkpt>
      <trkpt lat="44.62717" lon="2.98794">
        <ele>1338.29</ele>
        <time>2012-08-10T07:26:23Z</time>
      </trkpt>
      <trkpt lat="44.62713" lon="2.98794">
        <ele>1337.81</ele>
        <time>2012-08-10T07:26:24Z</time>
      </trkpt>
      <trkpt lat="44.6271" lon="2.98793">
        <ele>1337.33</ele>
        <time>2012-08-10T07:26:25Z</time>
      </trkpt>
      <trkpt lat="44.62707" lon="2.9879">
        <ele>1336.37</ele>
        <time>2012-08-10T07:26:26Z</time>
      </trkpt>
      <trkpt lat="44.62704" lon="2.98786">
        <ele>1335.89</ele>
        <time>2012-08-10T07:26:27Z</time>
      </trkpt>
      <trkpt lat="44.62672" lon="2.9878">
        <ele>1329.16</ele>
        <time>2012-08-10T07:26:36Z</time>
      </trkpt>
      <trkpt lat="44.62645" lon="2.98777">
        <ele>1322.91</ele>
        <time>2012-08-10T07:26:45Z</time>
      </trkpt>
      <trkpt lat="44.62621" lon="2.98773">
        <ele>1317.62</ele>
        <time>2012-08-10T07:26:54Z</time>
      </trkpt>
      <trkpt lat="44.62617" lon="2.98772">
        <ele>1316.66</ele>
        <time>2012-08-10T07:27:04Z</time>
      </trkpt>
      <trkpt lat="44.62616" lon="2.98773">
        <ele>1316.66</ele>
        <time>2012-08-10T07:27:21Z</time>
      </trkpt>
      <trkpt lat="44.62615" lon="2.98771">
        <ele>1317.62</ele>
        <time>2012-08-10T07:27:33Z</time>
      </trkpt>
      <trkpt lat="44.62613" lon="2.98771">
        <ele>1317.14</ele>
        <time>2012-08-10T07:27:49Z</time>
      </trkpt>
      <trkpt lat="44.62613" lon="2.98771">
        <ele>1317.14</ele>
        <time>2012-08-10T07:28:06Z</time>
      </trkpt>
      <trkpt lat="44.62611" lon="2.98767">
        <ele>1317.62</ele>
        <time>2012-08-10T07:28:18Z</time>
      </trkpt>
      <trkpt lat="44.62609" lon="2.98762">
        <ele>1317.62</ele>
        <time>2012-08-10T07:28:21Z</time>
      </trkpt>
      <trkpt lat="44.62609" lon="2.9876">
        <ele>1317.62</ele>
        <time>2012-08-10T07:28:22Z</time>
      </trkpt>
      <trkpt lat="44.62607" lon="2.98755">
        <ele>1317.62</ele>
        <time>2012-08-10T07:28:24Z</time>
      </trkpt>
      <trkpt lat="44.62605" lon="2.98753">
        <ele>1317.14</ele>
        <time>2012-08-10T07:28:25Z</time>
      </trkpt>
      <trkpt lat="44.62602" lon="2.98753">
        <ele>1317.14</ele>
        <time>2012-08-10T07:28:26Z</time>
      </trkpt>
      <trkpt lat="44.626" lon="2.98752">
        <ele>1316.66</ele>
        <time>2012-08-10T07:28:27Z</time>
      </trkpt>
      <trkpt lat="44.62598" lon="2.98752">
        <ele>1316.66</ele>
        <time>2012-08-10T07:28:28Z</time>
      </trkpt>
      <trkpt lat="44.62596" lon="2.98751">
        <ele>1316.18</ele>
        <time>2012-08-10T07:28:29Z</time>
      </trkpt>
      <trkpt lat="44.62594" lon="2.98751">
        <ele>1315.7</ele>
        <time>2012-08-10T07:28:30Z</time>
      </trkpt>
      <trkpt lat="44.62592" lon="2.98751">
        <ele>1315.22</ele>
        <time>2012-08-10T07:28:31Z</time>
      </trkpt>
      <trkpt lat="44.6259" lon="2.98751">
        <ele>1315.22</ele>
        <time>2012-08-10T07:28:32Z</time>
      </trkpt>
      <trkpt lat="44.62588" lon="2.98751">
        <ele>1314.74</ele>
        <time>2012-08-10T07:28:33Z</time>
      </trkpt>
      <trkpt lat="44.62582" lon="2.98749">
        <ele>1313.78</ele>
        <time>2012-08-10T07:28:35Z</time>
      </trkpt>
      <trkpt lat="44.62577" lon="2.9875">
        <ele>1312.82</ele>
        <time>2012-08-10T07:28:36Z</time>
      </trkpt>
      <trkpt lat="44.62566" lon="2.98751">
        <ele>1311.38</ele>
        <time>2012-08-10T07:28:38Z</time>
      </trkpt>
      <trkpt lat="44.62527" lon="2.98745">
        <ele>1307.05</ele>
        <time>2012-08-10T07:28:47Z</time>
      </trkpt>
      <trkpt lat="44.62494" lon="2.98734">
        <ele>1303.69</ele>
        <time>2012-08-10T07:28:57Z</time>
      </trkpt>
      <trkpt lat="44.62464" lon="2.9873">
        <ele>1302.72</ele>
        <time>2012-08-10T07:29:08Z</time>
      </trkpt>
      <trkpt lat="44.62439" lon="2.98726">
        <ele>1305.61</ele>
        <time>2012-08-10T07:29:18Z</time>
      </trkpt>
      <trkpt lat="44.62405" lon="2.98721">
        <ele>1307.53</ele>
        <time>2012-08-10T07:29:32Z</time>
      </trkpt>
      <trkpt lat="44.624" lon="2.9872">
        <ele>1307.53</ele>
        <time>2012-08-10T07:29:34Z</time>
      </trkpt>
      <trkpt lat="44.62393" lon="2.98716">
        <ele>1308.01</ele>
        <time>2012-08-10T07:29:45Z</time>
      </trkpt>
      <trkpt lat="44.62393" lon="2.98717">
        <ele>1308.01</ele>
        <time>2012-08-10T07:30:10Z</time>
      </trkpt>
      <trkpt lat="44.62393" lon="2.98717">
        <ele>1308.01</ele>
        <time>2012-08-10T07:30:45Z</time>
      </trkpt>
      <trkpt lat="44.62393" lon="2.98717">
        <ele>1308.01</ele>
        <time>2012-08-10T07:31:09Z</time>
      </trkpt>
      <trkpt lat="44.62392" lon="2.98716">
        <ele>1307.05</ele>
        <time>2012-08-10T07:31:23Z</time>
      </trkpt>
      <trkpt lat="44.62374" lon="2.98707">
        <ele>1308.01</ele>
        <time>2012-08-10T07:31:34Z</time>
      </trkpt>
      <trkpt lat="44.62373" lon="2.98707">
        <ele>1307.53</ele>
        <time>2012-08-10T07:31:35Z</time>
      </trkpt>
      <trkpt lat="44.62371" lon="2.98706">
        <ele>1307.05</ele>
        <time>2012-08-10T07:31:38Z</time>
      </trkpt>
      <trkpt lat="44.62351" lon="2.98702">
        <ele>1304.17</ele>
        <time>2012-08-10T07:31:48Z</time>
      </trkpt>
      <trkpt lat="44.62331" lon="2.98713">
        <ele>1298.88</ele>
        <time>2012-08-10T07:31:58Z</time>
      </trkpt>
      <trkpt lat="44.62319" lon="2.98729">
        <ele>1299.36</ele>
        <time>2012-08-10T07:32:12Z</time>
      </trkpt>
      <trkpt lat="44.62304" lon="2.98755">
        <ele>1299.84</ele>
        <time>2012-08-10T07:32:22Z</time>
      </trkpt>
      <trkpt lat="44.62303" lon="2.98758">
        <ele>1299.84</ele>
        <time>2012-08-10T07:32:24Z</time>
      </trkpt>
      <trkpt lat="44.62302" lon="2.98759">
        <ele>1299.36</ele>
        <time>2012-08-10T07:32:25Z</time>
      </trkpt>
      <trkpt lat="44.623" lon="2.9876">
        <ele>1298.88</ele>
        <time>2012-08-10T07:32:31Z</time>
      </trkpt>
      <trkpt lat="44.62299" lon="2.98762">
        <ele>1299.36</ele>
        <time>2012-08-10T07:32:32Z</time>
      </trkpt>
      <trkpt lat="44.62298" lon="2.98762">
        <ele>1299.36</ele>
        <time>2012-08-10T07:32:33Z</time>
      </trkpt>
      <trkpt lat="44.62295" lon="2.98759">
        <ele>1300.32</ele>
        <time>2012-08-10T07:32:44Z</time>
      </trkpt>
      <trkpt lat="44.62295" lon="2.98758">
        <ele>1300.32</ele>
        <time>2012-08-10T07:33:17Z</time>
      </trkpt>
      <trkpt lat="44.62296" lon="2.98758">
        <ele>1299.36</ele>
        <time>2012-08-10T07:33:44Z</time>
      </trkpt>
      <trkpt lat="44.62295" lon="2.98759">
        <ele>1297.92</ele>
        <time>2012-08-10T07:34:14Z</time>
      </trkpt>
      <trkpt lat="44.62296" lon="2.98758">
        <ele>1296.96</ele>
        <time>2012-08-10T07:34:48Z</time>
      </trkpt>
      <trkpt lat="44.62296" lon="2.98759">
        <ele>1296.96</ele>
        <time>2012-08-10T07:35:17Z</time>
      </trkpt>
      <trkpt lat="44.62297" lon="2.98759">
        <ele>1295.99</ele>
        <time>2012-08-10T07:35:47Z</time>
      </trkpt>
      <trkpt lat="44.62298" lon="2.98759">
        <ele>1296.96</ele>
        <time>2012-08-10T07:36:23Z</time>
      </trkpt>
      <trkpt lat="44.62299" lon="2.98759">
        <ele>1296.48</ele>
        <time>2012-08-10T07:36:48Z</time>
      </trkpt>
      <trkpt lat="44.62299" lon="2.98759">
        <ele>1296.48</ele>
        <time>2012-08-10T07:37:19Z</time>
      </trkpt>
      <trkpt lat="44.62298" lon="2.98759">
        <ele>1297.44</ele>
        <time>2012-08-10T07:37:46Z</time>
      </trkpt>
      <trkpt lat="44.62298" lon="2.9876">
        <ele>1297.92</ele>
        <time>2012-08-10T07:38:15Z</time>
      </trkpt>
      <trkpt lat="44.62298" lon="2.9876">
        <ele>1297.44</ele>
        <time>2012-08-10T07:38:46Z</time>
      </trkpt>
      <trkpt lat="44.62298" lon="2.9876">
        <ele>1297.92</ele>
        <time>2012-08-10T07:39:11Z</time>
      </trkpt>
      <trkpt lat="44.62298" lon="2.98759">
        <ele>1297.92</ele>
        <time>2012-08-10T07:39:45Z</time>
      </trkpt>
      <trkpt lat="44.62298" lon="2.98759">
        <ele>1298.4</ele>
        <time>2012-08-10T07:40:18Z</time>
      </trkpt>
      <trkpt lat="44.62299" lon="2.98757">
        <ele>1298.88</ele>
        <time>2012-08-10T07:40:31Z</time>
      </trkpt>
      <trkpt lat="44.623" lon="2.98757">
        <ele>1298.88</ele>
        <time>2012-08-10T07:40:32Z</time>
      </trkpt>
      <trkpt lat="44.62301" lon="2.98757">
        <ele>1298.88</ele>
        <time>2012-08-10T07:40:33Z</time>
      </trkpt>
      <trkpt lat="44.62303" lon="2.98756">
        <ele>1298.88</ele>
        <time>2012-08-10T07:40:34Z</time>
      </trkpt>
      <trkpt lat="44.62303" lon="2.98755">
        <ele>1298.4</ele>
        <time>2012-08-10T07:40:35Z</time>
      </trkpt>
      <trkpt lat="44.62304" lon="2.98754">
        <ele>1298.4</ele>
        <time>2012-08-10T07:40:36Z</time>
      </trkpt>
      <trkpt lat="44.62305" lon="2.98752">
        <ele>1298.4</ele>
        <time>2012-08-10T07:40:37Z</time>
      </trkpt>
      <trkpt lat="44.62305" lon="2.98751">
        <ele>1298.4</ele>
        <time>2012-08-10T07:40:38Z</time>
      </trkpt>
      <trkpt lat="44.62305" lon="2.98749">
        <ele>1298.4</ele>
        <time>2012-08-10T07:40:39Z</time>
      </trkpt>
      <trkpt lat="44.62305" lon="2.98748">
        <ele>1298.88</ele>
        <time>2012-08-10T07:40:40Z</time>
      </trkpt>
      <trkpt lat="44.62291" lon="2.9873">
        <ele>1301.28</ele>
        <time>2012-08-10T07:40:57Z</time>
      </trkpt>
      <trkpt lat="44.62289" lon="2.98727">
        <ele>1301.28</ele>
        <time>2012-08-10T07:40:59Z</time>
      </trkpt>
      <trkpt lat="44.62287" lon="2.98724">
        <ele>1302.24</ele>
        <time>2012-08-10T07:41:02Z</time>
      </trkpt>
      <trkpt lat="44.62286" lon="2.98723">
        <ele>1302.24</ele>
        <time>2012-08-10T07:41:03Z</time>
      </trkpt>
      <trkpt lat="44.62285" lon="2.98722">
        <ele>1302.72</ele>
        <time>2012-08-10T07:41:04Z</time>
      </trkpt>
      <trkpt lat="44.62274" lon="2.9871">
        <ele>1307.53</ele>
        <time>2012-08-10T07:41:20Z</time>
      </trkpt>
      <trkpt lat="44.62265" lon="2.98702">
        <ele>1309.45</ele>
        <time>2012-08-10T07:41:34Z</time>
      </trkpt>
      <trkpt lat="44.62258" lon="2.98694">
        <ele>1310.9</ele>
        <time>2012-08-10T07:41:48Z</time>
      </trkpt>
      <trkpt lat="44.62251" lon="2.9869">
        <ele>1312.82</ele>
        <time>2012-08-10T07:42:00Z</time>
      </trkpt>
      <trkpt lat="44.62249" lon="2.9869">
        <ele>1312.82</ele>
        <time>2012-08-10T07:42:01Z</time>
      </trkpt>
      <trkpt lat="44.62214" lon="2.9868">
        <ele>1310.41</ele>
        <time>2012-08-10T07:42:15Z</time>
      </trkpt>
      <trkpt lat="44.6221" lon="2.98677">
        <ele>1309.93</ele>
        <time>2012-08-10T07:42:17Z</time>
      </trkpt>
      <trkpt lat="44.62208" lon="2.98674">
        <ele>1309.93</ele>
        <time>2012-08-10T07:42:18Z</time>
      </trkpt>
      <trkpt lat="44.62206" lon="2.98671">
        <ele>1309.93</ele>
        <time>2012-08-10T07:42:19Z</time>
      </trkpt>
      <trkpt lat="44.62204" lon="2.98668">
        <ele>1309.93</ele>
        <time>2012-08-10T07:42:20Z</time>
      </trkpt>
      <trkpt lat="44.62203" lon="2.98666">
        <ele>1309.93</ele>
        <time>2012-08-10T07:42:21Z</time>
      </trkpt>
      <trkpt lat="44.62201" lon="2.98663">
        <ele>1309.93</ele>
        <time>2012-08-10T07:42:22Z</time>
      </trkpt>
      <trkpt lat="44.62187" lon="2.98642">
        <ele>1310.41</ele>
        <time>2012-08-10T07:42:30Z</time>
      </trkpt>
      <trkpt lat="44.62185" lon="2.98642">
        <ele>1310.41</ele>
        <time>2012-08-10T07:42:31Z</time>
      </trkpt>
      <trkpt lat="44.62184" lon="2.98641">
        <ele>1310.41</ele>
        <time>2012-08-10T07:42:32Z</time>
      </trkpt>
      <trkpt lat="44.62182" lon="2.98641">
        <ele>1310.41</ele>
        <time>2012-08-10T07:42:33Z</time>
      </trkpt>
      <trkpt lat="44.62181" lon="2.98639">
        <ele>1310.9</ele>
        <time>2012-08-10T07:42:34Z</time>
      </trkpt>
      <trkpt lat="44.6218" lon="2.98637">
        <ele>1310.9</ele>
        <time>2012-08-10T07:42:35Z</time>
      </trkpt>
      <trkpt lat="44.62179" lon="2.98635">
        <ele>1310.9</ele>
        <time>2012-08-10T07:42:36Z</time>
      </trkpt>
      <trkpt lat="44.62175" lon="2.98633">
        <ele>1311.38</ele>
        <time>2012-08-10T07:42:41Z</time>
      </trkpt>
      <trkpt lat="44.62174" lon="2.98635">
        <ele>1311.38</ele>
        <time>2012-08-10T07:42:42Z</time>
      </trkpt>
      <trkpt lat="44.62169" lon="2.98643">
        <ele>1310.9</ele>
        <time>2012-08-10T07:42:48Z</time>
      </trkpt>
      <trkpt lat="44.6217" lon="2.98647">
        <ele>1310.9</ele>
        <time>2012-08-10T07:42:50Z</time>
      </trkpt>
      <trkpt lat="44.62171" lon="2.98649">
        <ele>1310.9</ele>
        <time>2012-08-10T07:42:51Z</time>
      </trkpt>
      <trkpt lat="44.62171" lon="2.9865">
        <ele>1310.9</ele>
        <time>2012-08-10T07:42:52Z</time>
      </trkpt>
      <trkpt lat="44.62172" lon="2.98653">
        <ele>1310.9</ele>
        <time>2012-08-10T07:42:53Z</time>
      </trkpt>
      <trkpt lat="44.62172" lon="2.98656">
        <ele>1311.38</ele>
        <time>2012-08-10T07:42:54Z</time>
      </trkpt>
      <trkpt lat="44.62172" lon="2.98659">
        <ele>1310.9</ele>
        <time>2012-08-10T07:42:55Z</time>
      </trkpt>
      <trkpt lat="44.62171" lon="2.98662">
        <ele>1310.9</ele>
        <time>2012-08-10T07:42:56Z</time>
      </trkpt>
      <trkpt lat="44.6217" lon="2.98666">
        <ele>1310.41</ele>
        <time>2012-08-10T07:42:57Z</time>
      </trkpt>
      <trkpt lat="44.62168" lon="2.98669">
        <ele>1309.93</ele>
        <time>2012-08-10T07:42:58Z</time>
      </trkpt>
      <trkpt lat="44.62167" lon="2.98673">
        <ele>1309.93</ele>
        <time>2012-08-10T07:42:59Z</time>
      </trkpt>
      <trkpt lat="44.62165" lon="2.98675">
        <ele>1309.93</ele>
        <time>2012-08-10T07:43:00Z</time>
      </trkpt>
      <trkpt lat="44.62164" lon="2.98678">
        <ele>1309.93</ele>
        <time>2012-08-10T07:43:01Z</time>
      </trkpt>
      <trkpt lat="44.62161" lon="2.9868">
        <ele>1309.93</ele>
        <time>2012-08-10T07:43:02Z</time>
      </trkpt>
      <trkpt lat="44.62156" lon="2.98686">
        <ele>1309.45</ele>
        <time>2012-08-10T07:43:05Z</time>
      </trkpt>
      <trkpt lat="44.62156" lon="2.98692">
        <ele>1308.97</ele>
        <time>2012-08-10T07:43:10Z</time>
      </trkpt>
      <trkpt lat="44.62155" lon="2.98693">
        <ele>1308.97</ele>
        <time>2012-08-10T07:43:11Z</time>
      </trkpt>
      <trkpt lat="44.62154" lon="2.98693">
        <ele>1308.97</ele>
        <time>2012-08-10T07:43:12Z</time>
      </trkpt>
      <trkpt lat="44.62153" lon="2.98691">
        <ele>1308.49</ele>
        <time>2012-08-10T07:43:13Z</time>
      </trkpt>
      <trkpt lat="44.62154" lon="2.98689">
        <ele>1308.97</ele>
        <time>2012-08-10T07:43:14Z</time>
      </trkpt>
      <trkpt lat="44.62155" lon="2.98688">
        <ele>1308.97</ele>
        <time>2012-08-10T07:43:15Z</time>
      </trkpt>
      <trkpt lat="44.62156" lon="2.98687">
        <ele>1308.97</ele>
        <time>2012-08-10T07:43:16Z</time>
      </trkpt>
      <trkpt lat="44.62158" lon="2.98687">
        <ele>1308.97</ele>
        <time>2012-08-10T07:43:17Z</time>
      </trkpt>
      <trkpt lat="44.62176" lon="2.98665">
        <ele>1308.49</ele>
        <time>2012-08-10T07:43:28Z</time>
      </trkpt>
      <trkpt lat="44.62184" lon="2.98633">
        <ele>1310.41</ele>
        <time>2012-08-10T07:43:40Z</time>
      </trkpt>
      <trkpt lat="44.62185" lon="2.98628">
        <ele>1310.41</ele>
        <time>2012-08-10T07:43:42Z</time>
      </trkpt>
      <trkpt lat="44.62184" lon="2.98624">
        <ele>1310.41</ele>
        <time>2012-08-10T07:43:43Z</time>
      </trkpt>
      <trkpt lat="44.62183" lon="2.98621">
        <ele>1310.41</ele>
        <time>2012-08-10T07:43:44Z</time>
      </trkpt>
      <trkpt lat="44.62181" lon="2.98617">
        <ele>1310.9</ele>
        <time>2012-08-10T07:43:45Z</time>
      </trkpt>
      <trkpt lat="44.6218" lon="2.98614">
        <ele>1310.9</ele>
        <time>2012-08-10T07:43:46Z</time>
      </trkpt>
      <trkpt lat="44.62179" lon="2.98611">
        <ele>1311.38</ele>
        <time>2012-08-10T07:43:47Z</time>
      </trkpt>
      <trkpt lat="44.62178" lon="2.98608">
        <ele>1311.38</ele>
        <time>2012-08-10T07:43:48Z</time>
      </trkpt>
      <trkpt lat="44.62177" lon="2.98604">
        <ele>1311.86</ele>
        <time>2012-08-10T07:43:49Z</time>
      </trkpt>
      <trkpt lat="44.62167" lon="2.98556">
        <ele>1314.26</ele>
        <time>2012-08-10T07:44:02Z</time>
      </trkpt>
      <trkpt lat="44.62155" lon="2.98498">
        <ele>1319.07</ele>
        <time>2012-08-10T07:44:17Z</time>
      </trkpt>
      <trkpt lat="44.62141" lon="2.98425">
        <ele>1319.07</ele>
        <time>2012-08-10T07:44:35Z</time>
      </trkpt>
      <trkpt lat="44.62111" lon="2.98373">
        <ele>1320.51</ele>
        <time>2012-08-10T07:44:51Z</time>
      </trkpt>
      <trkpt lat="44.62083" lon="2.98304">
        <ele>1323.39</ele>
        <time>2012-08-10T07:45:09Z</time>
      </trkpt>
      <trkpt lat="44.62059" lon="2.98245">
        <ele>1327.24</ele>
        <time>2012-08-10T07:45:25Z</time>
      </trkpt>
      <trkpt lat="44.62011" lon="2.9819">
        <ele>1324.83</ele>
        <time>2012-08-10T07:45:38Z</time>
      </trkpt>
      <trkpt lat="44.61998" lon="2.98172">
        <ele>1324.35</ele>
        <time>2012-08-10T07:45:41Z</time>
      </trkpt>
      <trkpt lat="44.61994" lon="2.98166">
        <ele>1324.35</ele>
        <time>2012-08-10T07:45:42Z</time>
      </trkpt>
      <trkpt lat="44.61983" lon="2.98143">
        <ele>1323.87</ele>
        <time>2012-08-10T07:45:45Z</time>
      </trkpt>
      <trkpt lat="44.61981" lon="2.98134">
        <ele>1323.87</ele>
        <time>2012-08-10T07:45:46Z</time>
      </trkpt>
      <trkpt lat="44.61951" lon="2.98014">
        <ele>1321.47</ele>
        <time>2012-08-10T07:46:01Z</time>
      </trkpt>
      <trkpt lat="44.61927" lon="2.97912">
        <ele>1317.62</ele>
        <time>2012-08-10T07:46:14Z</time>
      </trkpt>
      <trkpt lat="44.61914" lon="2.97888">
        <ele>1317.62</ele>
        <time>2012-08-10T07:46:24Z</time>
      </trkpt>
      <trkpt lat="44.61915" lon="2.97889">
        <ele>1315.22</ele>
        <time>2012-08-10T07:46:46Z</time>
      </trkpt>
      <trkpt lat="44.61914" lon="2.97888">
        <ele>1314.26</ele>
        <time>2012-08-10T07:47:12Z</time>
      </trkpt>
      <trkpt lat="44.61914" lon="2.97887">
        <ele>1314.26</ele>
        <time>2012-08-10T07:47:41Z</time>
      </trkpt>
      <trkpt lat="44.61915" lon="2.97888">
        <ele>1313.78</ele>
        <time>2012-08-10T07:48:11Z</time>
      </trkpt>
      <trkpt lat="44.61915" lon="2.97888">
        <ele>1313.3</ele>
        <time>2012-08-10T07:48:34Z</time>
      </trkpt>
      <trkpt lat="44.61916" lon="2.97888">
        <ele>1312.82</ele>
        <time>2012-08-10T07:49:02Z</time>
      </trkpt>
      <trkpt lat="44.61916" lon="2.97887">
        <ele>1312.82</ele>
        <time>2012-08-10T07:49:03Z</time>
      </trkpt>
      <trkpt lat="44.61916" lon="2.97885">
        <ele>1312.82</ele>
        <time>2012-08-10T07:49:04Z</time>
      </trkpt>
      <trkpt lat="44.61917" lon="2.97884">
        <ele>1312.34</ele>
        <time>2012-08-10T07:49:05Z</time>
      </trkpt>
      <trkpt lat="44.61909" lon="2.97854">
        <ele>1309.45</ele>
        <time>2012-08-10T07:49:13Z</time>
      </trkpt>
      <trkpt lat="44.61908" lon="2.97849">
        <ele>1308.49</ele>
        <time>2012-08-10T07:49:14Z</time>
      </trkpt>
      <trkpt lat="44.61907" lon="2.97843">
        <ele>1308.01</ele>
        <time>2012-08-10T07:49:15Z</time>
      </trkpt>
      <trkpt lat="44.61905" lon="2.97836">
        <ele>1307.05</ele>
        <time>2012-08-10T07:49:16Z</time>
      </trkpt>
      <trkpt lat="44.61903" lon="2.9783">
        <ele>1307.05</ele>
        <time>2012-08-10T07:49:17Z</time>
      </trkpt>
      <trkpt lat="44.619" lon="2.97824">
        <ele>1306.57</ele>
        <time>2012-08-10T07:49:18Z</time>
      </trkpt>
      <trkpt lat="44.61898" lon="2.97818">
        <ele>1306.09</ele>
        <time>2012-08-10T07:49:19Z</time>
      </trkpt>
      <trkpt lat="44.61896" lon="2.97813">
        <ele>1306.09</ele>
        <time>2012-08-10T07:49:20Z</time>
      </trkpt>
      <trkpt lat="44.61893" lon="2.97805">
        <ele>1305.61</ele>
        <time>2012-08-10T07:49:22Z</time>
      </trkpt>
      <trkpt lat="44.61892" lon="2.97801">
        <ele>1305.61</ele>
        <time>2012-08-10T07:49:23Z</time>
      </trkpt>
      <trkpt lat="44.61892" lon="2.97797">
        <ele>1305.61</ele>
        <time>2012-08-10T07:49:24Z</time>
      </trkpt>
      <trkpt lat="44.6189" lon="2.97794">
        <ele>1305.61</ele>
        <time>2012-08-10T07:49:25Z</time>
      </trkpt>
      <trkpt lat="44.61889" lon="2.9779">
        <ele>1305.13</ele>
        <time>2012-08-10T07:49:26Z</time>
      </trkpt>
      <trkpt lat="44.61889" lon="2.97787">
        <ele>1305.13</ele>
        <time>2012-08-10T07:49:27Z</time>
      </trkpt>
      <trkpt lat="44.61887" lon="2.97783">
        <ele>1305.61</ele>
        <time>2012-08-10T07:49:28Z</time>
      </trkpt>
      <trkpt lat="44.61881" lon="2.97757">
        <ele>1305.13</ele>
        <time>2012-08-10T07:49:39Z</time>
      </trkpt>
      <trkpt lat="44.61879" lon="2.97755">
        <ele>1304.17</ele>
        <time>2012-08-10T07:49:54Z</time>
      </trkpt>
      <trkpt lat="44.61876" lon="2.97753">
        <ele>1304.65</ele>
        <time>2012-08-10T07:50:04Z</time>
      </trkpt>
      <trkpt lat="44.61875" lon="2.97743">
        <ele>1302.72</ele>
        <time>2012-08-10T07:50:16Z</time>
      </trkpt>
      <trkpt lat="44.61871" lon="2.97732">
        <ele>1301.76</ele>
        <time>2012-08-10T07:50:29Z</time>
      </trkpt>
      <trkpt lat="44.61871" lon="2.97727">
        <ele>1300.8</ele>
        <time>2012-08-10T07:50:36Z</time>
      </trkpt>
      <trkpt lat="44.6187" lon="2.97723">
        <ele>1300.8</ele>
        <time>2012-08-10T07:50:37Z</time>
      </trkpt>
      <trkpt lat="44.61868" lon="2.97713">
        <ele>1300.32</ele>
        <time>2012-08-10T07:50:39Z</time>
      </trkpt>
      <trkpt lat="44.61866" lon="2.97709">
        <ele>1299.84</ele>
        <time>2012-08-10T07:50:40Z</time>
      </trkpt>
      <trkpt lat="44.61865" lon="2.97705">
        <ele>1299.36</ele>
        <time>2012-08-10T07:50:41Z</time>
      </trkpt>
      <trkpt lat="44.61863" lon="2.97701">
        <ele>1299.36</ele>
        <time>2012-08-10T07:50:42Z</time>
      </trkpt>
      <trkpt lat="44.61861" lon="2.97698">
        <ele>1298.88</ele>
        <time>2012-08-10T07:50:43Z</time>
      </trkpt>
      <trkpt lat="44.61861" lon="2.97695">
        <ele>1298.88</ele>
        <time>2012-08-10T07:50:44Z</time>
      </trkpt>
      <trkpt lat="44.61861" lon="2.97693">
        <ele>1298.88</ele>
        <time>2012-08-10T07:50:45Z</time>
      </trkpt>
      <trkpt lat="44.6186" lon="2.97691">
        <ele>1298.4</ele>
        <time>2012-08-10T07:50:46Z</time>
      </trkpt>
      <trkpt lat="44.6186" lon="2.97689">
        <ele>1298.4</ele>
        <time>2012-08-10T07:50:47Z</time>
      </trkpt>
      <trkpt lat="44.61859" lon="2.97686">
        <ele>1297.44</ele>
        <time>2012-08-10T07:50:48Z</time>
      </trkpt>
      <trkpt lat="44.61858" lon="2.97682">
        <ele>1296.96</ele>
        <time>2012-08-10T07:50:49Z</time>
      </trkpt>
      <trkpt lat="44.61857" lon="2.97679">
        <ele>1296.96</ele>
        <time>2012-08-10T07:50:50Z</time>
      </trkpt>
      <trkpt lat="44.61856" lon="2.97676">
        <ele>1296.48</ele>
        <time>2012-08-10T07:50:51Z</time>
      </trkpt>
      <trkpt lat="44.61855" lon="2.97672">
        <ele>1296.48</ele>
        <time>2012-08-10T07:50:52Z</time>
      </trkpt>
      <trkpt lat="44.61855" lon="2.97669">
        <ele>1296.48</ele>
        <time>2012-08-10T07:50:53Z</time>
      </trkpt>
      <trkpt lat="44.61839" lon="2.97625">
        <ele>1295.99</ele>
        <time>2012-08-10T07:51:04Z</time>
      </trkpt>
      <trkpt lat="44.61821" lon="2.9758">
        <ele>1294.55</ele>
        <time>2012-08-10T07:51:14Z</time>
      </trkpt>
      <trkpt lat="44.61802" lon="2.9753">
        <ele>1294.07</ele>
        <time>2012-08-10T07:51:25Z</time>
      </trkpt>
      <trkpt lat="44.61781" lon="2.97507">
        <ele>1292.63</ele>
        <time>2012-08-10T07:51:35Z</time>
      </trkpt>
      <trkpt lat="44.61772" lon="2.97492">
        <ele>1289.75</ele>
        <time>2012-08-10T07:51:42Z</time>
      </trkpt>
      <trkpt lat="44.61772" lon="2.9749">
        <ele>1289.75</ele>
        <time>2012-08-10T07:51:43Z</time>
      </trkpt>
      <trkpt lat="44.61773" lon="2.97488">
        <ele>1289.27</ele>
        <time>2012-08-10T07:51:44Z</time>
      </trkpt>
      <trkpt lat="44.61773" lon="2.97486">
        <ele>1289.27</ele>
        <time>2012-08-10T07:51:45Z</time>
      </trkpt>
      <trkpt lat="44.61773" lon="2.97484">
        <ele>1288.78</ele>
        <time>2012-08-10T07:51:46Z</time>
      </trkpt>
      <trkpt lat="44.61773" lon="2.97481">
        <ele>1288.78</ele>
        <time>2012-08-10T07:51:47Z</time>
      </trkpt>
      <trkpt lat="44.61773" lon="2.97479">
        <ele>1288.78</ele>
        <time>2012-08-10T07:51:48Z</time>
      </trkpt>
      <trkpt lat="44.61772" lon="2.97476">
        <ele>1288.78</ele>
        <time>2012-08-10T07:51:49Z</time>
      </trkpt>
      <trkpt lat="44.61773" lon="2.97474">
        <ele>1288.3</ele>
        <time>2012-08-10T07:51:50Z</time>
      </trkpt>
      <trkpt lat="44.61773" lon="2.97471">
        <ele>1288.3</ele>
        <time>2012-08-10T07:51:51Z</time>
      </trkpt>
      <trkpt lat="44.61773" lon="2.97468">
        <ele>1287.82</ele>
        <time>2012-08-10T07:51:52Z</time>
      </trkpt>
      <trkpt lat="44.61774" lon="2.97466">
        <ele>1287.34</ele>
        <time>2012-08-10T07:51:53Z</time>
      </trkpt>
      <trkpt lat="44.61775" lon="2.97464">
        <ele>1287.34</ele>
        <time>2012-08-10T07:51:54Z</time>
      </trkpt>
      <trkpt lat="44.61775" lon="2.97462">
        <ele>1286.86</ele>
        <time>2012-08-10T07:51:55Z</time>
      </trkpt>
      <trkpt lat="44.61775" lon="2.97458">
        <ele>1286.86</ele>
        <time>2012-08-10T07:52:03Z</time>
      </trkpt>
      <trkpt lat="44.61779" lon="2.97453">
        <ele>1285.9</ele>
        <time>2012-08-10T07:52:08Z</time>
      </trkpt>
      <trkpt lat="44.61779" lon="2.97451">
        <ele>1286.38</ele>
        <time>2012-08-10T07:52:09Z</time>
      </trkpt>
      <trkpt lat="44.61779" lon="2.97449">
        <ele>1285.9</ele>
        <time>2012-08-10T07:52:10Z</time>
      </trkpt>
      <trkpt lat="44.6178" lon="2.97444">
        <ele>1285.9</ele>
        <time>2012-08-10T07:52:12Z</time>
      </trkpt>
      <trkpt lat="44.61779" lon="2.9744">
        <ele>1284.94</ele>
        <time>2012-08-10T07:52:14Z</time>
      </trkpt>
      <trkpt lat="44.61781" lon="2.97432">
        <ele>1282.54</ele>
        <time>2012-08-10T07:52:19Z</time>
      </trkpt>
      <trkpt lat="44.61785" lon="2.97428">
        <ele>1280.61</ele>
        <time>2012-08-10T07:52:25Z</time>
      </trkpt>
      <trkpt lat="44.61786" lon="2.97426">
        <ele>1279.65</ele>
        <time>2012-08-10T07:52:26Z</time>
      </trkpt>
      <trkpt lat="44.61788" lon="2.97423">
        <ele>1279.17</ele>
        <time>2012-08-10T07:52:27Z</time>
      </trkpt>
      <trkpt lat="44.6179" lon="2.97421">
        <ele>1278.69</ele>
        <time>2012-08-10T07:52:28Z</time>
      </trkpt>
      <trkpt lat="44.61792" lon="2.97418">
        <ele>1278.21</ele>
        <time>2012-08-10T07:52:29Z</time>
      </trkpt>
      <trkpt lat="44.61794" lon="2.97414">
        <ele>1277.73</ele>
        <time>2012-08-10T07:52:30Z</time>
      </trkpt>
      <trkpt lat="44.61795" lon="2.9741">
        <ele>1277.73</ele>
        <time>2012-08-10T07:52:31Z</time>
      </trkpt>
      <trkpt lat="44.61802" lon="2.97396">
        <ele>1276.77</ele>
        <time>2012-08-10T07:52:36Z</time>
      </trkpt>
      <trkpt lat="44.61802" lon="2.97393">
        <ele>1276.77</ele>
        <time>2012-08-10T07:52:37Z</time>
      </trkpt>
      <trkpt lat="44.61804" lon="2.97391">
        <ele>1276.29</ele>
        <time>2012-08-10T07:52:38Z</time>
      </trkpt>
      <trkpt lat="44.61805" lon="2.97388">
        <ele>1275.81</ele>
        <time>2012-08-10T07:52:39Z</time>
      </trkpt>
      <trkpt lat="44.61807" lon="2.97385">
        <ele>1275.33</ele>
        <time>2012-08-10T07:52:40Z</time>
      </trkpt>
      <trkpt lat="44.61815" lon="2.97361">
        <ele>1272.44</ele>
        <time>2012-08-10T07:52:48Z</time>
      </trkpt>
      <trkpt lat="44.61816" lon="2.97359">
        <ele>1271.96</ele>
        <time>2012-08-10T07:52:49Z</time>
      </trkpt>
      <trkpt lat="44.61817" lon="2.97356">
        <ele>1271.48</ele>
        <time>2012-08-10T07:52:50Z</time>
      </trkpt>
      <trkpt lat="44.61819" lon="2.97352">
        <ele>1270.52</ele>
        <time>2012-08-10T07:52:51Z</time>
      </trkpt>
      <trkpt lat="44.61821" lon="2.97348">
        <ele>1270.04</ele>
        <time>2012-08-10T07:52:52Z</time>
      </trkpt>
      <trkpt lat="44.61836" lon="2.97305">
        <ele>1265.23</ele>
        <time>2012-08-10T07:53:02Z</time>
      </trkpt>
      <trkpt lat="44.6185" lon="2.97279">
        <ele>1260.91</ele>
        <time>2012-08-10T07:53:10Z</time>
      </trkpt>
      <trkpt lat="44.61852" lon="2.97275">
        <ele>1260.43</ele>
        <time>2012-08-10T07:53:11Z</time>
      </trkpt>
      <trkpt lat="44.61854" lon="2.97271">
        <ele>1259.46</ele>
        <time>2012-08-10T07:53:12Z</time>
      </trkpt>
      <trkpt lat="44.61855" lon="2.97266">
        <ele>1258.98</ele>
        <time>2012-08-10T07:53:13Z</time>
      </trkpt>
      <trkpt lat="44.61855" lon="2.97262">
        <ele>1258.5</ele>
        <time>2012-08-10T07:53:14Z</time>
      </trkpt>
      <trkpt lat="44.61855" lon="2.97258">
        <ele>1258.02</ele>
        <time>2012-08-10T07:53:15Z</time>
      </trkpt>
      <trkpt lat="44.61856" lon="2.97255">
        <ele>1257.54</ele>
        <time>2012-08-10T07:53:16Z</time>
      </trkpt>
      <trkpt lat="44.61857" lon="2.97252">
        <ele>1257.54</ele>
        <time>2012-08-10T07:53:17Z</time>
      </trkpt>
      <trkpt lat="44.61858" lon="2.97248">
        <ele>1257.54</ele>
        <time>2012-08-10T07:53:18Z</time>
      </trkpt>
      <trkpt lat="44.61858" lon="2.97244">
        <ele>1257.54</ele>
        <time>2012-08-10T07:53:19Z</time>
      </trkpt>
      <trkpt lat="44.61858" lon="2.97238">
        <ele>1257.54</ele>
        <time>2012-08-10T07:53:20Z</time>
      </trkpt>
      <trkpt lat="44.61857" lon="2.97234">
        <ele>1258.02</ele>
        <time>2012-08-10T07:53:21Z</time>
      </trkpt>
      <trkpt lat="44.61857" lon="2.9723">
        <ele>1258.02</ele>
        <time>2012-08-10T07:53:22Z</time>
      </trkpt>
      <trkpt lat="44.61847" lon="2.97208">
        <ele>1258.5</ele>
        <time>2012-08-10T07:53:27Z</time>
      </trkpt>
      <trkpt lat="44.61844" lon="2.97203">
        <ele>1258.5</ele>
        <time>2012-08-10T07:53:28Z</time>
      </trkpt>
      <trkpt lat="44.61841" lon="2.97198">
        <ele>1258.98</ele>
        <time>2012-08-10T07:53:29Z</time>
      </trkpt>
      <trkpt lat="44.61829" lon="2.97167">
        <ele>1259.94</ele>
        <time>2012-08-10T07:53:38Z</time>
      </trkpt>
      <trkpt lat="44.61828" lon="2.97165">
        <ele>1260.43</ele>
        <time>2012-08-10T07:53:39Z</time>
      </trkpt>
      <trkpt lat="44.61827" lon="2.97162">
        <ele>1260.91</ele>
        <time>2012-08-10T07:53:41Z</time>
      </trkpt>
      <trkpt lat="44.61827" lon="2.97158">
        <ele>1260.91</ele>
        <time>2012-08-10T07:53:43Z</time>
      </trkpt>
      <trkpt lat="44.61826" lon="2.97149">
        <ele>1260.91</ele>
        <time>2012-08-10T07:53:48Z</time>
      </trkpt>
      <trkpt lat="44.61825" lon="2.97147">
        <ele>1260.91</ele>
        <time>2012-08-10T07:53:49Z</time>
      </trkpt>
      <trkpt lat="44.61824" lon="2.97144">
        <ele>1261.39</ele>
        <time>2012-08-10T07:53:50Z</time>
      </trkpt>
      <trkpt lat="44.61823" lon="2.97141">
        <ele>1261.39</ele>
        <time>2012-08-10T07:53:51Z</time>
      </trkpt>
      <trkpt lat="44.61823" lon="2.97137">
        <ele>1261.87</ele>
        <time>2012-08-10T07:53:52Z</time>
      </trkpt>
      <trkpt lat="44.6182" lon="2.97097">
        <ele>1261.39</ele>
        <time>2012-08-10T07:54:02Z</time>
      </trkpt>
      <trkpt lat="44.61808" lon="2.97045">
        <ele>1258.02</ele>
        <time>2012-08-10T07:54:13Z</time>
      </trkpt>
      <trkpt lat="44.61803" lon="2.97008">
        <ele>1254.66</ele>
        <time>2012-08-10T07:54:24Z</time>
      </trkpt>
      <trkpt lat="44.61801" lon="2.96999">
        <ele>1253.22</ele>
        <time>2012-08-10T07:54:27Z</time>
      </trkpt>
      <trkpt lat="44.618" lon="2.96996">
        <ele>1253.22</ele>
        <time>2012-08-10T07:54:28Z</time>
      </trkpt>
      <trkpt lat="44.61799" lon="2.96991">
        <ele>1252.74</ele>
        <time>2012-08-10T07:54:29Z</time>
      </trkpt>
      <trkpt lat="44.61798" lon="2.96986">
        <ele>1252.25</ele>
        <time>2012-08-10T07:54:30Z</time>
      </trkpt>
      <trkpt lat="44.61797" lon="2.96981">
        <ele>1251.77</ele>
        <time>2012-08-10T07:54:31Z</time>
      </trkpt>
      <trkpt lat="44.61785" lon="2.96948">
        <ele>1246.49</ele>
        <time>2012-08-10T07:54:40Z</time>
      </trkpt>
      <trkpt lat="44.61782" lon="2.96941">
        <ele>1245.53</ele>
        <time>2012-08-10T07:54:42Z</time>
      </trkpt>
      <trkpt lat="44.61781" lon="2.96937">
        <ele>1245.04</ele>
        <time>2012-08-10T07:54:43Z</time>
      </trkpt>
      <trkpt lat="44.6178" lon="2.96933">
        <ele>1244.56</ele>
        <time>2012-08-10T07:54:44Z</time>
      </trkpt>
      <trkpt lat="44.61779" lon="2.9693">
        <ele>1244.08</ele>
        <time>2012-08-10T07:54:45Z</time>
      </trkpt>
      <trkpt lat="44.61778" lon="2.96926">
        <ele>1243.6</ele>
        <time>2012-08-10T07:54:46Z</time>
      </trkpt>
      <trkpt lat="44.61777" lon="2.96922">
        <ele>1243.6</ele>
        <time>2012-08-10T07:54:47Z</time>
      </trkpt>
      <trkpt lat="44.61776" lon="2.96917">
        <ele>1242.64</ele>
        <time>2012-08-10T07:54:48Z</time>
      </trkpt>
      <trkpt lat="44.61774" lon="2.96902">
        <ele>1241.2</ele>
        <time>2012-08-10T07:54:52Z</time>
      </trkpt>
      <trkpt lat="44.61774" lon="2.96898">
        <ele>1240.72</ele>
        <time>2012-08-10T07:54:53Z</time>
      </trkpt>
      <trkpt lat="44.61775" lon="2.96894">
        <ele>1240.24</ele>
        <time>2012-08-10T07:54:54Z</time>
      </trkpt>
      <trkpt lat="44.61777" lon="2.96887">
        <ele>1239.28</ele>
        <time>2012-08-10T07:54:56Z</time>
      </trkpt>
      <trkpt lat="44.61774" lon="2.96865">
        <ele>1238.8</ele>
        <time>2012-08-10T07:55:07Z</time>
      </trkpt>
      <trkpt lat="44.61769" lon="2.96857">
        <ele>1238.32</ele>
        <time>2012-08-10T07:55:12Z</time>
      </trkpt>
      <trkpt lat="44.61766" lon="2.96855">
        <ele>1238.8</ele>
        <time>2012-08-10T07:55:13Z</time>
      </trkpt>
      <trkpt lat="44.61758" lon="2.96851">
        <ele>1238.8</ele>
        <time>2012-08-10T07:55:16Z</time>
      </trkpt>
      <trkpt lat="44.61757" lon="2.96849">
        <ele>1239.28</ele>
        <time>2012-08-10T07:55:17Z</time>
      </trkpt>
      <trkpt lat="44.61754" lon="2.96847">
        <ele>1239.28</ele>
        <time>2012-08-10T07:55:18Z</time>
      </trkpt>
      <trkpt lat="44.61752" lon="2.96846">
        <ele>1239.76</ele>
        <time>2012-08-10T07:55:19Z</time>
      </trkpt>
      <trkpt lat="44.6175" lon="2.96844">
        <ele>1239.76</ele>
        <time>2012-08-10T07:55:20Z</time>
      </trkpt>
      <trkpt lat="44.61712" lon="2.96808">
        <ele>1242.16</ele>
        <time>2012-08-10T07:55:35Z</time>
      </trkpt>
      <trkpt lat="44.61699" lon="2.968">
        <ele>1241.2</ele>
        <time>2012-08-10T07:55:44Z</time>
      </trkpt>
      <trkpt lat="44.61677" lon="2.96784">
        <ele>1239.76</ele>
        <time>2012-08-10T07:55:53Z</time>
      </trkpt>
      <trkpt lat="44.61668" lon="2.96776">
        <ele>1238.8</ele>
        <time>2012-08-10T07:55:56Z</time>
      </trkpt>
      <trkpt lat="44.61666" lon="2.96773">
        <ele>1238.32</ele>
        <time>2012-08-10T07:55:57Z</time>
      </trkpt>
      <trkpt lat="44.61664" lon="2.96772">
        <ele>1238.32</ele>
        <time>2012-08-10T07:55:58Z</time>
      </trkpt>
      <trkpt lat="44.61662" lon="2.9677">
        <ele>1238.32</ele>
        <time>2012-08-10T07:55:59Z</time>
      </trkpt>
      <trkpt lat="44.6166" lon="2.96769">
        <ele>1237.83</ele>
        <time>2012-08-10T07:56:00Z</time>
      </trkpt>
      <trkpt lat="44.61658" lon="2.96767">
        <ele>1237.83</ele>
        <time>2012-08-10T07:56:01Z</time>
      </trkpt>
      <trkpt lat="44.61656" lon="2.96765">
        <ele>1237.83</ele>
        <time>2012-08-10T07:56:02Z</time>
      </trkpt>
      <trkpt lat="44.61654" lon="2.96764">
        <ele>1237.83</ele>
        <time>2012-08-10T07:56:03Z</time>
      </trkpt>
      <trkpt lat="44.61632" lon="2.96742">
        <ele>1236.39</ele>
        <time>2012-08-10T07:56:14Z</time>
      </trkpt>
      <trkpt lat="44.6163" lon="2.9674">
        <ele>1235.91</ele>
        <time>2012-08-10T07:56:15Z</time>
      </trkpt>
      <trkpt lat="44.61627" lon="2.96738">
        <ele>1235.43</ele>
        <time>2012-08-10T07:56:16Z</time>
      </trkpt>
      <trkpt lat="44.61625" lon="2.96736">
        <ele>1234.95</ele>
        <time>2012-08-10T07:56:17Z</time>
      </trkpt>
      <trkpt lat="44.61623" lon="2.96733">
        <ele>1234.95</ele>
        <time>2012-08-10T07:56:18Z</time>
      </trkpt>
      <trkpt lat="44.61621" lon="2.9673">
        <ele>1234.47</ele>
        <time>2012-08-10T07:56:19Z</time>
      </trkpt>
      <trkpt lat="44.61618" lon="2.96727">
        <ele>1234.47</ele>
        <time>2012-08-10T07:56:20Z</time>
      </trkpt>
      <trkpt lat="44.61596" lon="2.96703">
        <ele>1232.55</ele>
        <time>2012-08-10T07:56:30Z</time>
      </trkpt>
      <trkpt lat="44.61583" lon="2.96687">
        <ele>1232.07</ele>
        <time>2012-08-10T07:56:37Z</time>
      </trkpt>
      <trkpt lat="44.6158" lon="2.96686">
        <ele>1232.07</ele>
        <time>2012-08-10T07:56:38Z</time>
      </trkpt>
      <trkpt lat="44.61555" lon="2.96671">
        <ele>1228.22</ele>
        <time>2012-08-10T07:56:49Z</time>
      </trkpt>
      <trkpt lat="44.61541" lon="2.96657">
        <ele>1223.42</ele>
        <time>2012-08-10T07:56:59Z</time>
      </trkpt>
      <trkpt lat="44.61531" lon="2.96649">
        <ele>1221.01</ele>
        <time>2012-08-10T07:57:05Z</time>
      </trkpt>
      <trkpt lat="44.6153" lon="2.96648">
        <ele>1220.53</ele>
        <time>2012-08-10T07:57:06Z</time>
      </trkpt>
      <trkpt lat="44.61529" lon="2.96646">
        <ele>1220.05</ele>
        <time>2012-08-10T07:57:07Z</time>
      </trkpt>
      <trkpt lat="44.61527" lon="2.96645">
        <ele>1219.57</ele>
        <time>2012-08-10T07:57:08Z</time>
      </trkpt>
      <trkpt lat="44.61525" lon="2.96644">
        <ele>1219.57</ele>
        <time>2012-08-10T07:57:09Z</time>
      </trkpt>
      <trkpt lat="44.61523" lon="2.96642">
        <ele>1219.09</ele>
        <time>2012-08-10T07:57:10Z</time>
      </trkpt>
      <trkpt lat="44.61521" lon="2.96641">
        <ele>1218.61</ele>
        <time>2012-08-10T07:57:11Z</time>
      </trkpt>
      <trkpt lat="44.61519" lon="2.9664">
        <ele>1218.13</ele>
        <time>2012-08-10T07:57:12Z</time>
      </trkpt>
      <trkpt lat="44.61516" lon="2.96639">
        <ele>1217.65</ele>
        <time>2012-08-10T07:57:13Z</time>
      </trkpt>
      <trkpt lat="44.61514" lon="2.96637">
        <ele>1217.17</ele>
        <time>2012-08-10T07:57:14Z</time>
      </trkpt>
      <trkpt lat="44.61511" lon="2.96635">
        <ele>1216.69</ele>
        <time>2012-08-10T07:57:15Z</time>
      </trkpt>
      <trkpt lat="44.6151" lon="2.96634">
        <ele>1216.21</ele>
        <time>2012-08-10T07:57:16Z</time>
      </trkpt>
      <trkpt lat="44.61508" lon="2.96632">
        <ele>1216.21</ele>
        <time>2012-08-10T07:57:17Z</time>
      </trkpt>
      <trkpt lat="44.61506" lon="2.96631">
        <ele>1216.21</ele>
        <time>2012-08-10T07:57:18Z</time>
      </trkpt>
      <trkpt lat="44.61481" lon="2.96612">
        <ele>1214.28</ele>
        <time>2012-08-10T07:57:28Z</time>
      </trkpt>
      <trkpt lat="44.61467" lon="2.96599">
        <ele>1212.84</ele>
        <time>2012-08-10T07:57:34Z</time>
      </trkpt>
      <trkpt lat="44.61465" lon="2.96596">
        <ele>1212.36</ele>
        <time>2012-08-10T07:57:35Z</time>
      </trkpt>
      <trkpt lat="44.61463" lon="2.96594">
        <ele>1212.36</ele>
        <time>2012-08-10T07:57:36Z</time>
      </trkpt>
      <trkpt lat="44.61435" lon="2.96559">
        <ele>1211.88</ele>
        <time>2012-08-10T07:57:47Z</time>
      </trkpt>
      <trkpt lat="44.61409" lon="2.96536">
        <ele>1209.48</ele>
        <time>2012-08-10T07:57:58Z</time>
      </trkpt>
      <trkpt lat="44.61396" lon="2.96531">
        <ele>1209</ele>
        <time>2012-08-10T07:58:05Z</time>
      </trkpt>
      <trkpt lat="44.61394" lon="2.96532">
        <ele>1209</ele>
        <time>2012-08-10T07:58:06Z</time>
      </trkpt>
      <trkpt lat="44.61393" lon="2.96532">
        <ele>1208.51</ele>
        <time>2012-08-10T07:58:07Z</time>
      </trkpt>
      <trkpt lat="44.61391" lon="2.96532">
        <ele>1208.51</ele>
        <time>2012-08-10T07:58:08Z</time>
      </trkpt>
      <trkpt lat="44.61389" lon="2.96532">
        <ele>1208.03</ele>
        <time>2012-08-10T07:58:09Z</time>
      </trkpt>
      <trkpt lat="44.61387" lon="2.96532">
        <ele>1208.03</ele>
        <time>2012-08-10T07:58:10Z</time>
      </trkpt>
      <trkpt lat="44.61349" lon="2.96522">
        <ele>1207.55</ele>
        <time>2012-08-10T07:58:20Z</time>
      </trkpt>
      <trkpt lat="44.61304" lon="2.96507">
        <ele>1206.11</ele>
        <time>2012-08-10T07:58:32Z</time>
      </trkpt>
      <trkpt lat="44.61296" lon="2.96504">
        <ele>1205.15</ele>
        <time>2012-08-10T07:58:36Z</time>
      </trkpt>
      <trkpt lat="44.61294" lon="2.96503">
        <ele>1204.67</ele>
        <time>2012-08-10T07:58:37Z</time>
      </trkpt>
      <trkpt lat="44.61255" lon="2.96492">
        <ele>1202.75</ele>
        <time>2012-08-10T07:58:52Z</time>
      </trkpt>
      <trkpt lat="44.61244" lon="2.96489">
        <ele>1202.27</ele>
        <time>2012-08-10T07:58:56Z</time>
      </trkpt>
      <trkpt lat="44.61242" lon="2.96488">
        <ele>1202.27</ele>
        <time>2012-08-10T07:58:57Z</time>
      </trkpt>
      <trkpt lat="44.61226" lon="2.96484">
        <ele>1200.82</ele>
        <time>2012-08-10T07:59:06Z</time>
      </trkpt>
      <trkpt lat="44.612" lon="2.96476">
        <ele>1201.3</ele>
        <time>2012-08-10T07:59:17Z</time>
      </trkpt>
      <trkpt lat="44.61155" lon="2.96463">
        <ele>1199.86</ele>
        <time>2012-08-10T07:59:30Z</time>
      </trkpt>
      <trkpt lat="44.6112" lon="2.96452">
        <ele>1198.9</ele>
        <time>2012-08-10T07:59:40Z</time>
      </trkpt>
      <trkpt lat="44.61081" lon="2.96439">
        <ele>1198.42</ele>
        <time>2012-08-10T07:59:51Z</time>
      </trkpt>
      <trkpt lat="44.61046" lon="2.96424">
        <ele>1196.98</ele>
        <time>2012-08-10T08:00:02Z</time>
      </trkpt>
      <trkpt lat="44.61028" lon="2.96396">
        <ele>1193.61</ele>
        <time>2012-08-10T08:00:11Z</time>
      </trkpt>
      <trkpt lat="44.61028" lon="2.96393">
        <ele>1193.61</ele>
        <time>2012-08-10T08:00:12Z</time>
      </trkpt>
      <trkpt lat="44.61026" lon="2.96383">
        <ele>1194.09</ele>
        <time>2012-08-10T08:00:15Z</time>
      </trkpt>
      <trkpt lat="44.61021" lon="2.96339">
        <ele>1196.02</ele>
        <time>2012-08-10T08:00:26Z</time>
      </trkpt>
      <trkpt lat="44.61015" lon="2.96296">
        <ele>1195.54</ele>
        <time>2012-08-10T08:00:35Z</time>
      </trkpt>
      <trkpt lat="44.61013" lon="2.9629">
        <ele>1195.06</ele>
        <time>2012-08-10T08:00:36Z</time>
      </trkpt>
      <trkpt lat="44.61012" lon="2.96284">
        <ele>1194.58</ele>
        <time>2012-08-10T08:00:37Z</time>
      </trkpt>
      <trkpt lat="44.6101" lon="2.96277">
        <ele>1194.09</ele>
        <time>2012-08-10T08:00:38Z</time>
      </trkpt>
      <trkpt lat="44.61007" lon="2.96271">
        <ele>1193.61</ele>
        <time>2012-08-10T08:00:39Z</time>
      </trkpt>
      <trkpt lat="44.61003" lon="2.96261">
        <ele>1192.65</ele>
        <time>2012-08-10T08:00:41Z</time>
      </trkpt>
      <trkpt lat="44.60998" lon="2.96244">
        <ele>1192.17</ele>
        <time>2012-08-10T08:00:44Z</time>
      </trkpt>
      <trkpt lat="44.60991" lon="2.96212">
        <ele>1192.17</ele>
        <time>2012-08-10T08:00:50Z</time>
      </trkpt>
      <trkpt lat="44.6099" lon="2.96207">
        <ele>1192.17</ele>
        <time>2012-08-10T08:00:51Z</time>
      </trkpt>
      <trkpt lat="44.60989" lon="2.96202">
        <ele>1192.17</ele>
        <time>2012-08-10T08:00:52Z</time>
      </trkpt>
      <trkpt lat="44.60987" lon="2.96197">
        <ele>1192.17</ele>
        <time>2012-08-10T08:00:53Z</time>
      </trkpt>
      <trkpt lat="44.60986" lon="2.96193">
        <ele>1192.17</ele>
        <time>2012-08-10T08:00:54Z</time>
      </trkpt>
      <trkpt lat="44.60967" lon="2.96123">
        <ele>1194.09</ele>
        <time>2012-08-10T08:01:07Z</time>
      </trkpt>
      <trkpt lat="44.60964" lon="2.96119">
        <ele>1193.61</ele>
        <time>2012-08-10T08:01:08Z</time>
      </trkpt>
      <trkpt lat="44.60961" lon="2.96115">
        <ele>1193.61</ele>
        <time>2012-08-10T08:01:09Z</time>
      </trkpt>
      <trkpt lat="44.60952" lon="2.96103">
        <ele>1193.61</ele>
        <time>2012-08-10T08:01:12Z</time>
      </trkpt>
      <trkpt lat="44.60949" lon="2.961">
        <ele>1193.61</ele>
        <time>2012-08-10T08:01:13Z</time>
      </trkpt>
      <trkpt lat="44.60945" lon="2.96098">
        <ele>1193.61</ele>
        <time>2012-08-10T08:01:14Z</time>
      </trkpt>
      <trkpt lat="44.60942" lon="2.96096">
        <ele>1193.61</ele>
        <time>2012-08-10T08:01:15Z</time>
      </trkpt>
      <trkpt lat="44.60938" lon="2.96094">
        <ele>1193.61</ele>
        <time>2012-08-10T08:01:16Z</time>
      </trkpt>
      <trkpt lat="44.60934" lon="2.96092">
        <ele>1193.61</ele>
        <time>2012-08-10T08:01:17Z</time>
      </trkpt>
      <trkpt lat="44.6089" lon="2.96084">
        <ele>1193.61</ele>
        <time>2012-08-10T08:01:28Z</time>
      </trkpt>
      <trkpt lat="44.60886" lon="2.96083">
        <ele>1193.61</ele>
        <time>2012-08-10T08:01:29Z</time>
      </trkpt>
      <trkpt lat="44.60883" lon="2.96081">
        <ele>1194.09</ele>
        <time>2012-08-10T08:01:30Z</time>
      </trkpt>
      <trkpt lat="44.60879" lon="2.96079">
        <ele>1194.09</ele>
        <time>2012-08-10T08:01:31Z</time>
      </trkpt>
      <trkpt lat="44.60876" lon="2.96076">
        <ele>1194.58</ele>
        <time>2012-08-10T08:01:32Z</time>
      </trkpt>
      <trkpt lat="44.60854" lon="2.96046">
        <ele>1196.98</ele>
        <time>2012-08-10T08:01:45Z</time>
      </trkpt>
      <trkpt lat="44.60841" lon="2.96017">
        <ele>1197.46</ele>
        <time>2012-08-10T08:02:00Z</time>
      </trkpt>
      <trkpt lat="44.60843" lon="2.95974">
        <ele>1199.86</ele>
        <time>2012-08-10T08:02:16Z</time>
      </trkpt>
      <trkpt lat="44.60839" lon="2.95934">
        <ele>1200.34</ele>
        <time>2012-08-10T08:02:30Z</time>
      </trkpt>
      <trkpt lat="44.60824" lon="2.95884">
        <ele>1199.86</ele>
        <time>2012-08-10T08:02:44Z</time>
      </trkpt>
      <trkpt lat="44.60818" lon="2.95872">
        <ele>1197.94</ele>
        <time>2012-08-10T08:02:49Z</time>
      </trkpt>
      <trkpt lat="44.60818" lon="2.9587">
        <ele>1197.94</ele>
        <time>2012-08-10T08:02:50Z</time>
      </trkpt>
      <trkpt lat="44.60818" lon="2.95869">
        <ele>1196.5</ele>
        <time>2012-08-10T08:03:01Z</time>
      </trkpt>
      <trkpt lat="44.60817" lon="2.95867">
        <ele>1196.5</ele>
        <time>2012-08-10T08:03:02Z</time>
      </trkpt>
      <trkpt lat="44.60817" lon="2.95865">
        <ele>1196.02</ele>
        <time>2012-08-10T08:03:03Z</time>
      </trkpt>
      <trkpt lat="44.60815" lon="2.95862">
        <ele>1196.02</ele>
        <time>2012-08-10T08:03:04Z</time>
      </trkpt>
      <trkpt lat="44.60813" lon="2.95859">
        <ele>1195.54</ele>
        <time>2012-08-10T08:03:05Z</time>
      </trkpt>
      <trkpt lat="44.6081" lon="2.95857">
        <ele>1195.54</ele>
        <time>2012-08-10T08:03:06Z</time>
      </trkpt>
      <trkpt lat="44.60782" lon="2.95816">
        <ele>1193.61</ele>
        <time>2012-08-10T08:03:17Z</time>
      </trkpt>
      <trkpt lat="44.6078" lon="2.95811">
        <ele>1193.13</ele>
        <time>2012-08-10T08:03:18Z</time>
      </trkpt>
      <trkpt lat="44.6077" lon="2.95773">
        <ele>1191.21</ele>
        <time>2012-08-10T08:03:25Z</time>
      </trkpt>
      <trkpt lat="44.60768" lon="2.95768">
        <ele>1191.21</ele>
        <time>2012-08-10T08:03:26Z</time>
      </trkpt>
      <trkpt lat="44.60757" lon="2.95751">
        <ele>1189.77</ele>
        <time>2012-08-10T08:03:30Z</time>
      </trkpt>
      <trkpt lat="44.60754" lon="2.95748">
        <ele>1189.29</ele>
        <time>2012-08-10T08:03:31Z</time>
      </trkpt>
      <trkpt lat="44.60746" lon="2.9574">
        <ele>1188.33</ele>
        <time>2012-08-10T08:03:33Z</time>
      </trkpt>
      <trkpt lat="44.60743" lon="2.95738">
        <ele>1187.85</ele>
        <time>2012-08-10T08:03:34Z</time>
      </trkpt>
      <trkpt lat="44.6074" lon="2.95737">
        <ele>1187.37</ele>
        <time>2012-08-10T08:03:35Z</time>
      </trkpt>
      <trkpt lat="44.60738" lon="2.95737">
        <ele>1187.37</ele>
        <time>2012-08-10T08:03:36Z</time>
      </trkpt>
      <trkpt lat="44.60737" lon="2.95737">
        <ele>1186.88</ele>
        <time>2012-08-10T08:03:37Z</time>
      </trkpt>
      <trkpt lat="44.60736" lon="2.95736">
        <ele>1186.88</ele>
        <time>2012-08-10T08:03:38Z</time>
      </trkpt>
      <trkpt lat="44.60734" lon="2.95736">
        <ele>1186.88</ele>
        <time>2012-08-10T08:03:39Z</time>
      </trkpt>
      <trkpt lat="44.60733" lon="2.95735">
        <ele>1186.88</ele>
        <time>2012-08-10T08:03:40Z</time>
      </trkpt>
      <trkpt lat="44.60731" lon="2.95735">
        <ele>1186.88</ele>
        <time>2012-08-10T08:03:41Z</time>
      </trkpt>
      <trkpt lat="44.60729" lon="2.95734">
        <ele>1186.88</ele>
        <time>2012-08-10T08:03:42Z</time>
      </trkpt>
      <trkpt lat="44.60727" lon="2.95733">
        <ele>1186.88</ele>
        <time>2012-08-10T08:03:43Z</time>
      </trkpt>
      <trkpt lat="44.60721" lon="2.9573">
        <ele>1186.88</ele>
        <time>2012-08-10T08:03:47Z</time>
      </trkpt>
      <trkpt lat="44.6072" lon="2.95728">
        <ele>1186.88</ele>
        <time>2012-08-10T08:03:48Z</time>
      </trkpt>
      <trkpt lat="44.60718" lon="2.95728">
        <ele>1186.4</ele>
        <time>2012-08-10T08:03:49Z</time>
      </trkpt>
      <trkpt lat="44.60717" lon="2.95728">
        <ele>1185.92</ele>
        <time>2012-08-10T08:03:50Z</time>
      </trkpt>
      <trkpt lat="44.60715" lon="2.95728">
        <ele>1185.44</ele>
        <time>2012-08-10T08:03:51Z</time>
      </trkpt>
      <trkpt lat="44.60712" lon="2.95727">
        <ele>1184.96</ele>
        <time>2012-08-10T08:03:52Z</time>
      </trkpt>
      <trkpt lat="44.60689" lon="2.95722">
        <ele>1183.04</ele>
        <time>2012-08-10T08:04:00Z</time>
      </trkpt>
      <trkpt lat="44.60672" lon="2.95717">
        <ele>1181.6</ele>
        <time>2012-08-10T08:04:07Z</time>
      </trkpt>
      <trkpt lat="44.60669" lon="2.95716">
        <ele>1181.12</ele>
        <time>2012-08-10T08:04:08Z</time>
      </trkpt>
      <trkpt lat="44.60643" lon="2.95699">
        <ele>1180.16</ele>
        <time>2012-08-10T08:04:19Z</time>
      </trkpt>
      <trkpt lat="44.60635" lon="2.95696">
        <ele>1179.67</ele>
        <time>2012-08-10T08:04:22Z</time>
      </trkpt>
      <trkpt lat="44.60604" lon="2.95673">
        <ele>1175.35</ele>
        <time>2012-08-10T08:04:33Z</time>
      </trkpt>
      <trkpt lat="44.60583" lon="2.95656">
        <ele>1171.98</ele>
        <time>2012-08-10T08:04:42Z</time>
      </trkpt>
      <trkpt lat="44.60581" lon="2.95653">
        <ele>1171.02</ele>
        <time>2012-08-10T08:04:43Z</time>
      </trkpt>
      <trkpt lat="44.60579" lon="2.9565">
        <ele>1171.02</ele>
        <time>2012-08-10T08:04:44Z</time>
      </trkpt>
      <trkpt lat="44.60577" lon="2.95649">
        <ele>1170.54</ele>
        <time>2012-08-10T08:04:45Z</time>
      </trkpt>
      <trkpt lat="44.60575" lon="2.95648">
        <ele>1170.54</ele>
        <time>2012-08-10T08:04:46Z</time>
      </trkpt>
      <trkpt lat="44.60573" lon="2.95647">
        <ele>1170.06</ele>
        <time>2012-08-10T08:04:47Z</time>
      </trkpt>
      <trkpt lat="44.60571" lon="2.95645">
        <ele>1170.06</ele>
        <time>2012-08-10T08:04:48Z</time>
      </trkpt>
      <trkpt lat="44.6057" lon="2.95643">
        <ele>1170.06</ele>
        <time>2012-08-10T08:04:49Z</time>
      </trkpt>
      <trkpt lat="44.60569" lon="2.9564">
        <ele>1170.06</ele>
        <time>2012-08-10T08:04:50Z</time>
      </trkpt>
      <trkpt lat="44.60567" lon="2.95638">
        <ele>1170.06</ele>
        <time>2012-08-10T08:04:51Z</time>
      </trkpt>
      <trkpt lat="44.60566" lon="2.95636">
        <ele>1170.06</ele>
        <time>2012-08-10T08:04:52Z</time>
      </trkpt>
      <trkpt lat="44.60564" lon="2.95633">
        <ele>1170.06</ele>
        <time>2012-08-10T08:04:53Z</time>
      </trkpt>
      <trkpt lat="44.60562" lon="2.95631">
        <ele>1169.58</ele>
        <time>2012-08-10T08:04:54Z</time>
      </trkpt>
      <trkpt lat="44.60546" lon="2.95601">
        <ele>1164.29</ele>
        <time>2012-08-10T08:05:05Z</time>
      </trkpt>
      <trkpt lat="44.60554" lon="2.95571">
        <ele>1160.93</ele>
        <time>2012-08-10T08:05:15Z</time>
      </trkpt>
      <trkpt lat="44.60554" lon="2.95568">
        <ele>1160.93</ele>
        <time>2012-08-10T08:05:16Z</time>
      </trkpt>
      <trkpt lat="44.60553" lon="2.95565">
        <ele>1160.93</ele>
        <time>2012-08-10T08:05:17Z</time>
      </trkpt>
      <trkpt lat="44.6055" lon="2.95542">
        <ele>1160.45</ele>
        <time>2012-08-10T08:05:24Z</time>
      </trkpt>
      <trkpt lat="44.6055" lon="2.95539">
        <ele>1159.97</ele>
        <time>2012-08-10T08:05:25Z</time>
      </trkpt>
      <trkpt lat="44.60549" lon="2.95536">
        <ele>1159.49</ele>
        <time>2012-08-10T08:05:26Z</time>
      </trkpt>
      <trkpt lat="44.60548" lon="2.95534">
        <ele>1159.01</ele>
        <time>2012-08-10T08:05:27Z</time>
      </trkpt>
      <trkpt lat="44.60546" lon="2.95532">
        <ele>1158.53</ele>
        <time>2012-08-10T08:05:28Z</time>
      </trkpt>
      <trkpt lat="44.60544" lon="2.95531">
        <ele>1158.53</ele>
        <time>2012-08-10T08:05:29Z</time>
      </trkpt>
      <trkpt lat="44.60542" lon="2.95531">
        <ele>1157.56</ele>
        <time>2012-08-10T08:05:30Z</time>
      </trkpt>
      <trkpt lat="44.6054" lon="2.9553">
        <ele>1157.08</ele>
        <time>2012-08-10T08:05:31Z</time>
      </trkpt>
      <trkpt lat="44.60538" lon="2.95529">
        <ele>1157.08</ele>
        <time>2012-08-10T08:05:32Z</time>
      </trkpt>
      <trkpt lat="44.60536" lon="2.95528">
        <ele>1156.6</ele>
        <time>2012-08-10T08:05:33Z</time>
      </trkpt>
      <trkpt lat="44.6051" lon="2.95521">
        <ele>1153.24</ele>
        <time>2012-08-10T08:05:43Z</time>
      </trkpt>
      <trkpt lat="44.60482" lon="2.95506">
        <ele>1151.8</ele>
        <time>2012-08-10T08:05:51Z</time>
      </trkpt>
      <trkpt lat="44.60474" lon="2.95502">
        <ele>1151.8</ele>
        <time>2012-08-10T08:05:53Z</time>
      </trkpt>
      <trkpt lat="44.6047" lon="2.95499">
        <ele>1151.32</ele>
        <time>2012-08-10T08:05:54Z</time>
      </trkpt>
      <trkpt lat="44.60465" lon="2.95496">
        <ele>1151.32</ele>
        <time>2012-08-10T08:05:55Z</time>
      </trkpt>
      <trkpt lat="44.60461" lon="2.95494">
        <ele>1151.32</ele>
        <time>2012-08-10T08:05:56Z</time>
      </trkpt>
      <trkpt lat="44.60458" lon="2.95492">
        <ele>1151.32</ele>
        <time>2012-08-10T08:05:57Z</time>
      </trkpt>
      <trkpt lat="44.60455" lon="2.95489">
        <ele>1150.84</ele>
        <time>2012-08-10T08:05:58Z</time>
      </trkpt>
      <trkpt lat="44.60453" lon="2.95485">
        <ele>1150.84</ele>
        <time>2012-08-10T08:05:59Z</time>
      </trkpt>
      <trkpt lat="44.60451" lon="2.95481">
        <ele>1150.35</ele>
        <time>2012-08-10T08:06:00Z</time>
      </trkpt>
      <trkpt lat="44.60449" lon="2.95477">
        <ele>1149.87</ele>
        <time>2012-08-10T08:06:01Z</time>
      </trkpt>
      <trkpt lat="44.60447" lon="2.95474">
        <ele>1149.39</ele>
        <time>2012-08-10T08:06:02Z</time>
      </trkpt>
      <trkpt lat="44.60444" lon="2.95473">
        <ele>1148.91</ele>
        <time>2012-08-10T08:06:03Z</time>
      </trkpt>
      <trkpt lat="44.60442" lon="2.95474">
        <ele>1147.95</ele>
        <time>2012-08-10T08:06:04Z</time>
      </trkpt>
      <trkpt lat="44.60441" lon="2.95474">
        <ele>1147.47</ele>
        <time>2012-08-10T08:06:05Z</time>
      </trkpt>
      <trkpt lat="44.6044" lon="2.95475">
        <ele>1146.99</ele>
        <time>2012-08-10T08:06:06Z</time>
      </trkpt>
      <trkpt lat="44.60439" lon="2.95475">
        <ele>1146.51</ele>
        <time>2012-08-10T08:06:07Z</time>
      </trkpt>
      <trkpt lat="44.60437" lon="2.95475">
        <ele>1145.55</ele>
        <time>2012-08-10T08:06:09Z</time>
      </trkpt>
      <trkpt lat="44.60436" lon="2.95474">
        <ele>1145.07</ele>
        <time>2012-08-10T08:06:11Z</time>
      </trkpt>
      <trkpt lat="44.60436" lon="2.95473">
        <ele>1145.55</ele>
        <time>2012-08-10T08:06:25Z</time>
      </trkpt>
      <trkpt lat="44.60431" lon="2.9547">
        <ele>1146.03</ele>
        <time>2012-08-10T08:06:29Z</time>
      </trkpt>
      <trkpt lat="44.60407" lon="2.95484">
        <ele>1143.14</ele>
        <time>2012-08-10T08:06:39Z</time>
      </trkpt>
      <trkpt lat="44.60405" lon="2.95486">
        <ele>1142.18</ele>
        <time>2012-08-10T08:06:46Z</time>
      </trkpt>
      <trkpt lat="44.604" lon="2.9549">
        <ele>1142.66</ele>
        <time>2012-08-10T08:06:57Z</time>
      </trkpt>
      <trkpt lat="44.60399" lon="2.95491">
        <ele>1142.66</ele>
        <time>2012-08-10T08:07:10Z</time>
      </trkpt>
      <trkpt lat="44.60398" lon="2.95492">
        <ele>1142.18</ele>
        <time>2012-08-10T08:07:26Z</time>
      </trkpt>
      <trkpt lat="44.60397" lon="2.95499">
        <ele>1141.22</ele>
        <time>2012-08-10T08:07:44Z</time>
      </trkpt>
      <trkpt lat="44.60397" lon="2.95507">
        <ele>1139.3</ele>
        <time>2012-08-10T08:07:54Z</time>
      </trkpt>
      <trkpt lat="44.60402" lon="2.95518">
        <ele>1139.78</ele>
        <time>2012-08-10T08:08:07Z</time>
      </trkpt>
      <trkpt lat="44.60406" lon="2.95526">
        <ele>1136.42</ele>
        <time>2012-08-10T08:08:19Z</time>
      </trkpt>
      <trkpt lat="44.60413" lon="2.95535">
        <ele>1133.53</ele>
        <time>2012-08-10T08:08:32Z</time>
      </trkpt>
      <trkpt lat="44.60414" lon="2.95537">
        <ele>1133.53</ele>
        <time>2012-08-10T08:08:34Z</time>
      </trkpt>
      <trkpt lat="44.60421" lon="2.95546">
        <ele>1134.01</ele>
        <time>2012-08-10T08:08:45Z</time>
      </trkpt>
      <trkpt lat="44.60423" lon="2.95553">
        <ele>1133.05</ele>
        <time>2012-08-10T08:08:53Z</time>
      </trkpt>
      <trkpt lat="44.60425" lon="2.95556">
        <ele>1132.57</ele>
        <time>2012-08-10T08:09:09Z</time>
      </trkpt>
      <trkpt lat="44.60425" lon="2.95557">
        <ele>1132.57</ele>
        <time>2012-08-10T08:09:44Z</time>
      </trkpt>
      <trkpt lat="44.60425" lon="2.95556">
        <ele>1132.57</ele>
        <time>2012-08-10T08:10:13Z</time>
      </trkpt>
      <trkpt lat="44.60424" lon="2.95556">
        <ele>1132.57</ele>
        <time>2012-08-10T08:10:38Z</time>
      </trkpt>
      <trkpt lat="44.60424" lon="2.95557">
        <ele>1133.53</ele>
        <time>2012-08-10T08:11:01Z</time>
      </trkpt>
      <trkpt lat="44.60423" lon="2.95558">
        <ele>1132.57</ele>
        <time>2012-08-10T08:11:30Z</time>
      </trkpt>
      <trkpt lat="44.60423" lon="2.95559">
        <ele>1132.09</ele>
        <time>2012-08-10T08:12:08Z</time>
      </trkpt>
      <trkpt lat="44.60423" lon="2.95559">
        <ele>1132.57</ele>
        <time>2012-08-10T08:12:44Z</time>
      </trkpt>
      <trkpt lat="44.60423" lon="2.9556">
        <ele>1133.53</ele>
        <time>2012-08-10T08:13:20Z</time>
      </trkpt>
      <trkpt lat="44.60424" lon="2.95561">
        <ele>1134.01</ele>
        <time>2012-08-10T08:13:56Z</time>
      </trkpt>
      <trkpt lat="44.60423" lon="2.95561">
        <ele>1133.53</ele>
        <time>2012-08-10T08:14:24Z</time>
      </trkpt>
      <trkpt lat="44.60424" lon="2.95562">
        <ele>1133.53</ele>
        <time>2012-08-10T08:14:49Z</time>
      </trkpt>
      <trkpt lat="44.60424" lon="2.95562">
        <ele>1134.01</ele>
        <time>2012-08-10T08:15:21Z</time>
      </trkpt>
      <trkpt lat="44.60424" lon="2.95562">
        <ele>1134.49</ele>
        <time>2012-08-10T08:15:46Z</time>
      </trkpt>
      <trkpt lat="44.60425" lon="2.95562">
        <ele>1134.49</ele>
        <time>2012-08-10T08:16:13Z</time>
      </trkpt>
      <trkpt lat="44.60424" lon="2.95561">
        <ele>1134.49</ele>
        <time>2012-08-10T08:16:44Z</time>
      </trkpt>
      <trkpt lat="44.60423" lon="2.9556">
        <ele>1134.01</ele>
        <time>2012-08-10T08:17:09Z</time>
      </trkpt>
      <trkpt lat="44.60423" lon="2.9556">
        <ele>1134.49</ele>
        <time>2012-08-10T08:17:40Z</time>
      </trkpt>
      <trkpt lat="44.60424" lon="2.95561">
        <ele>1134.97</ele>
        <time>2012-08-10T08:18:07Z</time>
      </trkpt>
      <trkpt lat="44.60424" lon="2.95561">
        <ele>1134.97</ele>
        <time>2012-08-10T08:18:36Z</time>
      </trkpt>
      <trkpt lat="44.60424" lon="2.95561">
        <ele>1136.42</ele>
        <time>2012-08-10T08:19:02Z</time>
      </trkpt>
      <trkpt lat="44.60424" lon="2.9556">
        <ele>1136.9</ele>
        <time>2012-08-10T08:19:32Z</time>
      </trkpt>
      <trkpt lat="44.60424" lon="2.95559">
        <ele>1136.42</ele>
        <time>2012-08-10T08:20:08Z</time>
      </trkpt>
      <trkpt lat="44.60425" lon="2.95559">
        <ele>1135.45</ele>
        <time>2012-08-10T08:20:42Z</time>
      </trkpt>
      <trkpt lat="44.60424" lon="2.95559">
        <ele>1135.45</ele>
        <time>2012-08-10T08:21:12Z</time>
      </trkpt>
      <trkpt lat="44.60423" lon="2.95561">
        <ele>1135.45</ele>
        <time>2012-08-10T08:21:42Z</time>
      </trkpt>
      <trkpt lat="44.60423" lon="2.95561">
        <ele>1135.45</ele>
        <time>2012-08-10T08:21:46Z</time>
      </trkpt>
      <trkpt lat="44.60406" lon="2.95575">
        <ele>1134.01</ele>
        <time>2012-08-10T08:21:58Z</time>
      </trkpt>
      <trkpt lat="44.60403" lon="2.95573">
        <ele>1134.49</ele>
        <time>2012-08-10T08:22:00Z</time>
      </trkpt>
      <trkpt lat="44.6039" lon="2.95566">
        <ele>1131.61</ele>
        <time>2012-08-10T08:22:08Z</time>
      </trkpt>
      <trkpt lat="44.60377" lon="2.9556">
        <ele>1129.21</ele>
        <time>2012-08-10T08:22:19Z</time>
      </trkpt>
      <trkpt lat="44.60372" lon="2.95559">
        <ele>1128.73</ele>
        <time>2012-08-10T08:22:30Z</time>
      </trkpt>
      <trkpt lat="44.60364" lon="2.95556">
        <ele>1127.76</ele>
        <time>2012-08-10T08:22:40Z</time>
      </trkpt>
      <trkpt lat="44.60347" lon="2.95541">
        <ele>1128.24</ele>
        <time>2012-08-10T08:22:51Z</time>
      </trkpt>
      <trkpt lat="44.60333" lon="2.95521">
        <ele>1126.8</ele>
        <time>2012-08-10T08:23:01Z</time>
      </trkpt>
      <trkpt lat="44.60316" lon="2.95475">
        <ele>1125.36</ele>
        <time>2012-08-10T08:23:13Z</time>
      </trkpt>
      <trkpt lat="44.60301" lon="2.9544">
        <ele>1123.92</ele>
        <time>2012-08-10T08:23:21Z</time>
      </trkpt>
      <trkpt lat="44.60294" lon="2.95426">
        <ele>1122.48</ele>
        <time>2012-08-10T08:23:25Z</time>
      </trkpt>
      <trkpt lat="44.60285" lon="2.954">
        <ele>1122</ele>
        <time>2012-08-10T08:23:35Z</time>
      </trkpt>
      <trkpt lat="44.60289" lon="2.95374">
        <ele>1121.52</ele>
        <time>2012-08-10T08:23:48Z</time>
      </trkpt>
      <trkpt lat="44.60284" lon="2.95344">
        <ele>1122.48</ele>
        <time>2012-08-10T08:24:02Z</time>
      </trkpt>
      <trkpt lat="44.60278" lon="2.95319">
        <ele>1121.52</ele>
        <time>2012-08-10T08:24:13Z</time>
      </trkpt>
      <trkpt lat="44.60277" lon="2.95317">
        <ele>1120.55</ele>
        <time>2012-08-10T08:24:17Z</time>
      </trkpt>
      <trkpt lat="44.60275" lon="2.9531">
        <ele>1120.07</ele>
        <time>2012-08-10T08:24:30Z</time>
      </trkpt>
      <trkpt lat="44.60271" lon="2.95297">
        <ele>1118.63</ele>
        <time>2012-08-10T08:24:43Z</time>
      </trkpt>
      <trkpt lat="44.60272" lon="2.9529">
        <ele>1117.19</ele>
        <time>2012-08-10T08:24:50Z</time>
      </trkpt>
      <trkpt lat="44.60271" lon="2.95284">
        <ele>1117.19</ele>
        <time>2012-08-10T08:24:55Z</time>
      </trkpt>
      <trkpt lat="44.60262" lon="2.95273">
        <ele>1114.79</ele>
        <time>2012-08-10T08:25:09Z</time>
      </trkpt>
      <trkpt lat="44.60258" lon="2.95265">
        <ele>1113.34</ele>
        <time>2012-08-10T08:25:20Z</time>
      </trkpt>
      <trkpt lat="44.60252" lon="2.95252">
        <ele>1110.46</ele>
        <time>2012-08-10T08:25:32Z</time>
      </trkpt>
      <trkpt lat="44.6024" lon="2.95247">
        <ele>1107.58</ele>
        <time>2012-08-10T08:25:38Z</time>
      </trkpt>
      <trkpt lat="44.6023" lon="2.95237">
        <ele>1105.17</ele>
        <time>2012-08-10T08:25:44Z</time>
      </trkpt>
      <trkpt lat="44.6023" lon="2.95224">
        <ele>1103.25</ele>
        <time>2012-08-10T08:25:48Z</time>
      </trkpt>
      <trkpt lat="44.60242" lon="2.95202">
        <ele>1099.4</ele>
        <time>2012-08-10T08:25:58Z</time>
      </trkpt>
      <trkpt lat="44.60251" lon="2.95195">
        <ele>1097.96</ele>
        <time>2012-08-10T08:26:02Z</time>
      </trkpt>
      <trkpt lat="44.60244" lon="2.95175">
        <ele>1096.52</ele>
        <time>2012-08-10T08:26:11Z</time>
      </trkpt>
      <trkpt lat="44.60239" lon="2.95176">
        <ele>1096.52</ele>
        <time>2012-08-10T08:26:12Z</time>
      </trkpt>
      <trkpt lat="44.60234" lon="2.95178">
        <ele>1096.52</ele>
        <time>2012-08-10T08:26:13Z</time>
      </trkpt>
      <trkpt lat="44.6023" lon="2.95181">
        <ele>1096.04</ele>
        <time>2012-08-10T08:26:14Z</time>
      </trkpt>
      <trkpt lat="44.60227" lon="2.95184">
        <ele>1096.04</ele>
        <time>2012-08-10T08:26:15Z</time>
      </trkpt>
      <trkpt lat="44.60224" lon="2.95188">
        <ele>1096.04</ele>
        <time>2012-08-10T08:26:16Z</time>
      </trkpt>
      <trkpt lat="44.60222" lon="2.95192">
        <ele>1096.04</ele>
        <time>2012-08-10T08:26:17Z</time>
      </trkpt>
      <trkpt lat="44.6022" lon="2.95196">
        <ele>1096.52</ele>
        <time>2012-08-10T08:26:18Z</time>
      </trkpt>
      <trkpt lat="44.60212" lon="2.95207">
        <ele>1096.52</ele>
        <time>2012-08-10T08:26:21Z</time>
      </trkpt>
      <trkpt lat="44.60178" lon="2.95243">
        <ele>1092.68</ele>
        <time>2012-08-10T08:26:32Z</time>
      </trkpt>
      <trkpt lat="44.60165" lon="2.95251">
        <ele>1089.79</ele>
        <time>2012-08-10T08:26:36Z</time>
      </trkpt>
      <trkpt lat="44.60163" lon="2.95249">
        <ele>1089.31</ele>
        <time>2012-08-10T08:26:37Z</time>
      </trkpt>
      <trkpt lat="44.60162" lon="2.95246">
        <ele>1088.83</ele>
        <time>2012-08-10T08:26:38Z</time>
      </trkpt>
      <trkpt lat="44.60161" lon="2.95241">
        <ele>1088.35</ele>
        <time>2012-08-10T08:26:39Z</time>
      </trkpt>
      <trkpt lat="44.60162" lon="2.95235">
        <ele>1087.87</ele>
        <time>2012-08-10T08:26:40Z</time>
      </trkpt>
      <trkpt lat="44.60164" lon="2.95229">
        <ele>1087.39</ele>
        <time>2012-08-10T08:26:41Z</time>
      </trkpt>
      <trkpt lat="44.60166" lon="2.95221">
        <ele>1086.91</ele>
        <time>2012-08-10T08:26:42Z</time>
      </trkpt>
      <trkpt lat="44.6017" lon="2.95197">
        <ele>1084.99</ele>
        <time>2012-08-10T08:26:46Z</time>
      </trkpt>
      <trkpt lat="44.60167" lon="2.95192">
        <ele>1084.99</ele>
        <time>2012-08-10T08:26:47Z</time>
      </trkpt>
      <trkpt lat="44.60163" lon="2.95188">
        <ele>1084.5</ele>
        <time>2012-08-10T08:26:48Z</time>
      </trkpt>
      <trkpt lat="44.60159" lon="2.95185">
        <ele>1084.02</ele>
        <time>2012-08-10T08:26:49Z</time>
      </trkpt>
      <trkpt lat="44.60154" lon="2.95183">
        <ele>1084.02</ele>
        <time>2012-08-10T08:26:50Z</time>
      </trkpt>
      <trkpt lat="44.60149" lon="2.95183">
        <ele>1084.02</ele>
        <time>2012-08-10T08:26:51Z</time>
      </trkpt>
      <trkpt lat="44.60145" lon="2.95183">
        <ele>1083.54</ele>
        <time>2012-08-10T08:26:52Z</time>
      </trkpt>
      <trkpt lat="44.60133" lon="2.95179">
        <ele>1082.1</ele>
        <time>2012-08-10T08:26:55Z</time>
      </trkpt>
      <trkpt lat="44.60129" lon="2.95175">
        <ele>1081.14</ele>
        <time>2012-08-10T08:26:56Z</time>
      </trkpt>
      <trkpt lat="44.60127" lon="2.95171">
        <ele>1080.66</ele>
        <time>2012-08-10T08:26:57Z</time>
      </trkpt>
      <trkpt lat="44.60126" lon="2.95165">
        <ele>1080.18</ele>
        <time>2012-08-10T08:26:58Z</time>
      </trkpt>
      <trkpt lat="44.60126" lon="2.9516">
        <ele>1079.7</ele>
        <time>2012-08-10T08:26:59Z</time>
      </trkpt>
      <trkpt lat="44.60126" lon="2.95156">
        <ele>1079.22</ele>
        <time>2012-08-10T08:27:00Z</time>
      </trkpt>
      <trkpt lat="44.60127" lon="2.95153">
        <ele>1079.22</ele>
        <time>2012-08-10T08:27:01Z</time>
      </trkpt>
      <trkpt lat="44.60128" lon="2.9515">
        <ele>1078.74</ele>
        <time>2012-08-10T08:27:02Z</time>
      </trkpt>
      <trkpt lat="44.6013" lon="2.95148">
        <ele>1078.74</ele>
        <time>2012-08-10T08:27:03Z</time>
      </trkpt>
      <trkpt lat="44.60131" lon="2.95145">
        <ele>1078.74</ele>
        <time>2012-08-10T08:27:04Z</time>
      </trkpt>
      <trkpt lat="44.60132" lon="2.95142">
        <ele>1078.26</ele>
        <time>2012-08-10T08:27:05Z</time>
      </trkpt>
      <trkpt lat="44.60132" lon="2.95138">
        <ele>1077.78</ele>
        <time>2012-08-10T08:27:06Z</time>
      </trkpt>
      <trkpt lat="44.60132" lon="2.95135">
        <ele>1077.78</ele>
        <time>2012-08-10T08:27:07Z</time>
      </trkpt>
      <trkpt lat="44.60132" lon="2.95131">
        <ele>1077.29</ele>
        <time>2012-08-10T08:27:08Z</time>
      </trkpt>
      <trkpt lat="44.60128" lon="2.95116">
        <ele>1074.89</ele>
        <time>2012-08-10T08:27:13Z</time>
      </trkpt>
      <trkpt lat="44.60127" lon="2.95113">
        <ele>1074.41</ele>
        <time>2012-08-10T08:27:14Z</time>
      </trkpt>
      <trkpt lat="44.60121" lon="2.95101">
        <ele>1071.53</ele>
        <time>2012-08-10T08:27:20Z</time>
      </trkpt>
      <trkpt lat="44.60112" lon="2.95075">
        <ele>1065.76</ele>
        <time>2012-08-10T08:27:32Z</time>
      </trkpt>
      <trkpt lat="44.60106" lon="2.95049">
        <ele>1061.91</ele>
        <time>2012-08-10T08:27:40Z</time>
      </trkpt>
      <trkpt lat="44.60102" lon="2.95039">
        <ele>1061.43</ele>
        <time>2012-08-10T08:27:43Z</time>
      </trkpt>
      <trkpt lat="44.601" lon="2.95036">
        <ele>1061.43</ele>
        <time>2012-08-10T08:27:44Z</time>
      </trkpt>
      <trkpt lat="44.60098" lon="2.95033">
        <ele>1060.95</ele>
        <time>2012-08-10T08:27:45Z</time>
      </trkpt>
      <trkpt lat="44.60096" lon="2.9503">
        <ele>1060.95</ele>
        <time>2012-08-10T08:27:46Z</time>
      </trkpt>
      <trkpt lat="44.60094" lon="2.95028">
        <ele>1060.95</ele>
        <time>2012-08-10T08:27:47Z</time>
      </trkpt>
      <trkpt lat="44.60079" lon="2.95012">
        <ele>1059.99</ele>
        <time>2012-08-10T08:27:54Z</time>
      </trkpt>
      <trkpt lat="44.60077" lon="2.9501">
        <ele>1059.99</ele>
        <time>2012-08-10T08:27:55Z</time>
      </trkpt>
      <trkpt lat="44.60075" lon="2.95008">
        <ele>1059.99</ele>
        <time>2012-08-10T08:27:56Z</time>
      </trkpt>
      <trkpt lat="44.60073" lon="2.95006">
        <ele>1060.47</ele>
        <time>2012-08-10T08:27:57Z</time>
      </trkpt>
      <trkpt lat="44.60072" lon="2.95004">
        <ele>1060.47</ele>
        <time>2012-08-10T08:27:58Z</time>
      </trkpt>
      <trkpt lat="44.6007" lon="2.95002">
        <ele>1060.47</ele>
        <time>2012-08-10T08:27:59Z</time>
      </trkpt>
      <trkpt lat="44.60068" lon="2.95">
        <ele>1060.47</ele>
        <time>2012-08-10T08:28:00Z</time>
      </trkpt>
      <trkpt lat="44.60066" lon="2.94999">
        <ele>1060.47</ele>
        <time>2012-08-10T08:28:01Z</time>
      </trkpt>
      <trkpt lat="44.60064" lon="2.94997">
        <ele>1060.47</ele>
        <time>2012-08-10T08:28:02Z</time>
      </trkpt>
      <trkpt lat="44.60063" lon="2.94996">
        <ele>1059.99</ele>
        <time>2012-08-10T08:28:03Z</time>
      </trkpt>
      <trkpt lat="44.60052" lon="2.9499">
        <ele>1059.03</ele>
        <time>2012-08-10T08:28:14Z</time>
      </trkpt>
      <trkpt lat="44.60041" lon="2.94984">
        <ele>1057.59</ele>
        <time>2012-08-10T08:28:28Z</time>
      </trkpt>
      <trkpt lat="44.60035" lon="2.9498">
        <ele>1056.15</ele>
        <time>2012-08-10T08:28:42Z</time>
      </trkpt>
      <trkpt lat="44.60032" lon="2.94976">
        <ele>1056.15</ele>
        <time>2012-08-10T08:28:54Z</time>
      </trkpt>
      <trkpt lat="44.60031" lon="2.94974">
        <ele>1055.67</ele>
        <time>2012-08-10T08:28:55Z</time>
      </trkpt>
      <trkpt lat="44.6003" lon="2.94973">
        <ele>1055.67</ele>
        <time>2012-08-10T08:28:56Z</time>
      </trkpt>
      <trkpt lat="44.60028" lon="2.94971">
        <ele>1055.67</ele>
        <time>2012-08-10T08:28:57Z</time>
      </trkpt>
      <trkpt lat="44.60027" lon="2.9497">
        <ele>1055.67</ele>
        <time>2012-08-10T08:28:58Z</time>
      </trkpt>
      <trkpt lat="44.60021" lon="2.94966">
        <ele>1055.67</ele>
        <time>2012-08-10T08:29:01Z</time>
      </trkpt>
      <trkpt lat="44.6002" lon="2.94965">
        <ele>1055.18</ele>
        <time>2012-08-10T08:29:02Z</time>
      </trkpt>
      <trkpt lat="44.60019" lon="2.94964">
        <ele>1055.18</ele>
        <time>2012-08-10T08:29:03Z</time>
      </trkpt>
      <trkpt lat="44.60018" lon="2.94963">
        <ele>1054.7</ele>
        <time>2012-08-10T08:29:04Z</time>
      </trkpt>
      <trkpt lat="44.60016" lon="2.94962">
        <ele>1054.22</ele>
        <time>2012-08-10T08:29:05Z</time>
      </trkpt>
      <trkpt lat="44.60006" lon="2.94954">
        <ele>1053.26</ele>
        <time>2012-08-10T08:29:11Z</time>
      </trkpt>
      <trkpt lat="44.60004" lon="2.94951">
        <ele>1052.78</ele>
        <time>2012-08-10T08:29:15Z</time>
      </trkpt>
      <trkpt lat="44.60003" lon="2.9495">
        <ele>1052.3</ele>
        <time>2012-08-10T08:29:16Z</time>
      </trkpt>
      <trkpt lat="44.60001" lon="2.94948">
        <ele>1052.3</ele>
        <time>2012-08-10T08:29:17Z</time>
      </trkpt>
      <trkpt lat="44.59993" lon="2.94942">
        <ele>1051.82</ele>
        <time>2012-08-10T08:29:22Z</time>
      </trkpt>
      <trkpt lat="44.59992" lon="2.94941">
        <ele>1051.82</ele>
        <time>2012-08-10T08:29:23Z</time>
      </trkpt>
      <trkpt lat="44.59985" lon="2.94933">
        <ele>1050.86</ele>
        <time>2012-08-10T08:29:28Z</time>
      </trkpt>
      <trkpt lat="44.59984" lon="2.94932">
        <ele>1051.34</ele>
        <time>2012-08-10T08:29:29Z</time>
      </trkpt>
      <trkpt lat="44.59983" lon="2.9493">
        <ele>1050.86</ele>
        <time>2012-08-10T08:29:30Z</time>
      </trkpt>
      <trkpt lat="44.5998" lon="2.94927">
        <ele>1050.38</ele>
        <time>2012-08-10T08:29:41Z</time>
      </trkpt>
      <trkpt lat="44.59981" lon="2.94921">
        <ele>1049.9</ele>
        <time>2012-08-10T08:29:47Z</time>
      </trkpt>
      <trkpt lat="44.59983" lon="2.94914">
        <ele>1050.38</ele>
        <time>2012-08-10T08:29:52Z</time>
      </trkpt>
      <trkpt lat="44.59987" lon="2.94904">
        <ele>1052.3</ele>
        <time>2012-08-10T08:30:03Z</time>
      </trkpt>
      <trkpt lat="44.59986" lon="2.94902">
        <ele>1052.3</ele>
        <time>2012-08-10T08:30:04Z</time>
      </trkpt>
      <trkpt lat="44.59985" lon="2.949">
        <ele>1051.82</ele>
        <time>2012-08-10T08:30:05Z</time>
      </trkpt>
      <trkpt lat="44.59985" lon="2.94898">
        <ele>1051.82</ele>
        <time>2012-08-10T08:30:06Z</time>
      </trkpt>
      <trkpt lat="44.59986" lon="2.94896">
        <ele>1051.34</ele>
        <time>2012-08-10T08:30:07Z</time>
      </trkpt>
      <trkpt lat="44.59986" lon="2.94894">
        <ele>1050.86</ele>
        <time>2012-08-10T08:30:08Z</time>
      </trkpt>
      <trkpt lat="44.59987" lon="2.94892">
        <ele>1050.86</ele>
        <time>2012-08-10T08:30:09Z</time>
      </trkpt>
      <trkpt lat="44.59987" lon="2.9489">
        <ele>1050.86</ele>
        <time>2012-08-10T08:30:10Z</time>
      </trkpt>
      <trkpt lat="44.59987" lon="2.94888">
        <ele>1050.86</ele>
        <time>2012-08-10T08:30:11Z</time>
      </trkpt>
      <trkpt lat="44.59988" lon="2.94886">
        <ele>1050.86</ele>
        <time>2012-08-10T08:30:12Z</time>
      </trkpt>
      <trkpt lat="44.59992" lon="2.94878">
        <ele>1049.42</ele>
        <time>2012-08-10T08:30:21Z</time>
      </trkpt>
      <trkpt lat="44.60001" lon="2.94867">
        <ele>1048.45</ele>
        <time>2012-08-10T08:30:27Z</time>
      </trkpt>
      <trkpt lat="44.60003" lon="2.94866">
        <ele>1047.97</ele>
        <time>2012-08-10T08:30:28Z</time>
      </trkpt>
      <trkpt lat="44.60005" lon="2.94865">
        <ele>1047.97</ele>
        <time>2012-08-10T08:30:29Z</time>
      </trkpt>
      <trkpt lat="44.60007" lon="2.94863">
        <ele>1047.49</ele>
        <time>2012-08-10T08:30:30Z</time>
      </trkpt>
      <trkpt lat="44.60009" lon="2.94862">
        <ele>1047.01</ele>
        <time>2012-08-10T08:30:31Z</time>
      </trkpt>
      <trkpt lat="44.60011" lon="2.94862">
        <ele>1046.53</ele>
        <time>2012-08-10T08:30:32Z</time>
      </trkpt>
      <trkpt lat="44.60014" lon="2.94857">
        <ele>1045.57</ele>
        <time>2012-08-10T08:30:36Z</time>
      </trkpt>
      <trkpt lat="44.60015" lon="2.94855">
        <ele>1045.09</ele>
        <time>2012-08-10T08:30:37Z</time>
      </trkpt>
      <trkpt lat="44.60021" lon="2.94842">
        <ele>1041.73</ele>
        <time>2012-08-10T08:30:47Z</time>
      </trkpt>
      <trkpt lat="44.60022" lon="2.94844">
        <ele>1041.25</ele>
        <time>2012-08-10T08:30:48Z</time>
      </trkpt>
      <trkpt lat="44.60027" lon="2.94844">
        <ele>1036.92</ele>
        <time>2012-08-10T08:30:56Z</time>
      </trkpt>
      <trkpt lat="44.60029" lon="2.94843">
        <ele>1036.44</ele>
        <time>2012-08-10T08:30:57Z</time>
      </trkpt>
      <trkpt lat="44.60037" lon="2.9484">
        <ele>1033.55</ele>
        <time>2012-08-10T08:31:02Z</time>
      </trkpt>
      <trkpt lat="44.60041" lon="2.94839">
        <ele>1033.07</ele>
        <time>2012-08-10T08:31:03Z</time>
      </trkpt>
      <trkpt lat="44.60043" lon="2.94839">
        <ele>1033.07</ele>
        <time>2012-08-10T08:31:04Z</time>
      </trkpt>
      <trkpt lat="44.60045" lon="2.94838">
        <ele>1033.07</ele>
        <time>2012-08-10T08:31:05Z</time>
      </trkpt>
      <trkpt lat="44.60047" lon="2.94838">
        <ele>1032.59</ele>
        <time>2012-08-10T08:31:06Z</time>
      </trkpt>
      <trkpt lat="44.60049" lon="2.94836">
        <ele>1032.59</ele>
        <time>2012-08-10T08:31:07Z</time>
      </trkpt>
      <trkpt lat="44.6005" lon="2.94835">
        <ele>1032.59</ele>
        <time>2012-08-10T08:31:08Z</time>
      </trkpt>
      <trkpt lat="44.60052" lon="2.94834">
        <ele>1032.59</ele>
        <time>2012-08-10T08:31:09Z</time>
      </trkpt>
      <trkpt lat="44.60054" lon="2.94832">
        <ele>1032.59</ele>
        <time>2012-08-10T08:31:10Z</time>
      </trkpt>
      <trkpt lat="44.60056" lon="2.94832">
        <ele>1032.59</ele>
        <time>2012-08-10T08:31:11Z</time>
      </trkpt>
      <trkpt lat="44.60059" lon="2.94831">
        <ele>1032.59</ele>
        <time>2012-08-10T08:31:12Z</time>
      </trkpt>
      <trkpt lat="44.60072" lon="2.94826">
        <ele>1032.59</ele>
        <time>2012-08-10T08:31:21Z</time>
      </trkpt>
      <trkpt lat="44.60075" lon="2.94825">
        <ele>1032.59</ele>
        <time>2012-08-10T08:31:23Z</time>
      </trkpt>
      <trkpt lat="44.60077" lon="2.94825">
        <ele>1032.59</ele>
        <time>2012-08-10T08:31:24Z</time>
      </trkpt>
      <trkpt lat="44.60079" lon="2.94825">
        <ele>1032.11</ele>
        <time>2012-08-10T08:31:25Z</time>
      </trkpt>
      <trkpt lat="44.60081" lon="2.94824">
        <ele>1031.63</ele>
        <time>2012-08-10T08:31:26Z</time>
      </trkpt>
      <trkpt lat="44.60083" lon="2.94824">
        <ele>1031.63</ele>
        <time>2012-08-10T08:31:27Z</time>
      </trkpt>
      <trkpt lat="44.60085" lon="2.94825">
        <ele>1031.63</ele>
        <time>2012-08-10T08:31:28Z</time>
      </trkpt>
      <trkpt lat="44.60103" lon="2.94822">
        <ele>1031.63</ele>
        <time>2012-08-10T08:31:37Z</time>
      </trkpt>
      <trkpt lat="44.60119" lon="2.94813">
        <ele>1031.63</ele>
        <time>2012-08-10T08:31:46Z</time>
      </trkpt>
      <trkpt lat="44.60123" lon="2.94811">
        <ele>1031.15</ele>
        <time>2012-08-10T08:31:49Z</time>
      </trkpt>
      <trkpt lat="44.6014" lon="2.94805">
        <ele>1030.19</ele>
        <time>2012-08-10T08:31:57Z</time>
      </trkpt>
      <trkpt lat="44.60142" lon="2.94804">
        <ele>1029.71</ele>
        <time>2012-08-10T08:31:58Z</time>
      </trkpt>
      <trkpt lat="44.6015" lon="2.94799">
        <ele>1030.19</ele>
        <time>2012-08-10T08:32:04Z</time>
      </trkpt>
      <trkpt lat="44.60148" lon="2.94792">
        <ele>1029.71</ele>
        <time>2012-08-10T08:32:08Z</time>
      </trkpt>
      <trkpt lat="44.60149" lon="2.94778">
        <ele>1029.23</ele>
        <time>2012-08-10T08:32:14Z</time>
      </trkpt>
      <trkpt lat="44.60152" lon="2.94761">
        <ele>1028.75</ele>
        <time>2012-08-10T08:32:23Z</time>
      </trkpt>
      <trkpt lat="44.60151" lon="2.9476">
        <ele>1027.31</ele>
        <time>2012-08-10T08:32:25Z</time>
      </trkpt>
      <trkpt lat="44.60149" lon="2.9476">
        <ele>1026.34</ele>
        <time>2012-08-10T08:32:27Z</time>
      </trkpt>
      <trkpt lat="44.60134" lon="2.94754">
        <ele>1024.9</ele>
        <time>2012-08-10T08:32:37Z</time>
      </trkpt>
      <trkpt lat="44.60126" lon="2.94748">
        <ele>1024.42</ele>
        <time>2012-08-10T08:32:41Z</time>
      </trkpt>
      <trkpt lat="44.6011" lon="2.94727">
        <ele>1023.94</ele>
        <time>2012-08-10T08:32:47Z</time>
      </trkpt>
      <trkpt lat="44.60106" lon="2.94719">
        <ele>1023.46</ele>
        <time>2012-08-10T08:32:49Z</time>
      </trkpt>
      <trkpt lat="44.60099" lon="2.94701">
        <ele>1022.5</ele>
        <time>2012-08-10T08:32:53Z</time>
      </trkpt>
      <trkpt lat="44.60097" lon="2.94697">
        <ele>1021.06</ele>
        <time>2012-08-10T08:32:54Z</time>
      </trkpt>
      <trkpt lat="44.60087" lon="2.94678">
        <ele>1018.17</ele>
        <time>2012-08-10T08:32:59Z</time>
      </trkpt>
      <trkpt lat="44.60085" lon="2.94676">
        <ele>1017.21</ele>
        <time>2012-08-10T08:33:00Z</time>
      </trkpt>
      <trkpt lat="44.60064" lon="2.94654">
        <ele>1009.04</ele>
        <time>2012-08-10T08:33:11Z</time>
      </trkpt>
      <trkpt lat="44.60063" lon="2.94654">
        <ele>1009.04</ele>
        <time>2012-08-10T08:33:12Z</time>
      </trkpt>
      <trkpt lat="44.60055" lon="2.94647">
        <ele>1007.6</ele>
        <time>2012-08-10T08:33:17Z</time>
      </trkpt>
      <trkpt lat="44.60054" lon="2.94646">
        <ele>1007.6</ele>
        <time>2012-08-10T08:33:18Z</time>
      </trkpt>
      <trkpt lat="44.60036" lon="2.94622">
        <ele>1006.16</ele>
        <time>2012-08-10T08:33:29Z</time>
      </trkpt>
      <trkpt lat="44.60033" lon="2.94618">
        <ele>1006.64</ele>
        <time>2012-08-10T08:33:30Z</time>
      </trkpt>
      <trkpt lat="44.60031" lon="2.94615">
        <ele>1006.64</ele>
        <time>2012-08-10T08:33:31Z</time>
      </trkpt>
      <trkpt lat="44.60028" lon="2.94612">
        <ele>1006.16</ele>
        <time>2012-08-10T08:33:32Z</time>
      </trkpt>
      <trkpt lat="44.60026" lon="2.94609">
        <ele>1006.64</ele>
        <time>2012-08-10T08:33:33Z</time>
      </trkpt>
      <trkpt lat="44.60024" lon="2.94607">
        <ele>1007.12</ele>
        <time>2012-08-10T08:33:34Z</time>
      </trkpt>
      <trkpt lat="44.60022" lon="2.94604">
        <ele>1007.12</ele>
        <time>2012-08-10T08:33:35Z</time>
      </trkpt>
      <trkpt lat="44.60021" lon="2.94602">
        <ele>1007.6</ele>
        <time>2012-08-10T08:33:36Z</time>
      </trkpt>
      <trkpt lat="44.60019" lon="2.946">
        <ele>1007.6</ele>
        <time>2012-08-10T08:33:37Z</time>
      </trkpt>
      <trkpt lat="44.60017" lon="2.94598">
        <ele>1007.6</ele>
        <time>2012-08-10T08:33:38Z</time>
      </trkpt>
      <trkpt lat="44.60016" lon="2.94595">
        <ele>1007.6</ele>
        <time>2012-08-10T08:33:39Z</time>
      </trkpt>
      <trkpt lat="44.60015" lon="2.94592">
        <ele>1007.6</ele>
        <time>2012-08-10T08:33:40Z</time>
      </trkpt>
      <trkpt lat="44.60013" lon="2.9459">
        <ele>1007.12</ele>
        <time>2012-08-10T08:33:41Z</time>
      </trkpt>
      <trkpt lat="44.60011" lon="2.94587">
        <ele>1007.12</ele>
        <time>2012-08-10T08:33:42Z</time>
      </trkpt>
      <trkpt lat="44.60009" lon="2.94584">
        <ele>1007.12</ele>
        <time>2012-08-10T08:33:43Z</time>
      </trkpt>
      <trkpt lat="44.60007" lon="2.94582">
        <ele>1006.64</ele>
        <time>2012-08-10T08:33:44Z</time>
      </trkpt>
      <trkpt lat="44.59991" lon="2.94552">
        <ele>1002.79</ele>
        <time>2012-08-10T08:33:55Z</time>
      </trkpt>
      <trkpt lat="44.59967" lon="2.9452">
        <ele>1001.83</ele>
        <time>2012-08-10T08:34:09Z</time>
      </trkpt>
      <trkpt lat="44.59947" lon="2.945">
        <ele>1001.35</ele>
        <time>2012-08-10T08:34:20Z</time>
      </trkpt>
      <trkpt lat="44.59929" lon="2.94482">
        <ele>1000.87</ele>
        <time>2012-08-10T08:34:30Z</time>
      </trkpt>
      <trkpt lat="44.59928" lon="2.9448">
        <ele>1000.87</ele>
        <time>2012-08-10T08:34:31Z</time>
      </trkpt>
      <trkpt lat="44.59918" lon="2.94472">
        <ele>998.95</ele>
        <time>2012-08-10T08:34:38Z</time>
      </trkpt>
      <trkpt lat="44.59917" lon="2.94471">
        <ele>998.95</ele>
        <time>2012-08-10T08:34:39Z</time>
      </trkpt>
      <trkpt lat="44.59915" lon="2.94469">
        <ele>998.47</ele>
        <time>2012-08-10T08:34:40Z</time>
      </trkpt>
      <trkpt lat="44.59912" lon="2.94467">
        <ele>997.99</ele>
        <time>2012-08-10T08:34:41Z</time>
      </trkpt>
      <trkpt lat="44.5991" lon="2.94465">
        <ele>997.99</ele>
        <time>2012-08-10T08:34:42Z</time>
      </trkpt>
      <trkpt lat="44.59909" lon="2.94463">
        <ele>997.51</ele>
        <time>2012-08-10T08:34:43Z</time>
      </trkpt>
      <trkpt lat="44.59907" lon="2.94462">
        <ele>997.02</ele>
        <time>2012-08-10T08:34:44Z</time>
      </trkpt>
      <trkpt lat="44.59904" lon="2.9446">
        <ele>997.02</ele>
        <time>2012-08-10T08:34:45Z</time>
      </trkpt>
      <trkpt lat="44.59901" lon="2.94459">
        <ele>997.02</ele>
        <time>2012-08-10T08:34:46Z</time>
      </trkpt>
      <trkpt lat="44.59899" lon="2.94455">
        <ele>995.58</ele>
        <time>2012-08-10T08:34:47Z</time>
      </trkpt>
      <trkpt lat="44.59897" lon="2.94453">
        <ele>995.58</ele>
        <time>2012-08-10T08:34:48Z</time>
      </trkpt>
      <trkpt lat="44.59895" lon="2.94449">
        <ele>995.1</ele>
        <time>2012-08-10T08:34:49Z</time>
      </trkpt>
      <trkpt lat="44.59894" lon="2.94446">
        <ele>994.14</ele>
        <time>2012-08-10T08:34:50Z</time>
      </trkpt>
      <trkpt lat="44.59892" lon="2.94443">
        <ele>993.18</ele>
        <time>2012-08-10T08:34:51Z</time>
      </trkpt>
      <trkpt lat="44.59891" lon="2.9444">
        <ele>992.7</ele>
        <time>2012-08-10T08:34:52Z</time>
      </trkpt>
      <trkpt lat="44.5989" lon="2.94437">
        <ele>992.22</ele>
        <time>2012-08-10T08:34:53Z</time>
      </trkpt>
      <trkpt lat="44.59877" lon="2.9442">
        <ele>988.37</ele>
        <time>2012-08-10T08:35:01Z</time>
      </trkpt>
      <trkpt lat="44.59876" lon="2.9442">
        <ele>988.37</ele>
        <time>2012-08-10T08:35:02Z</time>
      </trkpt>
      <trkpt lat="44.59874" lon="2.94419">
        <ele>987.89</ele>
        <time>2012-08-10T08:35:03Z</time>
      </trkpt>
      <trkpt lat="44.59872" lon="2.94416">
        <ele>987.41</ele>
        <time>2012-08-10T08:35:04Z</time>
      </trkpt>
      <trkpt lat="44.59871" lon="2.94414">
        <ele>987.41</ele>
        <time>2012-08-10T08:35:05Z</time>
      </trkpt>
      <trkpt lat="44.59869" lon="2.94411">
        <ele>987.41</ele>
        <time>2012-08-10T08:35:06Z</time>
      </trkpt>
      <trkpt lat="44.59868" lon="2.94408">
        <ele>986.93</ele>
        <time>2012-08-10T08:35:07Z</time>
      </trkpt>
      <trkpt lat="44.59867" lon="2.94407">
        <ele>986.93</ele>
        <time>2012-08-10T08:35:08Z</time>
      </trkpt>
      <trkpt lat="44.59852" lon="2.94387">
        <ele>986.93</ele>
        <time>2012-08-10T08:35:18Z</time>
      </trkpt>
      <trkpt lat="44.59851" lon="2.94384">
        <ele>986.93</ele>
        <time>2012-08-10T08:35:19Z</time>
      </trkpt>
      <trkpt lat="44.59836" lon="2.94359">
        <ele>984.53</ele>
        <time>2012-08-10T08:35:29Z</time>
      </trkpt>
      <trkpt lat="44.59819" lon="2.94325">
        <ele>982.6</ele>
        <time>2012-08-10T08:35:40Z</time>
      </trkpt>
      <trkpt lat="44.59805" lon="2.94285">
        <ele>980.68</ele>
        <time>2012-08-10T08:35:50Z</time>
      </trkpt>
      <trkpt lat="44.59798" lon="2.94241">
        <ele>978.76</ele>
        <time>2012-08-10T08:36:03Z</time>
      </trkpt>
      <trkpt lat="44.59798" lon="2.9424">
        <ele>978.28</ele>
        <time>2012-08-10T08:36:22Z</time>
      </trkpt>
      <trkpt lat="44.59798" lon="2.94237">
        <ele>978.28</ele>
        <time>2012-08-10T08:36:37Z</time>
      </trkpt>
      <trkpt lat="44.59797" lon="2.94231">
        <ele>978.76</ele>
        <time>2012-08-10T08:36:50Z</time>
      </trkpt>
      <trkpt lat="44.59791" lon="2.94207">
        <ele>978.76</ele>
        <time>2012-08-10T08:36:58Z</time>
      </trkpt>
      <trkpt lat="44.5979" lon="2.94205">
        <ele>978.76</ele>
        <time>2012-08-10T08:36:59Z</time>
      </trkpt>
      <trkpt lat="44.59788" lon="2.94203">
        <ele>978.28</ele>
        <time>2012-08-10T08:37:00Z</time>
      </trkpt>
      <trkpt lat="44.59787" lon="2.942">
        <ele>977.8</ele>
        <time>2012-08-10T08:37:01Z</time>
      </trkpt>
      <trkpt lat="44.59786" lon="2.94198">
        <ele>977.32</ele>
        <time>2012-08-10T08:37:02Z</time>
      </trkpt>
      <trkpt lat="44.59785" lon="2.94194">
        <ele>977.32</ele>
        <time>2012-08-10T08:37:03Z</time>
      </trkpt>
      <trkpt lat="44.59784" lon="2.9419">
        <ele>976.84</ele>
        <time>2012-08-10T08:37:14Z</time>
      </trkpt>
      <trkpt lat="44.59782" lon="2.94186">
        <ele>976.84</ele>
        <time>2012-08-10T08:37:26Z</time>
      </trkpt>
      <trkpt lat="44.5978" lon="2.94181">
        <ele>976.84</ele>
        <time>2012-08-10T08:37:30Z</time>
      </trkpt>
      <trkpt lat="44.5978" lon="2.94178">
        <ele>976.84</ele>
        <time>2012-08-10T08:37:31Z</time>
      </trkpt>
      <trkpt lat="44.5978" lon="2.94175">
        <ele>976.84</ele>
        <time>2012-08-10T08:37:32Z</time>
      </trkpt>
      <trkpt lat="44.5978" lon="2.94173">
        <ele>976.84</ele>
        <time>2012-08-10T08:37:33Z</time>
      </trkpt>
      <trkpt lat="44.5978" lon="2.9417">
        <ele>976.84</ele>
        <time>2012-08-10T08:37:34Z</time>
      </trkpt>
      <trkpt lat="44.59778" lon="2.94158">
        <ele>977.32</ele>
        <time>2012-08-10T08:37:39Z</time>
      </trkpt>
      <trkpt lat="44.59777" lon="2.94155">
        <ele>976.84</ele>
        <time>2012-08-10T08:37:40Z</time>
      </trkpt>
      <trkpt lat="44.59776" lon="2.94152">
        <ele>977.32</ele>
        <time>2012-08-10T08:37:41Z</time>
      </trkpt>
      <trkpt lat="44.59765" lon="2.94112">
        <ele>974.91</ele>
        <time>2012-08-10T08:37:51Z</time>
      </trkpt>
      <trkpt lat="44.59764" lon="2.94109">
        <ele>974.91</ele>
        <time>2012-08-10T08:37:52Z</time>
      </trkpt>
      <trkpt lat="44.59762" lon="2.94105">
        <ele>973.47</ele>
        <time>2012-08-10T08:38:05Z</time>
      </trkpt>
      <trkpt lat="44.59755" lon="2.94095">
        <ele>969.15</ele>
        <time>2012-08-10T08:38:19Z</time>
      </trkpt>
      <trkpt lat="44.59754" lon="2.94093">
        <ele>968.67</ele>
        <time>2012-08-10T08:38:20Z</time>
      </trkpt>
      <trkpt lat="44.59739" lon="2.94077">
        <ele>965.78</ele>
        <time>2012-08-10T08:38:30Z</time>
      </trkpt>
      <trkpt lat="44.59731" lon="2.94055">
        <ele>959.53</ele>
        <time>2012-08-10T08:38:38Z</time>
      </trkpt>
      <trkpt lat="44.5973" lon="2.94052">
        <ele>959.05</ele>
        <time>2012-08-10T08:38:39Z</time>
      </trkpt>
      <trkpt lat="44.59729" lon="2.94049">
        <ele>958.57</ele>
        <time>2012-08-10T08:38:40Z</time>
      </trkpt>
      <trkpt lat="44.59728" lon="2.94046">
        <ele>958.09</ele>
        <time>2012-08-10T08:38:41Z</time>
      </trkpt>
      <trkpt lat="44.59726" lon="2.94043">
        <ele>957.61</ele>
        <time>2012-08-10T08:38:42Z</time>
      </trkpt>
      <trkpt lat="44.59725" lon="2.94039">
        <ele>957.13</ele>
        <time>2012-08-10T08:38:43Z</time>
      </trkpt>
      <trkpt lat="44.59723" lon="2.94035">
        <ele>957.13</ele>
        <time>2012-08-10T08:38:44Z</time>
      </trkpt>
      <trkpt lat="44.59715" lon="2.9402">
        <ele>954.25</ele>
        <time>2012-08-10T08:38:50Z</time>
      </trkpt>
      <trkpt lat="44.59714" lon="2.94018">
        <ele>953.77</ele>
        <time>2012-08-10T08:38:51Z</time>
      </trkpt>
      <trkpt lat="44.5971" lon="2.94012">
        <ele>953.28</ele>
        <time>2012-08-10T08:39:01Z</time>
      </trkpt>
      <trkpt lat="44.59707" lon="2.94012">
        <ele>952.32</ele>
        <time>2012-08-10T08:39:16Z</time>
      </trkpt>
      <trkpt lat="44.59705" lon="2.94008">
        <ele>951.36</ele>
        <time>2012-08-10T08:39:26Z</time>
      </trkpt>
      <trkpt lat="44.59704" lon="2.94007">
        <ele>951.36</ele>
        <time>2012-08-10T08:39:27Z</time>
      </trkpt>
      <trkpt lat="44.59703" lon="2.94005">
        <ele>950.88</ele>
        <time>2012-08-10T08:39:28Z</time>
      </trkpt>
      <trkpt lat="44.59695" lon="2.93997">
        <ele>950.4</ele>
        <time>2012-08-10T08:39:35Z</time>
      </trkpt>
      <trkpt lat="44.59693" lon="2.93999">
        <ele>947.52</ele>
        <time>2012-08-10T08:39:51Z</time>
      </trkpt>
      <trkpt lat="44.5969" lon="2.93997">
        <ele>948</ele>
        <time>2012-08-10T08:40:08Z</time>
      </trkpt>
      <trkpt lat="44.5968" lon="2.93993">
        <ele>944.15</ele>
        <time>2012-08-10T08:40:21Z</time>
      </trkpt>
      <trkpt lat="44.59675" lon="2.9399">
        <ele>944.15</ele>
        <time>2012-08-10T08:40:34Z</time>
      </trkpt>
      <trkpt lat="44.59674" lon="2.93988">
        <ele>944.15</ele>
        <time>2012-08-10T08:40:36Z</time>
      </trkpt>
      <trkpt lat="44.59672" lon="2.93986">
        <ele>944.15</ele>
        <time>2012-08-10T08:40:38Z</time>
      </trkpt>
      <trkpt lat="44.59671" lon="2.93984">
        <ele>943.67</ele>
        <time>2012-08-10T08:40:39Z</time>
      </trkpt>
      <trkpt lat="44.59671" lon="2.93982">
        <ele>943.67</ele>
        <time>2012-08-10T08:40:40Z</time>
      </trkpt>
      <trkpt lat="44.5967" lon="2.9398">
        <ele>943.67</ele>
        <time>2012-08-10T08:40:41Z</time>
      </trkpt>
      <trkpt lat="44.59668" lon="2.93978">
        <ele>943.19</ele>
        <time>2012-08-10T08:40:42Z</time>
      </trkpt>
      <trkpt lat="44.59667" lon="2.93977">
        <ele>943.19</ele>
        <time>2012-08-10T08:40:43Z</time>
      </trkpt>
      <trkpt lat="44.59666" lon="2.93975">
        <ele>943.19</ele>
        <time>2012-08-10T08:40:44Z</time>
      </trkpt>
      <trkpt lat="44.5966" lon="2.93968">
        <ele>940.79</ele>
        <time>2012-08-10T08:40:48Z</time>
      </trkpt>
      <trkpt lat="44.59659" lon="2.93966">
        <ele>940.31</ele>
        <time>2012-08-10T08:40:49Z</time>
      </trkpt>
      <trkpt lat="44.59657" lon="2.93965">
        <ele>939.83</ele>
        <time>2012-08-10T08:40:50Z</time>
      </trkpt>
      <trkpt lat="44.59655" lon="2.93964">
        <ele>939.35</ele>
        <time>2012-08-10T08:40:51Z</time>
      </trkpt>
      <trkpt lat="44.59653" lon="2.93962">
        <ele>938.86</ele>
        <time>2012-08-10T08:40:52Z</time>
      </trkpt>
      <trkpt lat="44.59642" lon="2.93954">
        <ele>934.54</ele>
        <time>2012-08-10T08:41:04Z</time>
      </trkpt>
      <trkpt lat="44.5964" lon="2.93952">
        <ele>933.58</ele>
        <time>2012-08-10T08:41:19Z</time>
      </trkpt>
      <trkpt lat="44.59637" lon="2.93949">
        <ele>931.17</ele>
        <time>2012-08-10T08:41:31Z</time>
      </trkpt>
      <trkpt lat="44.59633" lon="2.93942">
        <ele>932.14</ele>
        <time>2012-08-10T08:41:41Z</time>
      </trkpt>
      <trkpt lat="44.59628" lon="2.93936">
        <ele>930.69</ele>
        <time>2012-08-10T08:41:51Z</time>
      </trkpt>
      <trkpt lat="44.59623" lon="2.9393">
        <ele>928.77</ele>
        <time>2012-08-10T08:42:04Z</time>
      </trkpt>
      <trkpt lat="44.59618" lon="2.93924">
        <ele>928.29</ele>
        <time>2012-08-10T08:42:16Z</time>
      </trkpt>
      <trkpt lat="44.59615" lon="2.93921">
        <ele>926.85</ele>
        <time>2012-08-10T08:42:29Z</time>
      </trkpt>
      <trkpt lat="44.59603" lon="2.93908">
        <ele>923.96</ele>
        <time>2012-08-10T08:42:42Z</time>
      </trkpt>
      <trkpt lat="44.59601" lon="2.93905">
        <ele>923.48</ele>
        <time>2012-08-10T08:42:44Z</time>
      </trkpt>
      <trkpt lat="44.59594" lon="2.93899">
        <ele>923.48</ele>
        <time>2012-08-10T08:42:57Z</time>
      </trkpt>
      <trkpt lat="44.59593" lon="2.93897">
        <ele>923</ele>
        <time>2012-08-10T08:43:05Z</time>
      </trkpt>
      <trkpt lat="44.59593" lon="2.93894">
        <ele>923</ele>
        <time>2012-08-10T08:43:06Z</time>
      </trkpt>
      <trkpt lat="44.59592" lon="2.93891">
        <ele>923</ele>
        <time>2012-08-10T08:43:07Z</time>
      </trkpt>
      <trkpt lat="44.59586" lon="2.93849">
        <ele>921.08</ele>
        <time>2012-08-10T08:43:16Z</time>
      </trkpt>
      <trkpt lat="44.59582" lon="2.93815">
        <ele>919.64</ele>
        <time>2012-08-10T08:43:24Z</time>
      </trkpt>
      <trkpt lat="44.59584" lon="2.93793">
        <ele>918.68</ele>
        <time>2012-08-10T08:43:33Z</time>
      </trkpt>
      <trkpt lat="44.59584" lon="2.93792">
        <ele>919.16</ele>
        <time>2012-08-10T08:43:46Z</time>
      </trkpt>
      <trkpt lat="44.59585" lon="2.93791">
        <ele>919.16</ele>
        <time>2012-08-10T08:43:47Z</time>
      </trkpt>
      <trkpt lat="44.59586" lon="2.93789">
        <ele>919.16</ele>
        <time>2012-08-10T08:43:48Z</time>
      </trkpt>
      <trkpt lat="44.59587" lon="2.93786">
        <ele>918.68</ele>
        <time>2012-08-10T08:43:49Z</time>
      </trkpt>
      <trkpt lat="44.59588" lon="2.93784">
        <ele>918.2</ele>
        <time>2012-08-10T08:43:50Z</time>
      </trkpt>
      <trkpt lat="44.5959" lon="2.93783">
        <ele>918.2</ele>
        <time>2012-08-10T08:43:51Z</time>
      </trkpt>
      <trkpt lat="44.5961" lon="2.93759">
        <ele>913.39</ele>
        <time>2012-08-10T08:44:03Z</time>
      </trkpt>
      <trkpt lat="44.59633" lon="2.93743">
        <ele>911.95</ele>
        <time>2012-08-10T08:44:14Z</time>
      </trkpt>
      <trkpt lat="44.59635" lon="2.9374">
        <ele>911.95</ele>
        <time>2012-08-10T08:44:16Z</time>
      </trkpt>
      <trkpt lat="44.59635" lon="2.93737">
        <ele>911.95</ele>
        <time>2012-08-10T08:44:17Z</time>
      </trkpt>
      <trkpt lat="44.59635" lon="2.93734">
        <ele>912.43</ele>
        <time>2012-08-10T08:44:18Z</time>
      </trkpt>
      <trkpt lat="44.59635" lon="2.93732">
        <ele>912.43</ele>
        <time>2012-08-10T08:44:19Z</time>
      </trkpt>
      <trkpt lat="44.59635" lon="2.93726">
        <ele>912.91</ele>
        <time>2012-08-10T08:44:22Z</time>
      </trkpt>
      <trkpt lat="44.59633" lon="2.93724">
        <ele>913.39</ele>
        <time>2012-08-10T08:44:24Z</time>
      </trkpt>
      <trkpt lat="44.59624" lon="2.93711">
        <ele>914.83</ele>
        <time>2012-08-10T08:44:30Z</time>
      </trkpt>
      <trkpt lat="44.59622" lon="2.93705">
        <ele>914.83</ele>
        <time>2012-08-10T08:44:31Z</time>
      </trkpt>
      <trkpt lat="44.5962" lon="2.93698">
        <ele>914.83</ele>
        <time>2012-08-10T08:44:32Z</time>
      </trkpt>
      <trkpt lat="44.59618" lon="2.93691">
        <ele>914.83</ele>
        <time>2012-08-10T08:44:33Z</time>
      </trkpt>
      <trkpt lat="44.59614" lon="2.93685">
        <ele>914.35</ele>
        <time>2012-08-10T08:44:34Z</time>
      </trkpt>
      <trkpt lat="44.59611" lon="2.93679">
        <ele>913.87</ele>
        <time>2012-08-10T08:44:35Z</time>
      </trkpt>
      <trkpt lat="44.59601" lon="2.93666">
        <ele>913.39</ele>
        <time>2012-08-10T08:44:37Z</time>
      </trkpt>
      <trkpt lat="44.59574" lon="2.93638">
        <ele>911.47</ele>
        <time>2012-08-10T08:44:42Z</time>
      </trkpt>
      <trkpt lat="44.59568" lon="2.93632">
        <ele>910.51</ele>
        <time>2012-08-10T08:44:43Z</time>
      </trkpt>
      <trkpt lat="44.59564" lon="2.93624">
        <ele>910.03</ele>
        <time>2012-08-10T08:44:44Z</time>
      </trkpt>
      <trkpt lat="44.59552" lon="2.93601">
        <ele>908.1</ele>
        <time>2012-08-10T08:44:47Z</time>
      </trkpt>
      <trkpt lat="44.59526" lon="2.93556">
        <ele>905.22</ele>
        <time>2012-08-10T08:44:53Z</time>
      </trkpt>
      <trkpt lat="44.59522" lon="2.93549">
        <ele>904.74</ele>
        <time>2012-08-10T08:44:54Z</time>
      </trkpt>
      <trkpt lat="44.59504" lon="2.93521">
        <ele>902.33</ele>
        <time>2012-08-10T08:44:58Z</time>
      </trkpt>
      <trkpt lat="44.595" lon="2.93513">
        <ele>901.85</ele>
        <time>2012-08-10T08:44:59Z</time>
      </trkpt>
      <trkpt lat="44.59498" lon="2.93503">
        <ele>900.89</ele>
        <time>2012-08-10T08:45:00Z</time>
      </trkpt>
      <trkpt lat="44.59496" lon="2.93492">
        <ele>900.41</ele>
        <time>2012-08-10T08:45:01Z</time>
      </trkpt>
      <trkpt lat="44.59494" lon="2.93481">
        <ele>899.93</ele>
        <time>2012-08-10T08:45:02Z</time>
      </trkpt>
      <trkpt lat="44.59489" lon="2.93451">
        <ele>898.01</ele>
        <time>2012-08-10T08:45:05Z</time>
      </trkpt>
      <trkpt lat="44.59486" lon="2.93441">
        <ele>897.05</ele>
        <time>2012-08-10T08:45:06Z</time>
      </trkpt>
      <trkpt lat="44.59482" lon="2.93432">
        <ele>896.57</ele>
        <time>2012-08-10T08:45:07Z</time>
      </trkpt>
      <trkpt lat="44.59478" lon="2.93423">
        <ele>895.61</ele>
        <time>2012-08-10T08:45:08Z</time>
      </trkpt>
      <trkpt lat="44.59474" lon="2.93415">
        <ele>895.12</ele>
        <time>2012-08-10T08:45:09Z</time>
      </trkpt>
      <trkpt lat="44.59422" lon="2.93318">
        <ele>888.4</ele>
        <time>2012-08-10T08:45:19Z</time>
      </trkpt>
      <trkpt lat="44.59406" lon="2.93266">
        <ele>885.99</ele>
        <time>2012-08-10T08:45:23Z</time>
      </trkpt>
      <trkpt lat="44.59377" lon="2.93163">
        <ele>878.78</ele>
        <time>2012-08-10T08:45:32Z</time>
      </trkpt>
      <trkpt lat="44.59363" lon="2.93115">
        <ele>873.98</ele>
        <time>2012-08-10T08:45:38Z</time>
      </trkpt>
      <trkpt lat="44.59359" lon="2.93108">
        <ele>873.5</ele>
        <time>2012-08-10T08:45:39Z</time>
      </trkpt>
      <trkpt lat="44.59348" lon="2.93086">
        <ele>870.61</ele>
        <time>2012-08-10T08:45:43Z</time>
      </trkpt>
      <trkpt lat="44.59346" lon="2.9308">
        <ele>870.13</ele>
        <time>2012-08-10T08:45:44Z</time>
      </trkpt>
      <trkpt lat="44.59341" lon="2.93065">
        <ele>868.69</ele>
        <time>2012-08-10T08:45:46Z</time>
      </trkpt>
      <trkpt lat="44.5934" lon="2.93057">
        <ele>868.21</ele>
        <time>2012-08-10T08:45:47Z</time>
      </trkpt>
      <trkpt lat="44.59339" lon="2.93049">
        <ele>867.73</ele>
        <time>2012-08-10T08:45:48Z</time>
      </trkpt>
      <trkpt lat="44.59338" lon="2.93042">
        <ele>867.25</ele>
        <time>2012-08-10T08:45:49Z</time>
      </trkpt>
      <trkpt lat="44.59337" lon="2.93035">
        <ele>866.77</ele>
        <time>2012-08-10T08:45:50Z</time>
      </trkpt>
      <trkpt lat="44.59325" lon="2.92943">
        <ele>860.52</ele>
        <time>2012-08-10T08:46:00Z</time>
      </trkpt>
      <trkpt lat="44.59321" lon="2.92829">
        <ele>854.75</ele>
        <time>2012-08-10T08:46:10Z</time>
      </trkpt>
      <trkpt lat="44.59319" lon="2.92819">
        <ele>854.27</ele>
        <time>2012-08-10T08:46:11Z</time>
      </trkpt>
      <trkpt lat="44.59316" lon="2.92809">
        <ele>853.79</ele>
        <time>2012-08-10T08:46:12Z</time>
      </trkpt>
      <trkpt lat="44.59311" lon="2.92798">
        <ele>853.79</ele>
        <time>2012-08-10T08:46:13Z</time>
      </trkpt>
      <trkpt lat="44.59307" lon="2.92789">
        <ele>853.31</ele>
        <time>2012-08-10T08:46:14Z</time>
      </trkpt>
      <trkpt lat="44.59298" lon="2.9277">
        <ele>851.87</ele>
        <time>2012-08-10T08:46:16Z</time>
      </trkpt>
      <trkpt lat="44.59286" lon="2.92735">
        <ele>850.42</ele>
        <time>2012-08-10T08:46:19Z</time>
      </trkpt>
      <trkpt lat="44.59283" lon="2.92723">
        <ele>849.94</ele>
        <time>2012-08-10T08:46:20Z</time>
      </trkpt>
      <trkpt lat="44.59261" lon="2.92615">
        <ele>844.18</ele>
        <time>2012-08-10T08:46:29Z</time>
      </trkpt>
      <trkpt lat="44.59244" lon="2.9253">
        <ele>837.93</ele>
        <time>2012-08-10T08:46:39Z</time>
      </trkpt>
      <trkpt lat="44.59243" lon="2.92523">
        <ele>837.45</ele>
        <time>2012-08-10T08:46:40Z</time>
      </trkpt>
      <trkpt lat="44.59241" lon="2.92517">
        <ele>836.48</ele>
        <time>2012-08-10T08:46:41Z</time>
      </trkpt>
      <trkpt lat="44.59239" lon="2.9251">
        <ele>836</ele>
        <time>2012-08-10T08:46:42Z</time>
      </trkpt>
      <trkpt lat="44.59236" lon="2.92503">
        <ele>835.04</ele>
        <time>2012-08-10T08:46:43Z</time>
      </trkpt>
      <trkpt lat="44.59233" lon="2.92497">
        <ele>834.56</ele>
        <time>2012-08-10T08:46:44Z</time>
      </trkpt>
      <trkpt lat="44.5923" lon="2.92491">
        <ele>833.6</ele>
        <time>2012-08-10T08:46:45Z</time>
      </trkpt>
      <trkpt lat="44.59226" lon="2.92486">
        <ele>833.12</ele>
        <time>2012-08-10T08:46:46Z</time>
      </trkpt>
      <trkpt lat="44.59219" lon="2.92476">
        <ele>831.68</ele>
        <time>2012-08-10T08:46:48Z</time>
      </trkpt>
      <trkpt lat="44.59185" lon="2.92438">
        <ele>825.43</ele>
        <time>2012-08-10T08:46:56Z</time>
      </trkpt>
      <trkpt lat="44.59181" lon="2.92432">
        <ele>824.95</ele>
        <time>2012-08-10T08:46:57Z</time>
      </trkpt>
      <trkpt lat="44.59177" lon="2.92427">
        <ele>824.47</ele>
        <time>2012-08-10T08:46:58Z</time>
      </trkpt>
      <trkpt lat="44.59173" lon="2.92423">
        <ele>823.99</ele>
        <time>2012-08-10T08:46:59Z</time>
      </trkpt>
      <trkpt lat="44.59169" lon="2.92418">
        <ele>823.51</ele>
        <time>2012-08-10T08:47:00Z</time>
      </trkpt>
      <trkpt lat="44.59144" lon="2.92395">
        <ele>819.66</ele>
        <time>2012-08-10T08:47:08Z</time>
      </trkpt>
      <trkpt lat="44.59128" lon="2.92373">
        <ele>818.22</ele>
        <time>2012-08-10T08:47:18Z</time>
      </trkpt>
      <trkpt lat="44.59114" lon="2.92325">
        <ele>819.66</ele>
        <time>2012-08-10T08:47:33Z</time>
      </trkpt>
      <trkpt lat="44.5911" lon="2.92279">
        <ele>821.1</ele>
        <time>2012-08-10T08:47:48Z</time>
      </trkpt>
      <trkpt lat="44.59104" lon="2.92235">
        <ele>820.14</ele>
        <time>2012-08-10T08:47:59Z</time>
      </trkpt>
      <trkpt lat="44.59102" lon="2.92219">
        <ele>820.14</ele>
        <time>2012-08-10T08:48:10Z</time>
      </trkpt>
      <trkpt lat="44.59104" lon="2.92216">
        <ele>821.1</ele>
        <time>2012-08-10T08:48:28Z</time>
      </trkpt>
      <trkpt lat="44.59104" lon="2.92215">
        <ele>822.06</ele>
        <time>2012-08-10T08:48:53Z</time>
      </trkpt>
      <trkpt lat="44.59103" lon="2.92215">
        <ele>823.03</ele>
        <time>2012-08-10T08:49:26Z</time>
      </trkpt>
      <trkpt lat="44.59102" lon="2.92215">
        <ele>823.51</ele>
        <time>2012-08-10T08:50:01Z</time>
      </trkpt>
      <trkpt lat="44.59102" lon="2.92215">
        <ele>823.51</ele>
        <time>2012-08-10T08:50:32Z</time>
      </trkpt>
      <trkpt lat="44.59102" lon="2.92216">
        <ele>824.95</ele>
        <time>2012-08-10T08:51:02Z</time>
      </trkpt>
      <trkpt lat="44.59101" lon="2.92216">
        <ele>826.87</ele>
        <time>2012-08-10T08:51:34Z</time>
      </trkpt>
      <trkpt lat="44.591" lon="2.92216">
        <ele>827.35</ele>
        <time>2012-08-10T08:52:02Z</time>
      </trkpt>
      <trkpt lat="44.59099" lon="2.92217">
        <ele>827.83</ele>
        <time>2012-08-10T08:52:31Z</time>
      </trkpt>
      <trkpt lat="44.591" lon="2.92218">
        <ele>827.83</ele>
        <time>2012-08-10T08:53:02Z</time>
      </trkpt>
      <trkpt lat="44.591" lon="2.92217">
        <ele>827.83</ele>
        <time>2012-08-10T08:53:32Z</time>
      </trkpt>
      <trkpt lat="44.591" lon="2.92217">
        <ele>827.35</ele>
        <time>2012-08-10T08:53:55Z</time>
      </trkpt>
      <trkpt lat="44.591" lon="2.92217">
        <ele>826.87</ele>
        <time>2012-08-10T08:54:25Z</time>
      </trkpt>
      <trkpt lat="44.591" lon="2.92218">
        <ele>826.39</ele>
        <time>2012-08-10T08:54:49Z</time>
      </trkpt>
      <trkpt lat="44.59101" lon="2.92217">
        <ele>826.39</ele>
        <time>2012-08-10T08:55:16Z</time>
      </trkpt>
      <trkpt lat="44.59101" lon="2.92216">
        <ele>826.87</ele>
        <time>2012-08-10T08:55:44Z</time>
      </trkpt>
      <trkpt lat="44.59101" lon="2.92215">
        <ele>827.35</ele>
        <time>2012-08-10T08:56:06Z</time>
      </trkpt>
      <trkpt lat="44.59101" lon="2.92217">
        <ele>827.35</ele>
        <time>2012-08-10T08:56:33Z</time>
      </trkpt>
      <trkpt lat="44.59101" lon="2.92218">
        <ele>827.83</ele>
        <time>2012-08-10T08:56:56Z</time>
      </trkpt>
      <trkpt lat="44.59101" lon="2.92219">
        <ele>827.83</ele>
        <time>2012-08-10T08:57:24Z</time>
      </trkpt>
      <trkpt lat="44.59102" lon="2.9222">
        <ele>828.31</ele>
        <time>2012-08-10T08:57:53Z</time>
      </trkpt>
      <trkpt lat="44.59102" lon="2.9222">
        <ele>828.31</ele>
        <time>2012-08-10T08:58:20Z</time>
      </trkpt>
      <trkpt lat="44.59102" lon="2.92219">
        <ele>828.31</ele>
        <time>2012-08-10T08:58:47Z</time>
      </trkpt>
      <trkpt lat="44.59102" lon="2.9222">
        <ele>827.83</ele>
        <time>2012-08-10T08:59:11Z</time>
      </trkpt>
      <trkpt lat="44.59102" lon="2.92221">
        <ele>828.31</ele>
        <time>2012-08-10T08:59:41Z</time>
      </trkpt>
      <trkpt lat="44.59101" lon="2.92221">
        <ele>827.83</ele>
        <time>2012-08-10T09:00:05Z</time>
      </trkpt>
      <trkpt lat="44.59101" lon="2.92221">
        <ele>827.83</ele>
        <time>2012-08-10T09:00:31Z</time>
      </trkpt>
      <trkpt lat="44.591" lon="2.92221">
        <ele>827.83</ele>
        <time>2012-08-10T09:00:57Z</time>
      </trkpt>
      <trkpt lat="44.59099" lon="2.92221">
        <ele>827.83</ele>
        <time>2012-08-10T09:01:15Z</time>
      </trkpt>
      <trkpt lat="44.59098" lon="2.92222">
        <ele>827.83</ele>
        <time>2012-08-10T09:01:38Z</time>
      </trkpt>
      <trkpt lat="44.59099" lon="2.92221">
        <ele>827.83</ele>
        <time>2012-08-10T09:02:00Z</time>
      </trkpt>
      <trkpt lat="44.59099" lon="2.92219">
        <ele>827.83</ele>
        <time>2012-08-10T09:02:24Z</time>
      </trkpt>
      <trkpt lat="44.591" lon="2.92218">
        <ele>828.31</ele>
        <time>2012-08-10T09:02:51Z</time>
      </trkpt>
      <trkpt lat="44.591" lon="2.92217">
        <ele>828.31</ele>
        <time>2012-08-10T09:03:15Z</time>
      </trkpt>
      <trkpt lat="44.591" lon="2.92215">
        <ele>828.31</ele>
        <time>2012-08-10T09:03:48Z</time>
      </trkpt>
      <trkpt lat="44.59101" lon="2.92215">
        <ele>828.31</ele>
        <time>2012-08-10T09:04:21Z</time>
      </trkpt>
      <trkpt lat="44.59103" lon="2.92213">
        <ele>829.27</ele>
        <time>2012-08-10T09:04:51Z</time>
      </trkpt>
      <trkpt lat="44.59103" lon="2.92215">
        <ele>827.83</ele>
        <time>2012-08-10T09:05:09Z</time>
      </trkpt>
      <trkpt lat="44.59101" lon="2.92204">
        <ele>824.47</ele>
        <time>2012-08-10T09:05:24Z</time>
      </trkpt>
      <trkpt lat="44.59094" lon="2.92162">
        <ele>821.1</ele>
        <time>2012-08-10T09:05:37Z</time>
      </trkpt>
      <trkpt lat="44.59091" lon="2.92159">
        <ele>820.62</ele>
        <time>2012-08-10T09:05:41Z</time>
      </trkpt>
      <trkpt lat="44.5909" lon="2.9216">
        <ele>818.7</ele>
        <time>2012-08-10T09:05:44Z</time>
      </trkpt>
      <trkpt lat="44.59089" lon="2.92163">
        <ele>818.22</ele>
        <time>2012-08-10T09:05:45Z</time>
      </trkpt>
      <trkpt lat="44.59089" lon="2.92165">
        <ele>818.22</ele>
        <time>2012-08-10T09:05:46Z</time>
      </trkpt>
      <trkpt lat="44.59088" lon="2.92165">
        <ele>817.74</ele>
        <time>2012-08-10T09:05:47Z</time>
      </trkpt>
      <trkpt lat="44.59087" lon="2.92164">
        <ele>817.74</ele>
        <time>2012-08-10T09:05:48Z</time>
      </trkpt>
      <trkpt lat="44.59086" lon="2.92164">
        <ele>817.26</ele>
        <time>2012-08-10T09:05:49Z</time>
      </trkpt>
      <trkpt lat="44.59084" lon="2.92166">
        <ele>816.78</ele>
        <time>2012-08-10T09:05:50Z</time>
      </trkpt>
      <trkpt lat="44.59082" lon="2.92168">
        <ele>816.3</ele>
        <time>2012-08-10T09:05:51Z</time>
      </trkpt>
      <trkpt lat="44.59055" lon="2.92167">
        <ele>814.85</ele>
        <time>2012-08-10T09:06:00Z</time>
      </trkpt>
      <trkpt lat="44.5905" lon="2.92162">
        <ele>814.85</ele>
        <time>2012-08-10T09:06:02Z</time>
      </trkpt>
      <trkpt lat="44.59049" lon="2.92158">
        <ele>814.85</ele>
        <time>2012-08-10T09:06:03Z</time>
      </trkpt>
      <trkpt lat="44.59049" lon="2.92155">
        <ele>814.37</ele>
        <time>2012-08-10T09:06:04Z</time>
      </trkpt>
      <trkpt lat="44.59048" lon="2.92153">
        <ele>814.37</ele>
        <time>2012-08-10T09:06:05Z</time>
      </trkpt>
      <trkpt lat="44.59047" lon="2.9215">
        <ele>814.37</ele>
        <time>2012-08-10T09:06:06Z</time>
      </trkpt>
      <trkpt lat="44.59046" lon="2.92147">
        <ele>813.89</ele>
        <time>2012-08-10T09:06:07Z</time>
      </trkpt>
      <trkpt lat="44.59045" lon="2.92144">
        <ele>813.89</ele>
        <time>2012-08-10T09:06:08Z</time>
      </trkpt>
      <trkpt lat="44.59044" lon="2.9214">
        <ele>813.89</ele>
        <time>2012-08-10T09:06:09Z</time>
      </trkpt>
      <trkpt lat="44.59036" lon="2.92112">
        <ele>813.89</ele>
        <time>2012-08-10T09:06:18Z</time>
      </trkpt>
      <trkpt lat="44.59032" lon="2.92111">
        <ele>813.41</ele>
        <time>2012-08-10T09:06:20Z</time>
      </trkpt>
      <trkpt lat="44.5903" lon="2.92111">
        <ele>812.93</ele>
        <time>2012-08-10T09:06:21Z</time>
      </trkpt>
      <trkpt lat="44.59028" lon="2.92111">
        <ele>812.45</ele>
        <time>2012-08-10T09:06:22Z</time>
      </trkpt>
      <trkpt lat="44.59025" lon="2.92111">
        <ele>811.97</ele>
        <time>2012-08-10T09:06:23Z</time>
      </trkpt>
      <trkpt lat="44.59023" lon="2.9211">
        <ele>811.49</ele>
        <time>2012-08-10T09:06:24Z</time>
      </trkpt>
      <trkpt lat="44.5902" lon="2.9211">
        <ele>810.53</ele>
        <time>2012-08-10T09:06:25Z</time>
      </trkpt>
      <trkpt lat="44.58992" lon="2.92133">
        <ele>811.01</ele>
        <time>2012-08-10T09:06:37Z</time>
      </trkpt>
      <trkpt lat="44.58982" lon="2.92139">
        <ele>811.01</ele>
        <time>2012-08-10T09:06:42Z</time>
      </trkpt>
      <trkpt lat="44.5898" lon="2.92139">
        <ele>810.53</ele>
        <time>2012-08-10T09:06:43Z</time>
      </trkpt>
      <trkpt lat="44.58978" lon="2.92137">
        <ele>810.53</ele>
        <time>2012-08-10T09:06:44Z</time>
      </trkpt>
      <trkpt lat="44.58976" lon="2.92135">
        <ele>810.05</ele>
        <time>2012-08-10T09:06:45Z</time>
      </trkpt>
      <trkpt lat="44.58974" lon="2.92132">
        <ele>810.05</ele>
        <time>2012-08-10T09:06:46Z</time>
      </trkpt>
      <trkpt lat="44.58971" lon="2.92131">
        <ele>809.57</ele>
        <time>2012-08-10T09:06:47Z</time>
      </trkpt>
      <trkpt lat="44.58969" lon="2.92131">
        <ele>809.09</ele>
        <time>2012-08-10T09:06:48Z</time>
      </trkpt>
      <trkpt lat="44.58962" lon="2.92139">
        <ele>807.64</ele>
        <time>2012-08-10T09:06:51Z</time>
      </trkpt>
      <trkpt lat="44.58954" lon="2.92151">
        <ele>804.76</ele>
        <time>2012-08-10T09:06:55Z</time>
      </trkpt>
      <trkpt lat="44.58929" lon="2.92151">
        <ele>799.95</ele>
        <time>2012-08-10T09:07:01Z</time>
      </trkpt>
      <trkpt lat="44.58901" lon="2.92144">
        <ele>796.11</ele>
        <time>2012-08-10T09:07:11Z</time>
      </trkpt>
      <trkpt lat="44.58896" lon="2.92148">
        <ele>795.63</ele>
        <time>2012-08-10T09:07:15Z</time>
      </trkpt>
      <trkpt lat="44.58894" lon="2.92149">
        <ele>795.63</ele>
        <time>2012-08-10T09:07:16Z</time>
      </trkpt>
      <trkpt lat="44.58893" lon="2.92151">
        <ele>795.63</ele>
        <time>2012-08-10T09:07:17Z</time>
      </trkpt>
      <trkpt lat="44.58892" lon="2.92152">
        <ele>796.11</ele>
        <time>2012-08-10T09:07:18Z</time>
      </trkpt>
      <trkpt lat="44.58891" lon="2.92154">
        <ele>796.11</ele>
        <time>2012-08-10T09:07:19Z</time>
      </trkpt>
      <trkpt lat="44.5889" lon="2.92156">
        <ele>796.11</ele>
        <time>2012-08-10T09:07:20Z</time>
      </trkpt>
      <trkpt lat="44.58889" lon="2.92157">
        <ele>796.11</ele>
        <time>2012-08-10T09:07:21Z</time>
      </trkpt>
      <trkpt lat="44.58884" lon="2.92167">
        <ele>795.63</ele>
        <time>2012-08-10T09:07:27Z</time>
      </trkpt>
      <trkpt lat="44.58883" lon="2.92168">
        <ele>796.11</ele>
        <time>2012-08-10T09:07:28Z</time>
      </trkpt>
      <trkpt lat="44.58882" lon="2.92168">
        <ele>796.11</ele>
        <time>2012-08-10T09:07:29Z</time>
      </trkpt>
      <trkpt lat="44.58882" lon="2.92173">
        <ele>796.59</ele>
        <time>2012-08-10T09:07:34Z</time>
      </trkpt>
      <trkpt lat="44.58882" lon="2.92175">
        <ele>797.07</ele>
        <time>2012-08-10T09:07:35Z</time>
      </trkpt>
      <trkpt lat="44.58882" lon="2.92176">
        <ele>797.07</ele>
        <time>2012-08-10T09:07:36Z</time>
      </trkpt>
      <trkpt lat="44.58882" lon="2.92178">
        <ele>797.07</ele>
        <time>2012-08-10T09:07:37Z</time>
      </trkpt>
      <trkpt lat="44.58883" lon="2.92179">
        <ele>797.07</ele>
        <time>2012-08-10T09:07:38Z</time>
      </trkpt>
      <trkpt lat="44.58884" lon="2.9218">
        <ele>797.55</ele>
        <time>2012-08-10T09:07:39Z</time>
      </trkpt>
      <trkpt lat="44.58885" lon="2.92182">
        <ele>797.55</ele>
        <time>2012-08-10T09:07:40Z</time>
      </trkpt>
      <trkpt lat="44.58885" lon="2.92183">
        <ele>798.03</ele>
        <time>2012-08-10T09:07:41Z</time>
      </trkpt>
      <trkpt lat="44.58884" lon="2.92185">
        <ele>798.51</ele>
        <time>2012-08-10T09:07:42Z</time>
      </trkpt>
      <trkpt lat="44.58882" lon="2.92184">
        <ele>798.99</ele>
        <time>2012-08-10T09:07:44Z</time>
      </trkpt>
      <trkpt lat="44.58881" lon="2.92183">
        <ele>799.47</ele>
        <time>2012-08-10T09:07:45Z</time>
      </trkpt>
      <trkpt lat="44.5888" lon="2.92182">
        <ele>799.47</ele>
        <time>2012-08-10T09:07:46Z</time>
      </trkpt>
      <trkpt lat="44.58879" lon="2.92181">
        <ele>799.95</ele>
        <time>2012-08-10T09:07:47Z</time>
      </trkpt>
      <trkpt lat="44.58876" lon="2.92179">
        <ele>800.92</ele>
        <time>2012-08-10T09:07:52Z</time>
      </trkpt>
      <trkpt lat="44.58875" lon="2.9218">
        <ele>800.92</ele>
        <time>2012-08-10T09:07:53Z</time>
      </trkpt>
      <trkpt lat="44.58876" lon="2.92181">
        <ele>800.92</ele>
        <time>2012-08-10T09:07:54Z</time>
      </trkpt>
      <trkpt lat="44.58877" lon="2.92183">
        <ele>800.92</ele>
        <time>2012-08-10T09:07:55Z</time>
      </trkpt>
      <trkpt lat="44.58879" lon="2.92184">
        <ele>800.44</ele>
        <time>2012-08-10T09:07:56Z</time>
      </trkpt>
      <trkpt lat="44.5888" lon="2.92186">
        <ele>800.44</ele>
        <time>2012-08-10T09:07:57Z</time>
      </trkpt>
      <trkpt lat="44.58882" lon="2.92187">
        <ele>799.95</ele>
        <time>2012-08-10T09:07:58Z</time>
      </trkpt>
      <trkpt lat="44.58884" lon="2.92187">
        <ele>799.47</ele>
        <time>2012-08-10T09:07:59Z</time>
      </trkpt>
      <trkpt lat="44.58886" lon="2.92187">
        <ele>798.99</ele>
        <time>2012-08-10T09:08:00Z</time>
      </trkpt>
      <trkpt lat="44.58887" lon="2.92188">
        <ele>798.99</ele>
        <time>2012-08-10T09:08:01Z</time>
      </trkpt>
      <trkpt lat="44.58887" lon="2.9219">
        <ele>799.47</ele>
        <time>2012-08-10T09:08:04Z</time>
      </trkpt>
      <trkpt lat="44.58883" lon="2.92188">
        <ele>798.99</ele>
        <time>2012-08-10T09:08:07Z</time>
      </trkpt>
      <trkpt lat="44.58882" lon="2.92186">
        <ele>798.99</ele>
        <time>2012-08-10T09:08:08Z</time>
      </trkpt>
      <trkpt lat="44.58882" lon="2.92184">
        <ele>798.99</ele>
        <time>2012-08-10T09:08:09Z</time>
      </trkpt>
      <trkpt lat="44.58883" lon="2.92182">
        <ele>798.51</ele>
        <time>2012-08-10T09:08:10Z</time>
      </trkpt>
      <trkpt lat="44.58883" lon="2.92179">
        <ele>798.51</ele>
        <time>2012-08-10T09:08:11Z</time>
      </trkpt>
      <trkpt lat="44.58883" lon="2.92175">
        <ele>798.03</ele>
        <time>2012-08-10T09:08:12Z</time>
      </trkpt>
      <trkpt lat="44.58882" lon="2.92172">
        <ele>798.03</ele>
        <time>2012-08-10T09:08:13Z</time>
      </trkpt>
      <trkpt lat="44.58882" lon="2.92164">
        <ele>797.07</ele>
        <time>2012-08-10T09:08:16Z</time>
      </trkpt>
      <trkpt lat="44.58884" lon="2.92161">
        <ele>796.11</ele>
        <time>2012-08-10T09:08:30Z</time>
      </trkpt>
      <trkpt lat="44.58886" lon="2.92161">
        <ele>796.59</ele>
        <time>2012-08-10T09:08:55Z</time>
      </trkpt>
      <trkpt lat="44.58888" lon="2.92159">
        <ele>796.59</ele>
        <time>2012-08-10T09:08:56Z</time>
      </trkpt>
      <trkpt lat="44.58907" lon="2.92145">
        <ele>796.59</ele>
        <time>2012-08-10T09:09:05Z</time>
      </trkpt>
    </trkseg>
  </trk>
</gpx>